<?xml version="1.0" encoding="UTF-8" standalone="no" ?>
<gpx xmlns="http://www.topografix.com/GPX/1/1" xmlns:xsi="http://www.w3.org/2001/XMLSchema-instance" xsi:schemaLocation="http://www.topografix.com/GPX/1/1 http://www.topografix.com/GPX/1/1/gpx.xsd" version="1.1" creator="VisuGPX - https://www.visugpx.com">
  <metadata>
    <name>Pont Croix / Pouldavid</name>
    <desc><![CDATA[Chemin de Compostelle en Bretagne, qui relie Pont-Croix dont l\'église abrite une statue de St Jacques datée du XIVém et l\'église St Jacques à Pouldavid. Très agréable parcours qui évite les routes autant que faire ce peut. Ce parcours traverse des propriétées privées avec l\'aimable autorisation verbale des propriétaires, soyez respectueux MERCI 
Bonne rando ch]]></desc>
  </metadata>
  <trk>
    <name><![CDATA[Pont-Croix/St Jacques Pouldavid: 22 AOU 2014 09:41]]></name>
    <trkseg>
      <trkpt lat="48.04057" lon="-4.48692">
        <ele>59.74</ele>
        <time>2014-08-22T07:41:55Z</time>
      </trkpt>
      <trkpt lat="48.04079" lon="-4.48679">
        <ele>23.69</ele>
        <time>2014-08-22T07:42:27Z</time>
      </trkpt>
      <trkpt lat="48.0407" lon="-4.4868">
        <ele>38.11</ele>
        <time>2014-08-22T07:43:02Z</time>
      </trkpt>
      <trkpt lat="48.04073" lon="-4.48681">
        <ele>37.15</ele>
        <time>2014-08-22T07:43:27Z</time>
      </trkpt>
      <trkpt lat="48.04072" lon="-4.48681">
        <ele>37.15</ele>
        <time>2014-08-22T07:43:47Z</time>
      </trkpt>
      <trkpt lat="48.04072" lon="-4.48681">
        <ele>37.15</ele>
        <time>2014-08-22T07:43:50Z</time>
      </trkpt>
      <trkpt lat="48.04085" lon="-4.48676">
        <ele>37.63</ele>
        <time>2014-08-22T07:58:48Z</time>
      </trkpt>
      <trkpt lat="48.04077" lon="-4.48684">
        <ele>36.19</ele>
        <time>2014-08-22T07:59:06Z</time>
      </trkpt>
      <trkpt lat="48.04077" lon="-4.48693">
        <ele>35.71</ele>
        <time>2014-08-22T07:59:21Z</time>
      </trkpt>
      <trkpt lat="48.04076" lon="-4.48694">
        <ele>35.71</ele>
        <time>2014-08-22T07:59:22Z</time>
      </trkpt>
      <trkpt lat="48.04074" lon="-4.48715">
        <ele>35.71</ele>
        <time>2014-08-22T07:59:37Z</time>
      </trkpt>
      <trkpt lat="48.04071" lon="-4.48718">
        <ele>35.71</ele>
        <time>2014-08-22T07:59:41Z</time>
      </trkpt>
      <trkpt lat="48.04052" lon="-4.48717">
        <ele>38.11</ele>
        <time>2014-08-22T07:59:57Z</time>
      </trkpt>
      <trkpt lat="48.0404" lon="-4.48714">
        <ele>36.19</ele>
        <time>2014-08-22T08:00:09Z</time>
      </trkpt>
      <trkpt lat="48.04032" lon="-4.48717">
        <ele>33.78</ele>
        <time>2014-08-22T08:00:19Z</time>
      </trkpt>
      <trkpt lat="48.04024" lon="-4.48717">
        <ele>28.98</ele>
        <time>2014-08-22T08:00:33Z</time>
      </trkpt>
      <trkpt lat="48.04023" lon="-4.48719">
        <ele>28.5</ele>
        <time>2014-08-22T08:00:54Z</time>
      </trkpt>
      <trkpt lat="48.04016" lon="-4.48712">
        <ele>23.69</ele>
        <time>2014-08-22T08:01:12Z</time>
      </trkpt>
      <trkpt lat="48.04008" lon="-4.48709">
        <ele>22.25</ele>
        <time>2014-08-22T08:01:24Z</time>
      </trkpt>
      <trkpt lat="48.03998" lon="-4.4871">
        <ele>22.25</ele>
        <time>2014-08-22T08:01:37Z</time>
      </trkpt>
      <trkpt lat="48.03991" lon="-4.48711">
        <ele>21.77</ele>
        <time>2014-08-22T08:01:49Z</time>
      </trkpt>
      <trkpt lat="48.03975" lon="-4.4871">
        <ele>19.36</ele>
        <time>2014-08-22T08:02:07Z</time>
      </trkpt>
      <trkpt lat="48.03968" lon="-4.48718">
        <ele>16.48</ele>
        <time>2014-08-22T08:02:22Z</time>
      </trkpt>
      <trkpt lat="48.03959" lon="-4.48729">
        <ele>15.04</ele>
        <time>2014-08-22T08:02:36Z</time>
      </trkpt>
      <trkpt lat="48.03951" lon="-4.48735">
        <ele>12.63</ele>
        <time>2014-08-22T08:02:51Z</time>
      </trkpt>
      <trkpt lat="48.03947" lon="-4.48738">
        <ele>15.04</ele>
        <time>2014-08-22T08:03:07Z</time>
      </trkpt>
      <trkpt lat="48.0394" lon="-4.4874">
        <ele>11.19</ele>
        <time>2014-08-22T08:03:22Z</time>
      </trkpt>
      <trkpt lat="48.03932" lon="-4.48741">
        <ele>8.31</ele>
        <time>2014-08-22T08:03:34Z</time>
      </trkpt>
      <trkpt lat="48.03929" lon="-4.48758">
        <ele>2.54</ele>
        <time>2014-08-22T08:03:47Z</time>
      </trkpt>
      <trkpt lat="48.03923" lon="-4.48761">
        <ele>2.06</ele>
        <time>2014-08-22T08:03:51Z</time>
      </trkpt>
      <trkpt lat="48.03908" lon="-4.48756">
        <ele>2.06</ele>
        <time>2014-08-22T08:04:05Z</time>
      </trkpt>
      <trkpt lat="48.03891" lon="-4.48749">
        <ele>4.46</ele>
        <time>2014-08-22T08:04:20Z</time>
      </trkpt>
      <trkpt lat="48.0388" lon="-4.48731">
        <ele>5.42</ele>
        <time>2014-08-22T08:04:32Z</time>
      </trkpt>
      <trkpt lat="48.03878" lon="-4.48728">
        <ele>5.42</ele>
        <time>2014-08-22T08:04:34Z</time>
      </trkpt>
      <trkpt lat="48.03869" lon="-4.48712">
        <ele>9.75</ele>
        <time>2014-08-22T08:04:42Z</time>
      </trkpt>
      <trkpt lat="48.03862" lon="-4.487">
        <ele>10.71</ele>
        <time>2014-08-22T08:04:52Z</time>
      </trkpt>
      <trkpt lat="48.03853" lon="-4.48686">
        <ele>11.67</ele>
        <time>2014-08-22T08:05:03Z</time>
      </trkpt>
      <trkpt lat="48.03843" lon="-4.48672">
        <ele>10.71</ele>
        <time>2014-08-22T08:05:16Z</time>
      </trkpt>
      <trkpt lat="48.03833" lon="-4.48655">
        <ele>6.87</ele>
        <time>2014-08-22T08:05:28Z</time>
      </trkpt>
      <trkpt lat="48.03826" lon="-4.48641">
        <ele>3.98</ele>
        <time>2014-08-22T08:05:39Z</time>
      </trkpt>
      <trkpt lat="48.03821" lon="-4.48636">
        <ele>4.46</ele>
        <time>2014-08-22T08:05:43Z</time>
      </trkpt>
      <trkpt lat="48.03812" lon="-4.48624">
        <ele>2.54</ele>
        <time>2014-08-22T08:05:52Z</time>
      </trkpt>
      <trkpt lat="48.03809" lon="-4.48612">
        <ele>1.1</ele>
        <time>2014-08-22T08:06:00Z</time>
      </trkpt>
      <trkpt lat="48.03805" lon="-4.48607">
        <ele>2.06</ele>
        <time>2014-08-22T08:06:06Z</time>
      </trkpt>
      <trkpt lat="48.03805" lon="-4.48602">
        <ele>2.54</ele>
        <time>2014-08-22T08:06:09Z</time>
      </trkpt>
      <trkpt lat="48.03808" lon="-4.48597">
        <ele>2.54</ele>
        <time>2014-08-22T08:06:12Z</time>
      </trkpt>
      <trkpt lat="48.03808" lon="-4.4859">
        <ele>1.1</ele>
        <time>2014-08-22T08:06:16Z</time>
      </trkpt>
      <trkpt lat="48.03809" lon="-4.48573">
        <ele>-2.27</ele>
        <time>2014-08-22T08:06:26Z</time>
      </trkpt>
      <trkpt lat="48.03811" lon="-4.48546">
        <ele>-2.75</ele>
        <time>2014-08-22T08:06:40Z</time>
      </trkpt>
      <trkpt lat="48.03815" lon="-4.4853">
        <ele>-3.23</ele>
        <time>2014-08-22T08:06:49Z</time>
      </trkpt>
      <trkpt lat="48.03826" lon="-4.48505">
        <ele>-0.82</ele>
        <time>2014-08-22T08:07:02Z</time>
      </trkpt>
      <trkpt lat="48.03826" lon="-4.48481">
        <ele>3.02</ele>
        <time>2014-08-22T08:07:14Z</time>
      </trkpt>
      <trkpt lat="48.03815" lon="-4.48463">
        <ele>5.42</ele>
        <time>2014-08-22T08:07:28Z</time>
      </trkpt>
      <trkpt lat="48.03809" lon="-4.4845">
        <ele>6.87</ele>
        <time>2014-08-22T08:07:37Z</time>
      </trkpt>
      <trkpt lat="48.03808" lon="-4.48446">
        <ele>7.35</ele>
        <time>2014-08-22T08:07:40Z</time>
      </trkpt>
      <trkpt lat="48.03804" lon="-4.48433">
        <ele>7.35</ele>
        <time>2014-08-22T08:07:47Z</time>
      </trkpt>
      <trkpt lat="48.03799" lon="-4.48411">
        <ele>8.79</ele>
        <time>2014-08-22T08:07:59Z</time>
      </trkpt>
      <trkpt lat="48.03797" lon="-4.48396">
        <ele>10.71</ele>
        <time>2014-08-22T08:08:07Z</time>
      </trkpt>
      <trkpt lat="48.03795" lon="-4.48385">
        <ele>11.67</ele>
        <time>2014-08-22T08:08:13Z</time>
      </trkpt>
      <trkpt lat="48.0379" lon="-4.48362">
        <ele>14.08</ele>
        <time>2014-08-22T08:08:26Z</time>
      </trkpt>
      <trkpt lat="48.03789" lon="-4.48358">
        <ele>14.08</ele>
        <time>2014-08-22T08:08:28Z</time>
      </trkpt>
      <trkpt lat="48.03788" lon="-4.48349">
        <ele>15.04</ele>
        <time>2014-08-22T08:08:33Z</time>
      </trkpt>
      <trkpt lat="48.03784" lon="-4.48329">
        <ele>16</ele>
        <time>2014-08-22T08:08:44Z</time>
      </trkpt>
      <trkpt lat="48.03779" lon="-4.48306">
        <ele>18.88</ele>
        <time>2014-08-22T08:08:56Z</time>
      </trkpt>
      <trkpt lat="48.03779" lon="-4.48298">
        <ele>19.36</ele>
        <time>2014-08-22T08:09:01Z</time>
      </trkpt>
      <trkpt lat="48.03777" lon="-4.48288">
        <ele>19.36</ele>
        <time>2014-08-22T08:09:06Z</time>
      </trkpt>
      <trkpt lat="48.03776" lon="-4.48265">
        <ele>17.92</ele>
        <time>2014-08-22T08:09:19Z</time>
      </trkpt>
      <trkpt lat="48.03773" lon="-4.48242">
        <ele>19.36</ele>
        <time>2014-08-22T08:09:31Z</time>
      </trkpt>
      <trkpt lat="48.03771" lon="-4.48221">
        <ele>18.4</ele>
        <time>2014-08-22T08:09:43Z</time>
      </trkpt>
      <trkpt lat="48.03768" lon="-4.48208">
        <ele>17.44</ele>
        <time>2014-08-22T08:09:50Z</time>
      </trkpt>
      <trkpt lat="48.03766" lon="-4.48201">
        <ele>17.44</ele>
        <time>2014-08-22T08:09:56Z</time>
      </trkpt>
      <trkpt lat="48.03766" lon="-4.48189">
        <ele>17.44</ele>
        <time>2014-08-22T08:10:04Z</time>
      </trkpt>
      <trkpt lat="48.03764" lon="-4.48166">
        <ele>14.08</ele>
        <time>2014-08-22T08:10:18Z</time>
      </trkpt>
      <trkpt lat="48.03763" lon="-4.48159">
        <ele>13.12</ele>
        <time>2014-08-22T08:10:23Z</time>
      </trkpt>
      <trkpt lat="48.03763" lon="-4.48152">
        <ele>12.15</ele>
        <time>2014-08-22T08:10:28Z</time>
      </trkpt>
      <trkpt lat="48.03761" lon="-4.48124">
        <ele>12.63</ele>
        <time>2014-08-22T08:10:41Z</time>
      </trkpt>
      <trkpt lat="48.03761" lon="-4.48121">
        <ele>12.63</ele>
        <time>2014-08-22T08:10:43Z</time>
      </trkpt>
      <trkpt lat="48.03761" lon="-4.48114">
        <ele>12.15</ele>
        <time>2014-08-22T08:10:48Z</time>
      </trkpt>
      <trkpt lat="48.03759" lon="-4.48096">
        <ele>9.75</ele>
        <time>2014-08-22T08:10:59Z</time>
      </trkpt>
      <trkpt lat="48.03759" lon="-4.48076">
        <ele>5.42</ele>
        <time>2014-08-22T08:11:14Z</time>
      </trkpt>
      <trkpt lat="48.03756" lon="-4.48049">
        <ele>6.39</ele>
        <time>2014-08-22T08:11:25Z</time>
      </trkpt>
      <trkpt lat="48.03756" lon="-4.48043">
        <ele>6.87</ele>
        <time>2014-08-22T08:11:30Z</time>
      </trkpt>
      <trkpt lat="48.03757" lon="-4.48023">
        <ele>8.31</ele>
        <time>2014-08-22T08:11:41Z</time>
      </trkpt>
      <trkpt lat="48.03757" lon="-4.48016">
        <ele>8.79</ele>
        <time>2014-08-22T08:11:45Z</time>
      </trkpt>
      <trkpt lat="48.03756" lon="-4.47993">
        <ele>8.79</ele>
        <time>2014-08-22T08:11:55Z</time>
      </trkpt>
      <trkpt lat="48.03756" lon="-4.47989">
        <ele>8.31</ele>
        <time>2014-08-22T08:11:57Z</time>
      </trkpt>
      <trkpt lat="48.03757" lon="-4.47965">
        <ele>9.27</ele>
        <time>2014-08-22T08:12:10Z</time>
      </trkpt>
      <trkpt lat="48.03759" lon="-4.47945">
        <ele>9.27</ele>
        <time>2014-08-22T08:12:21Z</time>
      </trkpt>
      <trkpt lat="48.03756" lon="-4.47926">
        <ele>11.67</ele>
        <time>2014-08-22T08:12:30Z</time>
      </trkpt>
      <trkpt lat="48.03754" lon="-4.47911">
        <ele>14.08</ele>
        <time>2014-08-22T08:12:38Z</time>
      </trkpt>
      <trkpt lat="48.03752" lon="-4.47888">
        <ele>14.56</ele>
        <time>2014-08-22T08:12:49Z</time>
      </trkpt>
      <trkpt lat="48.0375" lon="-4.47883">
        <ele>15.04</ele>
        <time>2014-08-22T08:12:52Z</time>
      </trkpt>
      <trkpt lat="48.03747" lon="-4.47867">
        <ele>14.08</ele>
        <time>2014-08-22T08:13:02Z</time>
      </trkpt>
      <trkpt lat="48.03746" lon="-4.47858">
        <ele>13.12</ele>
        <time>2014-08-22T08:13:08Z</time>
      </trkpt>
      <trkpt lat="48.03746" lon="-4.47836">
        <ele>8.79</ele>
        <time>2014-08-22T08:13:24Z</time>
      </trkpt>
      <trkpt lat="48.03744" lon="-4.47812">
        <ele>7.83</ele>
        <time>2014-08-22T08:13:38Z</time>
      </trkpt>
      <trkpt lat="48.03743" lon="-4.47799">
        <ele>8.31</ele>
        <time>2014-08-22T08:13:46Z</time>
      </trkpt>
      <trkpt lat="48.0373" lon="-4.4778">
        <ele>8.31</ele>
        <time>2014-08-22T08:14:02Z</time>
      </trkpt>
      <trkpt lat="48.03711" lon="-4.47786">
        <ele>7.83</ele>
        <time>2014-08-22T08:14:21Z</time>
      </trkpt>
      <trkpt lat="48.03689" lon="-4.4779">
        <ele>10.23</ele>
        <time>2014-08-22T08:14:37Z</time>
      </trkpt>
      <trkpt lat="48.03671" lon="-4.47792">
        <ele>17.92</ele>
        <time>2014-08-22T08:14:49Z</time>
      </trkpt>
      <trkpt lat="48.03662" lon="-4.47791">
        <ele>19.36</ele>
        <time>2014-08-22T08:14:56Z</time>
      </trkpt>
      <trkpt lat="48.03657" lon="-4.47791">
        <ele>20.32</ele>
        <time>2014-08-22T08:15:01Z</time>
      </trkpt>
      <trkpt lat="48.03647" lon="-4.47791">
        <ele>21.29</ele>
        <time>2014-08-22T08:15:07Z</time>
      </trkpt>
      <trkpt lat="48.03634" lon="-4.47789">
        <ele>21.77</ele>
        <time>2014-08-22T08:15:18Z</time>
      </trkpt>
      <trkpt lat="48.03631" lon="-4.4779">
        <ele>22.25</ele>
        <time>2014-08-22T08:15:21Z</time>
      </trkpt>
      <trkpt lat="48.03615" lon="-4.4779">
        <ele>21.77</ele>
        <time>2014-08-22T08:15:33Z</time>
      </trkpt>
      <trkpt lat="48.03608" lon="-4.47787">
        <ele>23.21</ele>
        <time>2014-08-22T08:15:38Z</time>
      </trkpt>
      <trkpt lat="48.0359" lon="-4.47784">
        <ele>24.17</ele>
        <time>2014-08-22T08:15:51Z</time>
      </trkpt>
      <trkpt lat="48.03568" lon="-4.47773">
        <ele>25.13</ele>
        <time>2014-08-22T08:16:09Z</time>
      </trkpt>
      <trkpt lat="48.03554" lon="-4.47756">
        <ele>25.13</ele>
        <time>2014-08-22T08:16:23Z</time>
      </trkpt>
      <trkpt lat="48.03552" lon="-4.47752">
        <ele>25.61</ele>
        <time>2014-08-22T08:16:26Z</time>
      </trkpt>
      <trkpt lat="48.03547" lon="-4.47746">
        <ele>25.13</ele>
        <time>2014-08-22T08:16:31Z</time>
      </trkpt>
      <trkpt lat="48.03546" lon="-4.47742">
        <ele>26.09</ele>
        <time>2014-08-22T08:16:33Z</time>
      </trkpt>
      <trkpt lat="48.03541" lon="-4.47735">
        <ele>25.61</ele>
        <time>2014-08-22T08:16:38Z</time>
      </trkpt>
      <trkpt lat="48.03534" lon="-4.47717">
        <ele>27.53</ele>
        <time>2014-08-22T08:16:50Z</time>
      </trkpt>
      <trkpt lat="48.03525" lon="-4.47701">
        <ele>29.46</ele>
        <time>2014-08-22T08:17:02Z</time>
      </trkpt>
      <trkpt lat="48.03513" lon="-4.47676">
        <ele>30.42</ele>
        <time>2014-08-22T08:17:18Z</time>
      </trkpt>
      <trkpt lat="48.03503" lon="-4.47654">
        <ele>28.5</ele>
        <time>2014-08-22T08:17:33Z</time>
      </trkpt>
      <trkpt lat="48.03493" lon="-4.47635">
        <ele>28.5</ele>
        <time>2014-08-22T08:17:47Z</time>
      </trkpt>
      <trkpt lat="48.03481" lon="-4.47616">
        <ele>26.57</ele>
        <time>2014-08-22T08:18:03Z</time>
      </trkpt>
      <trkpt lat="48.03479" lon="-4.47615">
        <ele>26.09</ele>
        <time>2014-08-22T08:18:07Z</time>
      </trkpt>
      <trkpt lat="48.03479" lon="-4.47612">
        <ele>26.09</ele>
        <time>2014-08-22T08:18:09Z</time>
      </trkpt>
      <trkpt lat="48.03478" lon="-4.47604">
        <ele>26.09</ele>
        <time>2014-08-22T08:18:23Z</time>
      </trkpt>
      <trkpt lat="48.03475" lon="-4.47599">
        <ele>26.09</ele>
        <time>2014-08-22T08:18:35Z</time>
      </trkpt>
      <trkpt lat="48.03471" lon="-4.47597">
        <ele>25.13</ele>
        <time>2014-08-22T08:18:38Z</time>
      </trkpt>
      <trkpt lat="48.03465" lon="-4.47587">
        <ele>26.09</ele>
        <time>2014-08-22T08:18:44Z</time>
      </trkpt>
      <trkpt lat="48.03457" lon="-4.4758">
        <ele>26.57</ele>
        <time>2014-08-22T08:18:51Z</time>
      </trkpt>
      <trkpt lat="48.03449" lon="-4.47571">
        <ele>27.53</ele>
        <time>2014-08-22T08:18:59Z</time>
      </trkpt>
      <trkpt lat="48.03437" lon="-4.4756">
        <ele>27.53</ele>
        <time>2014-08-22T08:19:11Z</time>
      </trkpt>
      <trkpt lat="48.03434" lon="-4.47557">
        <ele>28.5</ele>
        <time>2014-08-22T08:19:13Z</time>
      </trkpt>
      <trkpt lat="48.03426" lon="-4.47545">
        <ele>30.42</ele>
        <time>2014-08-22T08:19:21Z</time>
      </trkpt>
      <trkpt lat="48.03415" lon="-4.47536">
        <ele>29.46</ele>
        <time>2014-08-22T08:19:32Z</time>
      </trkpt>
      <trkpt lat="48.03407" lon="-4.4753">
        <ele>28.02</ele>
        <time>2014-08-22T08:19:40Z</time>
      </trkpt>
      <trkpt lat="48.03402" lon="-4.47529">
        <ele>27.05</ele>
        <time>2014-08-22T08:19:44Z</time>
      </trkpt>
      <trkpt lat="48.03382" lon="-4.47506">
        <ele>23.21</ele>
        <time>2014-08-22T08:20:04Z</time>
      </trkpt>
      <trkpt lat="48.03379" lon="-4.47502">
        <ele>22.73</ele>
        <time>2014-08-22T08:20:08Z</time>
      </trkpt>
      <trkpt lat="48.03366" lon="-4.47492">
        <ele>24.17</ele>
        <time>2014-08-22T08:20:18Z</time>
      </trkpt>
      <trkpt lat="48.03354" lon="-4.4747">
        <ele>27.53</ele>
        <time>2014-08-22T08:20:33Z</time>
      </trkpt>
      <trkpt lat="48.03347" lon="-4.47446">
        <ele>28.5</ele>
        <time>2014-08-22T08:20:47Z</time>
      </trkpt>
      <trkpt lat="48.03342" lon="-4.47423">
        <ele>31.38</ele>
        <time>2014-08-22T08:21:02Z</time>
      </trkpt>
      <trkpt lat="48.0334" lon="-4.47415">
        <ele>32.34</ele>
        <time>2014-08-22T08:21:07Z</time>
      </trkpt>
      <trkpt lat="48.03338" lon="-4.4741">
        <ele>32.82</ele>
        <time>2014-08-22T08:21:10Z</time>
      </trkpt>
      <trkpt lat="48.03331" lon="-4.47384">
        <ele>33.78</ele>
        <time>2014-08-22T08:21:25Z</time>
      </trkpt>
      <trkpt lat="48.03329" lon="-4.47365">
        <ele>35.23</ele>
        <time>2014-08-22T08:21:39Z</time>
      </trkpt>
      <trkpt lat="48.03323" lon="-4.47345">
        <ele>35.23</ele>
        <time>2014-08-22T08:21:53Z</time>
      </trkpt>
      <trkpt lat="48.03315" lon="-4.4732">
        <ele>34.74</ele>
        <time>2014-08-22T08:22:12Z</time>
      </trkpt>
      <trkpt lat="48.0331" lon="-4.47286">
        <ele>33.78</ele>
        <time>2014-08-22T08:22:29Z</time>
      </trkpt>
      <trkpt lat="48.03308" lon="-4.47282">
        <ele>34.26</ele>
        <time>2014-08-22T08:22:32Z</time>
      </trkpt>
      <trkpt lat="48.03303" lon="-4.47265">
        <ele>37.15</ele>
        <time>2014-08-22T08:22:43Z</time>
      </trkpt>
      <trkpt lat="48.03297" lon="-4.47241">
        <ele>42.44</ele>
        <time>2014-08-22T08:22:58Z</time>
      </trkpt>
      <trkpt lat="48.03299" lon="-4.47227">
        <ele>45.32</ele>
        <time>2014-08-22T08:23:11Z</time>
      </trkpt>
      <trkpt lat="48.03302" lon="-4.47224">
        <ele>47.72</ele>
        <time>2014-08-22T08:23:24Z</time>
      </trkpt>
      <trkpt lat="48.03305" lon="-4.47224">
        <ele>45.32</ele>
        <time>2014-08-22T08:23:40Z</time>
      </trkpt>
      <trkpt lat="48.03306" lon="-4.47224">
        <ele>44.84</ele>
        <time>2014-08-22T08:23:51Z</time>
      </trkpt>
      <trkpt lat="48.03306" lon="-4.47223">
        <ele>43.88</ele>
        <time>2014-08-22T08:24:08Z</time>
      </trkpt>
      <trkpt lat="48.03307" lon="-4.47222">
        <ele>44.84</ele>
        <time>2014-08-22T08:24:20Z</time>
      </trkpt>
      <trkpt lat="48.03314" lon="-4.47219">
        <ele>46.28</ele>
        <time>2014-08-22T08:24:33Z</time>
      </trkpt>
      <trkpt lat="48.03322" lon="-4.47217">
        <ele>43.88</ele>
        <time>2014-08-22T08:24:45Z</time>
      </trkpt>
      <trkpt lat="48.03333" lon="-4.47215">
        <ele>44.36</ele>
        <time>2014-08-22T08:24:55Z</time>
      </trkpt>
      <trkpt lat="48.03343" lon="-4.47212">
        <ele>44.36</ele>
        <time>2014-08-22T08:25:09Z</time>
      </trkpt>
      <trkpt lat="48.03352" lon="-4.47206">
        <ele>45.32</ele>
        <time>2014-08-22T08:25:26Z</time>
      </trkpt>
      <trkpt lat="48.03358" lon="-4.47205">
        <ele>44.84</ele>
        <time>2014-08-22T08:25:31Z</time>
      </trkpt>
      <trkpt lat="48.03375" lon="-4.47201">
        <ele>42.92</ele>
        <time>2014-08-22T08:25:45Z</time>
      </trkpt>
      <trkpt lat="48.03385" lon="-4.47199">
        <ele>40.99</ele>
        <time>2014-08-22T08:25:54Z</time>
      </trkpt>
      <trkpt lat="48.03393" lon="-4.47194">
        <ele>40.51</ele>
        <time>2014-08-22T08:26:00Z</time>
      </trkpt>
      <trkpt lat="48.03407" lon="-4.47187">
        <ele>38.11</ele>
        <time>2014-08-22T08:26:13Z</time>
      </trkpt>
      <trkpt lat="48.0341" lon="-4.47181">
        <ele>36.67</ele>
        <time>2014-08-22T08:26:18Z</time>
      </trkpt>
      <trkpt lat="48.03412" lon="-4.47157">
        <ele>38.11</ele>
        <time>2014-08-22T08:26:30Z</time>
      </trkpt>
      <trkpt lat="48.03413" lon="-4.47146">
        <ele>37.63</ele>
        <time>2014-08-22T08:26:37Z</time>
      </trkpt>
      <trkpt lat="48.03413" lon="-4.47142">
        <ele>37.15</ele>
        <time>2014-08-22T08:26:39Z</time>
      </trkpt>
      <trkpt lat="48.03414" lon="-4.47137">
        <ele>36.67</ele>
        <time>2014-08-22T08:26:42Z</time>
      </trkpt>
      <trkpt lat="48.03414" lon="-4.47119">
        <ele>37.15</ele>
        <time>2014-08-22T08:26:51Z</time>
      </trkpt>
      <trkpt lat="48.03415" lon="-4.47114">
        <ele>37.15</ele>
        <time>2014-08-22T08:26:54Z</time>
      </trkpt>
      <trkpt lat="48.03415" lon="-4.47087">
        <ele>34.74</ele>
        <time>2014-08-22T08:27:07Z</time>
      </trkpt>
      <trkpt lat="48.03415" lon="-4.47074">
        <ele>32.34</ele>
        <time>2014-08-22T08:27:15Z</time>
      </trkpt>
      <trkpt lat="48.03417" lon="-4.47057">
        <ele>30.9</ele>
        <time>2014-08-22T08:27:25Z</time>
      </trkpt>
      <trkpt lat="48.03421" lon="-4.47047">
        <ele>30.9</ele>
        <time>2014-08-22T08:27:32Z</time>
      </trkpt>
      <trkpt lat="48.03425" lon="-4.47038">
        <ele>31.38</ele>
        <time>2014-08-22T08:27:37Z</time>
      </trkpt>
      <trkpt lat="48.03435" lon="-4.47022">
        <ele>32.82</ele>
        <time>2014-08-22T08:27:50Z</time>
      </trkpt>
      <trkpt lat="48.03445" lon="-4.47">
        <ele>35.23</ele>
        <time>2014-08-22T08:28:05Z</time>
      </trkpt>
      <trkpt lat="48.03451" lon="-4.46987">
        <ele>35.71</ele>
        <time>2014-08-22T08:28:15Z</time>
      </trkpt>
      <trkpt lat="48.03453" lon="-4.4698">
        <ele>36.67</ele>
        <time>2014-08-22T08:28:19Z</time>
      </trkpt>
      <trkpt lat="48.03457" lon="-4.46949">
        <ele>38.59</ele>
        <time>2014-08-22T08:28:36Z</time>
      </trkpt>
      <trkpt lat="48.03456" lon="-4.46937">
        <ele>39.07</ele>
        <time>2014-08-22T08:28:42Z</time>
      </trkpt>
      <trkpt lat="48.03449" lon="-4.46915">
        <ele>39.07</ele>
        <time>2014-08-22T08:28:56Z</time>
      </trkpt>
      <trkpt lat="48.03446" lon="-4.46903">
        <ele>39.55</ele>
        <time>2014-08-22T08:29:04Z</time>
      </trkpt>
      <trkpt lat="48.03443" lon="-4.46878">
        <ele>39.07</ele>
        <time>2014-08-22T08:29:19Z</time>
      </trkpt>
      <trkpt lat="48.03443" lon="-4.46876">
        <ele>39.07</ele>
        <time>2014-08-22T08:29:20Z</time>
      </trkpt>
      <trkpt lat="48.03441" lon="-4.46851">
        <ele>37.63</ele>
        <time>2014-08-22T08:29:35Z</time>
      </trkpt>
      <trkpt lat="48.0344" lon="-4.46822">
        <ele>36.19</ele>
        <time>2014-08-22T08:29:50Z</time>
      </trkpt>
      <trkpt lat="48.03438" lon="-4.46796">
        <ele>34.26</ele>
        <time>2014-08-22T08:30:06Z</time>
      </trkpt>
      <trkpt lat="48.03434" lon="-4.46774">
        <ele>33.3</ele>
        <time>2014-08-22T08:30:20Z</time>
      </trkpt>
      <trkpt lat="48.03431" lon="-4.4675">
        <ele>29.94</ele>
        <time>2014-08-22T08:30:36Z</time>
      </trkpt>
      <trkpt lat="48.03428" lon="-4.46735">
        <ele>29.94</ele>
        <time>2014-08-22T08:30:42Z</time>
      </trkpt>
      <trkpt lat="48.03426" lon="-4.46707">
        <ele>29.94</ele>
        <time>2014-08-22T08:30:56Z</time>
      </trkpt>
      <trkpt lat="48.03425" lon="-4.4668">
        <ele>25.61</ele>
        <time>2014-08-22T08:31:11Z</time>
      </trkpt>
      <trkpt lat="48.03425" lon="-4.46652">
        <ele>20.32</ele>
        <time>2014-08-22T08:31:27Z</time>
      </trkpt>
      <trkpt lat="48.03428" lon="-4.46644">
        <ele>20.32</ele>
        <time>2014-08-22T08:31:33Z</time>
      </trkpt>
      <trkpt lat="48.03436" lon="-4.4662">
        <ele>24.17</ele>
        <time>2014-08-22T08:31:48Z</time>
      </trkpt>
      <trkpt lat="48.03442" lon="-4.46594">
        <ele>27.53</ele>
        <time>2014-08-22T08:32:03Z</time>
      </trkpt>
      <trkpt lat="48.03451" lon="-4.46567">
        <ele>35.23</ele>
        <time>2014-08-22T08:32:18Z</time>
      </trkpt>
      <trkpt lat="48.03452" lon="-4.46556">
        <ele>36.67</ele>
        <time>2014-08-22T08:32:24Z</time>
      </trkpt>
      <trkpt lat="48.03449" lon="-4.46531">
        <ele>37.15</ele>
        <time>2014-08-22T08:32:40Z</time>
      </trkpt>
      <trkpt lat="48.03447" lon="-4.46505">
        <ele>38.59</ele>
        <time>2014-08-22T08:32:56Z</time>
      </trkpt>
      <trkpt lat="48.03444" lon="-4.46484">
        <ele>37.15</ele>
        <time>2014-08-22T08:33:08Z</time>
      </trkpt>
      <trkpt lat="48.03442" lon="-4.46462">
        <ele>36.19</ele>
        <time>2014-08-22T08:33:23Z</time>
      </trkpt>
      <trkpt lat="48.0344" lon="-4.46453">
        <ele>36.67</ele>
        <time>2014-08-22T08:33:29Z</time>
      </trkpt>
      <trkpt lat="48.03438" lon="-4.4645">
        <ele>36.67</ele>
        <time>2014-08-22T08:33:31Z</time>
      </trkpt>
      <trkpt lat="48.03428" lon="-4.46422">
        <ele>38.59</ele>
        <time>2014-08-22T08:33:47Z</time>
      </trkpt>
      <trkpt lat="48.0342" lon="-4.46394">
        <ele>40.99</ele>
        <time>2014-08-22T08:34:02Z</time>
      </trkpt>
      <trkpt lat="48.03417" lon="-4.46384">
        <ele>40.99</ele>
        <time>2014-08-22T08:34:08Z</time>
      </trkpt>
      <trkpt lat="48.03413" lon="-4.46371">
        <ele>40.99</ele>
        <time>2014-08-22T08:34:15Z</time>
      </trkpt>
      <trkpt lat="48.03407" lon="-4.46343">
        <ele>42.92</ele>
        <time>2014-08-22T08:34:31Z</time>
      </trkpt>
      <trkpt lat="48.03405" lon="-4.46318">
        <ele>42.44</ele>
        <time>2014-08-22T08:34:45Z</time>
      </trkpt>
      <trkpt lat="48.03404" lon="-4.46296">
        <ele>44.36</ele>
        <time>2014-08-22T08:34:57Z</time>
      </trkpt>
      <trkpt lat="48.03404" lon="-4.46286">
        <ele>44.84</ele>
        <time>2014-08-22T08:35:02Z</time>
      </trkpt>
      <trkpt lat="48.03404" lon="-4.46281">
        <ele>44.84</ele>
        <time>2014-08-22T08:35:05Z</time>
      </trkpt>
      <trkpt lat="48.03403" lon="-4.46274">
        <ele>45.32</ele>
        <time>2014-08-22T08:35:09Z</time>
      </trkpt>
      <trkpt lat="48.03398" lon="-4.4625">
        <ele>47.72</ele>
        <time>2014-08-22T08:35:22Z</time>
      </trkpt>
      <trkpt lat="48.03395" lon="-4.46234">
        <ele>48.2</ele>
        <time>2014-08-22T08:35:31Z</time>
      </trkpt>
      <trkpt lat="48.0339" lon="-4.46209">
        <ele>46.28</ele>
        <time>2014-08-22T08:35:45Z</time>
      </trkpt>
      <trkpt lat="48.03384" lon="-4.46182">
        <ele>45.32</ele>
        <time>2014-08-22T08:36:01Z</time>
      </trkpt>
      <trkpt lat="48.03383" lon="-4.46178">
        <ele>44.84</ele>
        <time>2014-08-22T08:36:03Z</time>
      </trkpt>
      <trkpt lat="48.03378" lon="-4.46146">
        <ele>43.4</ele>
        <time>2014-08-22T08:36:21Z</time>
      </trkpt>
      <trkpt lat="48.03373" lon="-4.46119">
        <ele>46.28</ele>
        <time>2014-08-22T08:36:36Z</time>
      </trkpt>
      <trkpt lat="48.0337" lon="-4.46105">
        <ele>45.8</ele>
        <time>2014-08-22T08:36:43Z</time>
      </trkpt>
      <trkpt lat="48.03365" lon="-4.46077">
        <ele>46.28</ele>
        <time>2014-08-22T08:36:58Z</time>
      </trkpt>
      <trkpt lat="48.03361" lon="-4.46058">
        <ele>48.68</ele>
        <time>2014-08-22T08:37:10Z</time>
      </trkpt>
      <trkpt lat="48.03354" lon="-4.46029">
        <ele>49.65</ele>
        <time>2014-08-22T08:37:26Z</time>
      </trkpt>
      <trkpt lat="48.03349" lon="-4.46008">
        <ele>51.57</ele>
        <time>2014-08-22T08:37:40Z</time>
      </trkpt>
      <trkpt lat="48.03346" lon="-4.46002">
        <ele>51.57</ele>
        <time>2014-08-22T08:37:44Z</time>
      </trkpt>
      <trkpt lat="48.03344" lon="-4.45995">
        <ele>51.57</ele>
        <time>2014-08-22T08:37:48Z</time>
      </trkpt>
      <trkpt lat="48.03337" lon="-4.45977">
        <ele>51.09</ele>
        <time>2014-08-22T08:38:00Z</time>
      </trkpt>
      <trkpt lat="48.03337" lon="-4.45976">
        <ele>51.09</ele>
        <time>2014-08-22T08:38:01Z</time>
      </trkpt>
      <trkpt lat="48.03336" lon="-4.45974">
        <ele>51.09</ele>
        <time>2014-08-22T08:38:03Z</time>
      </trkpt>
      <trkpt lat="48.03332" lon="-4.45963">
        <ele>52.05</ele>
        <time>2014-08-22T08:38:15Z</time>
      </trkpt>
      <trkpt lat="48.03329" lon="-4.45959">
        <ele>51.57</ele>
        <time>2014-08-22T08:38:32Z</time>
      </trkpt>
      <trkpt lat="48.03329" lon="-4.45958">
        <ele>52.05</ele>
        <time>2014-08-22T08:38:50Z</time>
      </trkpt>
      <trkpt lat="48.0333" lon="-4.45957">
        <ele>52.05</ele>
        <time>2014-08-22T08:39:16Z</time>
      </trkpt>
      <trkpt lat="48.0333" lon="-4.45956">
        <ele>51.57</ele>
        <time>2014-08-22T08:39:33Z</time>
      </trkpt>
      <trkpt lat="48.03326" lon="-4.45941">
        <ele>53.01</ele>
        <time>2014-08-22T08:39:45Z</time>
      </trkpt>
      <trkpt lat="48.03324" lon="-4.45935">
        <ele>53.49</ele>
        <time>2014-08-22T08:39:50Z</time>
      </trkpt>
      <trkpt lat="48.03321" lon="-4.45926">
        <ele>54.93</ele>
        <time>2014-08-22T08:39:58Z</time>
      </trkpt>
      <trkpt lat="48.03315" lon="-4.45906">
        <ele>53.49</ele>
        <time>2014-08-22T08:40:10Z</time>
      </trkpt>
      <trkpt lat="48.03314" lon="-4.459">
        <ele>53.01</ele>
        <time>2014-08-22T08:40:14Z</time>
      </trkpt>
      <trkpt lat="48.03307" lon="-4.45877">
        <ele>54.45</ele>
        <time>2014-08-22T08:40:27Z</time>
      </trkpt>
      <trkpt lat="48.03303" lon="-4.45866">
        <ele>53.97</ele>
        <time>2014-08-22T08:40:33Z</time>
      </trkpt>
      <trkpt lat="48.03298" lon="-4.45846">
        <ele>54.93</ele>
        <time>2014-08-22T08:40:44Z</time>
      </trkpt>
      <trkpt lat="48.03295" lon="-4.45834">
        <ele>53.97</ele>
        <time>2014-08-22T08:40:51Z</time>
      </trkpt>
      <trkpt lat="48.03293" lon="-4.45827">
        <ele>53.01</ele>
        <time>2014-08-22T08:40:55Z</time>
      </trkpt>
      <trkpt lat="48.03291" lon="-4.45824">
        <ele>52.53</ele>
        <time>2014-08-22T08:40:57Z</time>
      </trkpt>
      <trkpt lat="48.03287" lon="-4.45811">
        <ele>51.57</ele>
        <time>2014-08-22T08:41:04Z</time>
      </trkpt>
      <trkpt lat="48.03284" lon="-4.45807">
        <ele>51.09</ele>
        <time>2014-08-22T08:41:07Z</time>
      </trkpt>
      <trkpt lat="48.03285" lon="-4.45802">
        <ele>50.61</ele>
        <time>2014-08-22T08:41:11Z</time>
      </trkpt>
      <trkpt lat="48.03284" lon="-4.45795">
        <ele>50.13</ele>
        <time>2014-08-22T08:41:15Z</time>
      </trkpt>
      <trkpt lat="48.03283" lon="-4.45771">
        <ele>51.57</ele>
        <time>2014-08-22T08:41:28Z</time>
      </trkpt>
      <trkpt lat="48.03283" lon="-4.45744">
        <ele>53.49</ele>
        <time>2014-08-22T08:41:43Z</time>
      </trkpt>
      <trkpt lat="48.03284" lon="-4.45737">
        <ele>53.49</ele>
        <time>2014-08-22T08:41:47Z</time>
      </trkpt>
      <trkpt lat="48.03284" lon="-4.45725">
        <ele>53.01</ele>
        <time>2014-08-22T08:41:53Z</time>
      </trkpt>
      <trkpt lat="48.03284" lon="-4.45698">
        <ele>52.05</ele>
        <time>2014-08-22T08:42:09Z</time>
      </trkpt>
      <trkpt lat="48.03285" lon="-4.45673">
        <ele>52.05</ele>
        <time>2014-08-22T08:42:22Z</time>
      </trkpt>
      <trkpt lat="48.03285" lon="-4.45644">
        <ele>51.09</ele>
        <time>2014-08-22T08:42:38Z</time>
      </trkpt>
      <trkpt lat="48.03287" lon="-4.45611">
        <ele>53.01</ele>
        <time>2014-08-22T08:42:54Z</time>
      </trkpt>
      <trkpt lat="48.03287" lon="-4.45576">
        <ele>51.57</ele>
        <time>2014-08-22T08:43:14Z</time>
      </trkpt>
      <trkpt lat="48.03289" lon="-4.45546">
        <ele>52.53</ele>
        <time>2014-08-22T08:43:29Z</time>
      </trkpt>
      <trkpt lat="48.03291" lon="-4.45516">
        <ele>52.53</ele>
        <time>2014-08-22T08:43:45Z</time>
      </trkpt>
      <trkpt lat="48.03288" lon="-4.45501">
        <ele>54.45</ele>
        <time>2014-08-22T08:43:54Z</time>
      </trkpt>
      <trkpt lat="48.03274" lon="-4.45493">
        <ele>53.01</ele>
        <time>2014-08-22T08:44:06Z</time>
      </trkpt>
      <trkpt lat="48.03256" lon="-4.45486">
        <ele>53.01</ele>
        <time>2014-08-22T08:44:20Z</time>
      </trkpt>
      <trkpt lat="48.03249" lon="-4.45483">
        <ele>53.49</ele>
        <time>2014-08-22T08:44:26Z</time>
      </trkpt>
      <trkpt lat="48.0323" lon="-4.45477">
        <ele>54.45</ele>
        <time>2014-08-22T08:44:41Z</time>
      </trkpt>
      <trkpt lat="48.03223" lon="-4.45477">
        <ele>54.45</ele>
        <time>2014-08-22T08:44:46Z</time>
      </trkpt>
      <trkpt lat="48.03218" lon="-4.45473">
        <ele>56.37</ele>
        <time>2014-08-22T08:44:51Z</time>
      </trkpt>
      <trkpt lat="48.0321" lon="-4.45453">
        <ele>57.82</ele>
        <time>2014-08-22T08:45:05Z</time>
      </trkpt>
      <trkpt lat="48.03201" lon="-4.45432">
        <ele>56.86</ele>
        <time>2014-08-22T08:45:20Z</time>
      </trkpt>
      <trkpt lat="48.03192" lon="-4.45412">
        <ele>58.3</ele>
        <time>2014-08-22T08:45:33Z</time>
      </trkpt>
      <trkpt lat="48.03181" lon="-4.45385">
        <ele>56.86</ele>
        <time>2014-08-22T08:45:51Z</time>
      </trkpt>
      <trkpt lat="48.03172" lon="-4.45355">
        <ele>56.37</ele>
        <time>2014-08-22T08:46:09Z</time>
      </trkpt>
      <trkpt lat="48.03168" lon="-4.45329">
        <ele>53.01</ele>
        <time>2014-08-22T08:46:26Z</time>
      </trkpt>
      <trkpt lat="48.03163" lon="-4.453">
        <ele>56.37</ele>
        <time>2014-08-22T08:46:43Z</time>
      </trkpt>
      <trkpt lat="48.03157" lon="-4.45266">
        <ele>58.78</ele>
        <time>2014-08-22T08:47:01Z</time>
      </trkpt>
      <trkpt lat="48.03155" lon="-4.45241">
        <ele>59.74</ele>
        <time>2014-08-22T08:47:16Z</time>
      </trkpt>
      <trkpt lat="48.03155" lon="-4.45239">
        <ele>59.74</ele>
        <time>2014-08-22T08:47:17Z</time>
      </trkpt>
      <trkpt lat="48.03156" lon="-4.45225">
        <ele>59.74</ele>
        <time>2014-08-22T08:47:25Z</time>
      </trkpt>
      <trkpt lat="48.03153" lon="-4.45205">
        <ele>60.7</ele>
        <time>2014-08-22T08:47:38Z</time>
      </trkpt>
      <trkpt lat="48.03157" lon="-4.45191">
        <ele>58.3</ele>
        <time>2014-08-22T08:47:51Z</time>
      </trkpt>
      <trkpt lat="48.03157" lon="-4.45173">
        <ele>58.3</ele>
        <time>2014-08-22T08:48:03Z</time>
      </trkpt>
      <trkpt lat="48.03156" lon="-4.45146">
        <ele>57.34</ele>
        <time>2014-08-22T08:48:17Z</time>
      </trkpt>
      <trkpt lat="48.03155" lon="-4.4514">
        <ele>55.89</ele>
        <time>2014-08-22T08:48:32Z</time>
      </trkpt>
      <trkpt lat="48.03155" lon="-4.45137">
        <ele>55.89</ele>
        <time>2014-08-22T08:48:47Z</time>
      </trkpt>
      <trkpt lat="48.03157" lon="-4.45122">
        <ele>54.45</ele>
        <time>2014-08-22T08:49:00Z</time>
      </trkpt>
      <trkpt lat="48.03162" lon="-4.45102">
        <ele>53.01</ele>
        <time>2014-08-22T08:49:14Z</time>
      </trkpt>
      <trkpt lat="48.03163" lon="-4.45087">
        <ele>52.53</ele>
        <time>2014-08-22T08:49:22Z</time>
      </trkpt>
      <trkpt lat="48.03164" lon="-4.45073">
        <ele>51.09</ele>
        <time>2014-08-22T08:49:31Z</time>
      </trkpt>
      <trkpt lat="48.03161" lon="-4.45048">
        <ele>53.49</ele>
        <time>2014-08-22T08:49:43Z</time>
      </trkpt>
      <trkpt lat="48.03161" lon="-4.45042">
        <ele>54.93</ele>
        <time>2014-08-22T08:49:48Z</time>
      </trkpt>
      <trkpt lat="48.0316" lon="-4.45039">
        <ele>55.89</ele>
        <time>2014-08-22T08:49:50Z</time>
      </trkpt>
      <trkpt lat="48.03162" lon="-4.45019">
        <ele>55.41</ele>
        <time>2014-08-22T08:50:00Z</time>
      </trkpt>
      <trkpt lat="48.03162" lon="-4.44994">
        <ele>56.37</ele>
        <time>2014-08-22T08:50:13Z</time>
      </trkpt>
      <trkpt lat="48.03163" lon="-4.44977">
        <ele>55.89</ele>
        <time>2014-08-22T08:50:23Z</time>
      </trkpt>
      <trkpt lat="48.03162" lon="-4.44967">
        <ele>54.93</ele>
        <time>2014-08-22T08:50:29Z</time>
      </trkpt>
      <trkpt lat="48.03162" lon="-4.44964">
        <ele>53.97</ele>
        <time>2014-08-22T08:50:31Z</time>
      </trkpt>
      <trkpt lat="48.03163" lon="-4.44957">
        <ele>53.97</ele>
        <time>2014-08-22T08:50:35Z</time>
      </trkpt>
      <trkpt lat="48.03161" lon="-4.44944">
        <ele>54.45</ele>
        <time>2014-08-22T08:50:42Z</time>
      </trkpt>
      <trkpt lat="48.03161" lon="-4.44929">
        <ele>53.97</ele>
        <time>2014-08-22T08:50:49Z</time>
      </trkpt>
      <trkpt lat="48.03161" lon="-4.44923">
        <ele>52.53</ele>
        <time>2014-08-22T08:50:52Z</time>
      </trkpt>
      <trkpt lat="48.03161" lon="-4.44906">
        <ele>49.65</ele>
        <time>2014-08-22T08:51:04Z</time>
      </trkpt>
      <trkpt lat="48.03161" lon="-4.44892">
        <ele>49.16</ele>
        <time>2014-08-22T08:51:11Z</time>
      </trkpt>
      <trkpt lat="48.03158" lon="-4.4487">
        <ele>51.09</ele>
        <time>2014-08-22T08:51:23Z</time>
      </trkpt>
      <trkpt lat="48.03158" lon="-4.44865">
        <ele>50.61</ele>
        <time>2014-08-22T08:51:26Z</time>
      </trkpt>
      <trkpt lat="48.03159" lon="-4.44862">
        <ele>50.61</ele>
        <time>2014-08-22T08:51:28Z</time>
      </trkpt>
      <trkpt lat="48.03162" lon="-4.44846">
        <ele>49.65</ele>
        <time>2014-08-22T08:51:37Z</time>
      </trkpt>
      <trkpt lat="48.03162" lon="-4.44844">
        <ele>49.65</ele>
        <time>2014-08-22T08:51:39Z</time>
      </trkpt>
      <trkpt lat="48.03161" lon="-4.44827">
        <ele>50.13</ele>
        <time>2014-08-22T08:51:48Z</time>
      </trkpt>
      <trkpt lat="48.03162" lon="-4.44796">
        <ele>52.53</ele>
        <time>2014-08-22T08:52:05Z</time>
      </trkpt>
      <trkpt lat="48.03164" lon="-4.44788">
        <ele>53.01</ele>
        <time>2014-08-22T08:52:10Z</time>
      </trkpt>
      <trkpt lat="48.03165" lon="-4.44784">
        <ele>53.01</ele>
        <time>2014-08-22T08:52:12Z</time>
      </trkpt>
      <trkpt lat="48.03165" lon="-4.44776">
        <ele>53.49</ele>
        <time>2014-08-22T08:52:17Z</time>
      </trkpt>
      <trkpt lat="48.03166" lon="-4.44773">
        <ele>53.49</ele>
        <time>2014-08-22T08:52:19Z</time>
      </trkpt>
      <trkpt lat="48.03166" lon="-4.44758">
        <ele>54.93</ele>
        <time>2014-08-22T08:52:29Z</time>
      </trkpt>
      <trkpt lat="48.03165" lon="-4.44731">
        <ele>53.97</ele>
        <time>2014-08-22T08:52:44Z</time>
      </trkpt>
      <trkpt lat="48.03165" lon="-4.44711">
        <ele>53.49</ele>
        <time>2014-08-22T08:52:56Z</time>
      </trkpt>
      <trkpt lat="48.03165" lon="-4.44682">
        <ele>53.01</ele>
        <time>2014-08-22T08:53:12Z</time>
      </trkpt>
      <trkpt lat="48.03166" lon="-4.4467">
        <ele>53.01</ele>
        <time>2014-08-22T08:53:18Z</time>
      </trkpt>
      <trkpt lat="48.03169" lon="-4.44638">
        <ele>53.01</ele>
        <time>2014-08-22T08:53:35Z</time>
      </trkpt>
      <trkpt lat="48.03177" lon="-4.44611">
        <ele>52.05</ele>
        <time>2014-08-22T08:53:51Z</time>
      </trkpt>
      <trkpt lat="48.03187" lon="-4.44603">
        <ele>50.61</ele>
        <time>2014-08-22T08:54:02Z</time>
      </trkpt>
      <trkpt lat="48.03206" lon="-4.44599">
        <ele>50.61</ele>
        <time>2014-08-22T08:54:19Z</time>
      </trkpt>
      <trkpt lat="48.03213" lon="-4.44599">
        <ele>51.57</ele>
        <time>2014-08-22T08:54:26Z</time>
      </trkpt>
      <trkpt lat="48.03235" lon="-4.44592">
        <ele>50.61</ele>
        <time>2014-08-22T08:54:43Z</time>
      </trkpt>
      <trkpt lat="48.03246" lon="-4.4459">
        <ele>49.65</ele>
        <time>2014-08-22T08:54:54Z</time>
      </trkpt>
      <trkpt lat="48.03252" lon="-4.44588">
        <ele>50.13</ele>
        <time>2014-08-22T08:54:59Z</time>
      </trkpt>
      <trkpt lat="48.03265" lon="-4.44589">
        <ele>50.13</ele>
        <time>2014-08-22T08:55:14Z</time>
      </trkpt>
      <trkpt lat="48.03272" lon="-4.44571">
        <ele>49.16</ele>
        <time>2014-08-22T08:55:31Z</time>
      </trkpt>
      <trkpt lat="48.03273" lon="-4.44569">
        <ele>49.16</ele>
        <time>2014-08-22T08:55:36Z</time>
      </trkpt>
      <trkpt lat="48.03283" lon="-4.44574">
        <ele>48.2</ele>
        <time>2014-08-22T08:55:48Z</time>
      </trkpt>
      <trkpt lat="48.03296" lon="-4.44587">
        <ele>46.76</ele>
        <time>2014-08-22T08:56:01Z</time>
      </trkpt>
      <trkpt lat="48.03304" lon="-4.44592">
        <ele>46.28</ele>
        <time>2014-08-22T08:56:13Z</time>
      </trkpt>
      <trkpt lat="48.03309" lon="-4.44588">
        <ele>45.32</ele>
        <time>2014-08-22T08:56:24Z</time>
      </trkpt>
      <trkpt lat="48.03317" lon="-4.4457">
        <ele>45.8</ele>
        <time>2014-08-22T08:56:37Z</time>
      </trkpt>
      <trkpt lat="48.03318" lon="-4.44565">
        <ele>46.28</ele>
        <time>2014-08-22T08:56:50Z</time>
      </trkpt>
      <trkpt lat="48.03314" lon="-4.44563">
        <ele>46.76</ele>
        <time>2014-08-22T08:57:01Z</time>
      </trkpt>
      <trkpt lat="48.03315" lon="-4.44561">
        <ele>47.24</ele>
        <time>2014-08-22T08:57:12Z</time>
      </trkpt>
      <trkpt lat="48.03316" lon="-4.44555">
        <ele>48.2</ele>
        <time>2014-08-22T08:57:24Z</time>
      </trkpt>
      <trkpt lat="48.03317" lon="-4.4454">
        <ele>45.32</ele>
        <time>2014-08-22T08:57:36Z</time>
      </trkpt>
      <trkpt lat="48.03306" lon="-4.44526">
        <ele>42.44</ele>
        <time>2014-08-22T08:57:53Z</time>
      </trkpt>
      <trkpt lat="48.03304" lon="-4.44518">
        <ele>41.95</ele>
        <time>2014-08-22T08:58:10Z</time>
      </trkpt>
      <trkpt lat="48.03301" lon="-4.44513">
        <ele>42.92</ele>
        <time>2014-08-22T08:58:31Z</time>
      </trkpt>
      <trkpt lat="48.03304" lon="-4.44515">
        <ele>43.4</ele>
        <time>2014-08-22T08:58:40Z</time>
      </trkpt>
      <trkpt lat="48.03304" lon="-4.44505">
        <ele>44.84</ele>
        <time>2014-08-22T08:58:52Z</time>
      </trkpt>
      <trkpt lat="48.03307" lon="-4.44489">
        <ele>50.61</ele>
        <time>2014-08-22T08:59:07Z</time>
      </trkpt>
      <trkpt lat="48.03308" lon="-4.4448">
        <ele>51.57</ele>
        <time>2014-08-22T08:59:18Z</time>
      </trkpt>
      <trkpt lat="48.03309" lon="-4.44471">
        <ele>48.2</ele>
        <time>2014-08-22T08:59:34Z</time>
      </trkpt>
      <trkpt lat="48.03312" lon="-4.44444">
        <ele>49.16</ele>
        <time>2014-08-22T08:59:52Z</time>
      </trkpt>
      <trkpt lat="48.0331" lon="-4.44417">
        <ele>53.97</ele>
        <time>2014-08-22T09:00:10Z</time>
      </trkpt>
      <trkpt lat="48.03309" lon="-4.44393">
        <ele>55.89</ele>
        <time>2014-08-22T09:00:27Z</time>
      </trkpt>
      <trkpt lat="48.03306" lon="-4.44369">
        <ele>58.3</ele>
        <time>2014-08-22T09:00:44Z</time>
      </trkpt>
      <trkpt lat="48.03304" lon="-4.44347">
        <ele>58.3</ele>
        <time>2014-08-22T09:00:58Z</time>
      </trkpt>
      <trkpt lat="48.03305" lon="-4.44337">
        <ele>58.78</ele>
        <time>2014-08-22T09:01:09Z</time>
      </trkpt>
      <trkpt lat="48.03315" lon="-4.44308">
        <ele>58.3</ele>
        <time>2014-08-22T09:01:29Z</time>
      </trkpt>
      <trkpt lat="48.03325" lon="-4.44285">
        <ele>58.3</ele>
        <time>2014-08-22T09:01:48Z</time>
      </trkpt>
      <trkpt lat="48.03327" lon="-4.44264">
        <ele>57.34</ele>
        <time>2014-08-22T09:02:04Z</time>
      </trkpt>
      <trkpt lat="48.03327" lon="-4.44263">
        <ele>57.82</ele>
        <time>2014-08-22T09:02:20Z</time>
      </trkpt>
      <trkpt lat="48.03327" lon="-4.44262">
        <ele>58.3</ele>
        <time>2014-08-22T09:02:40Z</time>
      </trkpt>
      <trkpt lat="48.03325" lon="-4.44267">
        <ele>58.78</ele>
        <time>2014-08-22T09:02:52Z</time>
      </trkpt>
      <trkpt lat="48.03323" lon="-4.44269">
        <ele>58.78</ele>
        <time>2014-08-22T09:02:54Z</time>
      </trkpt>
      <trkpt lat="48.0332" lon="-4.44269">
        <ele>58.3</ele>
        <time>2014-08-22T09:03:11Z</time>
      </trkpt>
      <trkpt lat="48.03322" lon="-4.44269">
        <ele>59.74</ele>
        <time>2014-08-22T09:03:28Z</time>
      </trkpt>
      <trkpt lat="48.03327" lon="-4.44262">
        <ele>59.26</ele>
        <time>2014-08-22T09:03:39Z</time>
      </trkpt>
      <trkpt lat="48.03328" lon="-4.4426">
        <ele>61.18</ele>
        <time>2014-08-22T09:04:00Z</time>
      </trkpt>
      <trkpt lat="48.03327" lon="-4.44259">
        <ele>60.7</ele>
        <time>2014-08-22T09:04:18Z</time>
      </trkpt>
      <trkpt lat="48.03327" lon="-4.44259">
        <ele>61.18</ele>
        <time>2014-08-22T09:04:36Z</time>
      </trkpt>
      <trkpt lat="48.03327" lon="-4.44258">
        <ele>61.18</ele>
        <time>2014-08-22T09:04:49Z</time>
      </trkpt>
      <trkpt lat="48.03326" lon="-4.44258">
        <ele>61.18</ele>
        <time>2014-08-22T09:04:55Z</time>
      </trkpt>
      <trkpt lat="48.03312" lon="-4.44242">
        <ele>61.18</ele>
        <time>2014-08-22T09:05:10Z</time>
      </trkpt>
      <trkpt lat="48.03296" lon="-4.44225">
        <ele>59.26</ele>
        <time>2014-08-22T09:05:25Z</time>
      </trkpt>
      <trkpt lat="48.03294" lon="-4.44224">
        <ele>59.26</ele>
        <time>2014-08-22T09:05:26Z</time>
      </trkpt>
      <trkpt lat="48.03285" lon="-4.44217">
        <ele>56.86</ele>
        <time>2014-08-22T09:05:35Z</time>
      </trkpt>
      <trkpt lat="48.03276" lon="-4.4421">
        <ele>54.45</ele>
        <time>2014-08-22T09:05:43Z</time>
      </trkpt>
      <trkpt lat="48.03266" lon="-4.44201">
        <ele>53.49</ele>
        <time>2014-08-22T09:05:53Z</time>
      </trkpt>
      <trkpt lat="48.03258" lon="-4.44195">
        <ele>53.01</ele>
        <time>2014-08-22T09:06:01Z</time>
      </trkpt>
      <trkpt lat="48.03247" lon="-4.44184">
        <ele>53.49</ele>
        <time>2014-08-22T09:06:11Z</time>
      </trkpt>
      <trkpt lat="48.0323" lon="-4.44173">
        <ele>53.97</ele>
        <time>2014-08-22T09:06:25Z</time>
      </trkpt>
      <trkpt lat="48.03219" lon="-4.44165">
        <ele>53.97</ele>
        <time>2014-08-22T09:06:35Z</time>
      </trkpt>
      <trkpt lat="48.0321" lon="-4.44159">
        <ele>53.49</ele>
        <time>2014-08-22T09:06:42Z</time>
      </trkpt>
      <trkpt lat="48.03205" lon="-4.44156">
        <ele>53.49</ele>
        <time>2014-08-22T09:06:46Z</time>
      </trkpt>
      <trkpt lat="48.032" lon="-4.44153">
        <ele>53.01</ele>
        <time>2014-08-22T09:06:50Z</time>
      </trkpt>
      <trkpt lat="48.03195" lon="-4.44149">
        <ele>53.01</ele>
        <time>2014-08-22T09:06:55Z</time>
      </trkpt>
      <trkpt lat="48.03178" lon="-4.44138">
        <ele>51.09</ele>
        <time>2014-08-22T09:07:12Z</time>
      </trkpt>
      <trkpt lat="48.03161" lon="-4.44136">
        <ele>48.2</ele>
        <time>2014-08-22T09:07:28Z</time>
      </trkpt>
      <trkpt lat="48.03135" lon="-4.44125">
        <ele>50.13</ele>
        <time>2014-08-22T09:07:46Z</time>
      </trkpt>
      <trkpt lat="48.03115" lon="-4.44116">
        <ele>55.41</ele>
        <time>2014-08-22T09:08:03Z</time>
      </trkpt>
      <trkpt lat="48.03108" lon="-4.44115">
        <ele>57.34</ele>
        <time>2014-08-22T09:08:08Z</time>
      </trkpt>
      <trkpt lat="48.03093" lon="-4.44109">
        <ele>59.74</ele>
        <time>2014-08-22T09:08:21Z</time>
      </trkpt>
      <trkpt lat="48.03081" lon="-4.44098">
        <ele>61.66</ele>
        <time>2014-08-22T09:08:31Z</time>
      </trkpt>
      <trkpt lat="48.03079" lon="-4.44096">
        <ele>61.66</ele>
        <time>2014-08-22T09:08:33Z</time>
      </trkpt>
      <trkpt lat="48.03078" lon="-4.44093">
        <ele>62.14</ele>
        <time>2014-08-22T09:08:35Z</time>
      </trkpt>
      <trkpt lat="48.03074" lon="-4.44087">
        <ele>63.1</ele>
        <time>2014-08-22T09:08:39Z</time>
      </trkpt>
      <trkpt lat="48.03069" lon="-4.44075">
        <ele>62.62</ele>
        <time>2014-08-22T09:08:47Z</time>
      </trkpt>
      <trkpt lat="48.03056" lon="-4.44055">
        <ele>64.07</ele>
        <time>2014-08-22T09:09:03Z</time>
      </trkpt>
      <trkpt lat="48.03047" lon="-4.44037">
        <ele>63.58</ele>
        <time>2014-08-22T09:09:17Z</time>
      </trkpt>
      <trkpt lat="48.03035" lon="-4.44014">
        <ele>65.03</ele>
        <time>2014-08-22T09:09:33Z</time>
      </trkpt>
      <trkpt lat="48.03027" lon="-4.43999">
        <ele>66.95</ele>
        <time>2014-08-22T09:09:43Z</time>
      </trkpt>
      <trkpt lat="48.03017" lon="-4.4398">
        <ele>70.79</ele>
        <time>2014-08-22T09:09:59Z</time>
      </trkpt>
      <trkpt lat="48.03017" lon="-4.43979">
        <ele>71.27</ele>
        <time>2014-08-22T09:10:00Z</time>
      </trkpt>
      <trkpt lat="48.03006" lon="-4.43948">
        <ele>73.2</ele>
        <time>2014-08-22T09:10:18Z</time>
      </trkpt>
      <trkpt lat="48.03" lon="-4.43928">
        <ele>74.16</ele>
        <time>2014-08-22T09:10:31Z</time>
      </trkpt>
      <trkpt lat="48.02996" lon="-4.4391">
        <ele>77.52</ele>
        <time>2014-08-22T09:10:42Z</time>
      </trkpt>
      <trkpt lat="48.02994" lon="-4.43903">
        <ele>77.04</ele>
        <time>2014-08-22T09:10:46Z</time>
      </trkpt>
      <trkpt lat="48.02988" lon="-4.4388">
        <ele>76.56</ele>
        <time>2014-08-22T09:11:01Z</time>
      </trkpt>
      <trkpt lat="48.02985" lon="-4.43856">
        <ele>75.6</ele>
        <time>2014-08-22T09:11:15Z</time>
      </trkpt>
      <trkpt lat="48.02978" lon="-4.43829">
        <ele>72.24</ele>
        <time>2014-08-22T09:11:31Z</time>
      </trkpt>
      <trkpt lat="48.02976" lon="-4.43806">
        <ele>72.72</ele>
        <time>2014-08-22T09:11:43Z</time>
      </trkpt>
      <trkpt lat="48.02969" lon="-4.43783">
        <ele>73.2</ele>
        <time>2014-08-22T09:11:55Z</time>
      </trkpt>
      <trkpt lat="48.02966" lon="-4.43775">
        <ele>72.24</ele>
        <time>2014-08-22T09:11:59Z</time>
      </trkpt>
      <trkpt lat="48.02966" lon="-4.43768">
        <ele>72.72</ele>
        <time>2014-08-22T09:12:03Z</time>
      </trkpt>
      <trkpt lat="48.02963" lon="-4.43757">
        <ele>74.64</ele>
        <time>2014-08-22T09:12:09Z</time>
      </trkpt>
      <trkpt lat="48.02961" lon="-4.43748">
        <ele>77.04</ele>
        <time>2014-08-22T09:12:14Z</time>
      </trkpt>
      <trkpt lat="48.02954" lon="-4.43718">
        <ele>79.93</ele>
        <time>2014-08-22T09:12:30Z</time>
      </trkpt>
      <trkpt lat="48.02947" lon="-4.4369">
        <ele>79.45</ele>
        <time>2014-08-22T09:12:46Z</time>
      </trkpt>
      <trkpt lat="48.0294" lon="-4.43666">
        <ele>78</ele>
        <time>2014-08-22T09:13:01Z</time>
      </trkpt>
      <trkpt lat="48.02935" lon="-4.43642">
        <ele>77.52</ele>
        <time>2014-08-22T09:13:15Z</time>
      </trkpt>
      <trkpt lat="48.02934" lon="-4.43637">
        <ele>78.48</ele>
        <time>2014-08-22T09:13:18Z</time>
      </trkpt>
      <trkpt lat="48.02928" lon="-4.43618">
        <ele>78</ele>
        <time>2014-08-22T09:13:30Z</time>
      </trkpt>
      <trkpt lat="48.02925" lon="-4.436">
        <ele>78</ele>
        <time>2014-08-22T09:13:42Z</time>
      </trkpt>
      <trkpt lat="48.02928" lon="-4.43592">
        <ele>77.04</ele>
        <time>2014-08-22T09:13:56Z</time>
      </trkpt>
      <trkpt lat="48.02932" lon="-4.43587">
        <ele>75.12</ele>
        <time>2014-08-22T09:14:08Z</time>
      </trkpt>
      <trkpt lat="48.02933" lon="-4.43585">
        <ele>74.64</ele>
        <time>2014-08-22T09:14:10Z</time>
      </trkpt>
      <trkpt lat="48.02924" lon="-4.43567">
        <ele>74.16</ele>
        <time>2014-08-22T09:14:23Z</time>
      </trkpt>
      <trkpt lat="48.0292" lon="-4.43562">
        <ele>74.16</ele>
        <time>2014-08-22T09:14:27Z</time>
      </trkpt>
      <trkpt lat="48.02909" lon="-4.43544">
        <ele>70.79</ele>
        <time>2014-08-22T09:14:40Z</time>
      </trkpt>
      <trkpt lat="48.02903" lon="-4.43517">
        <ele>71.76</ele>
        <time>2014-08-22T09:14:54Z</time>
      </trkpt>
      <trkpt lat="48.02898" lon="-4.43502">
        <ele>69.83</ele>
        <time>2014-08-22T09:15:03Z</time>
      </trkpt>
      <trkpt lat="48.02897" lon="-4.43496">
        <ele>69.83</ele>
        <time>2014-08-22T09:15:07Z</time>
      </trkpt>
      <trkpt lat="48.02892" lon="-4.43476">
        <ele>68.39</ele>
        <time>2014-08-22T09:15:18Z</time>
      </trkpt>
      <trkpt lat="48.02885" lon="-4.43454">
        <ele>67.91</ele>
        <time>2014-08-22T09:15:33Z</time>
      </trkpt>
      <trkpt lat="48.02881" lon="-4.4344">
        <ele>66.95</ele>
        <time>2014-08-22T09:15:43Z</time>
      </trkpt>
      <trkpt lat="48.02876" lon="-4.43413">
        <ele>65.03</ele>
        <time>2014-08-22T09:15:58Z</time>
      </trkpt>
      <trkpt lat="48.02871" lon="-4.4339">
        <ele>64.55</ele>
        <time>2014-08-22T09:16:12Z</time>
      </trkpt>
      <trkpt lat="48.02868" lon="-4.43371">
        <ele>64.55</ele>
        <time>2014-08-22T09:16:22Z</time>
      </trkpt>
      <trkpt lat="48.02867" lon="-4.43348">
        <ele>63.58</ele>
        <time>2014-08-22T09:16:36Z</time>
      </trkpt>
      <trkpt lat="48.02867" lon="-4.43347">
        <ele>63.58</ele>
        <time>2014-08-22T09:16:37Z</time>
      </trkpt>
      <trkpt lat="48.02876" lon="-4.4334">
        <ele>61.18</ele>
        <time>2014-08-22T09:16:45Z</time>
      </trkpt>
      <trkpt lat="48.0289" lon="-4.4334">
        <ele>59.26</ele>
        <time>2014-08-22T09:16:57Z</time>
      </trkpt>
      <trkpt lat="48.02901" lon="-4.43347">
        <ele>56.86</ele>
        <time>2014-08-22T09:17:12Z</time>
      </trkpt>
      <trkpt lat="48.02907" lon="-4.43348">
        <ele>54.45</ele>
        <time>2014-08-22T09:17:17Z</time>
      </trkpt>
      <trkpt lat="48.02924" lon="-4.43358">
        <ele>52.05</ele>
        <time>2014-08-22T09:17:31Z</time>
      </trkpt>
      <trkpt lat="48.02928" lon="-4.43355">
        <ele>50.13</ele>
        <time>2014-08-22T09:17:45Z</time>
      </trkpt>
      <trkpt lat="48.02928" lon="-4.43359">
        <ele>47.72</ele>
        <time>2014-08-22T09:17:51Z</time>
      </trkpt>
      <trkpt lat="48.02937" lon="-4.43357">
        <ele>44.36</ele>
        <time>2014-08-22T09:18:02Z</time>
      </trkpt>
      <trkpt lat="48.02947" lon="-4.4336">
        <ele>44.36</ele>
        <time>2014-08-22T09:18:09Z</time>
      </trkpt>
      <trkpt lat="48.0297" lon="-4.43362">
        <ele>50.13</ele>
        <time>2014-08-22T09:18:20Z</time>
      </trkpt>
      <trkpt lat="48.02988" lon="-4.43368">
        <ele>51.57</ele>
        <time>2014-08-22T09:18:32Z</time>
      </trkpt>
      <trkpt lat="48.03006" lon="-4.43375">
        <ele>53.01</ele>
        <time>2014-08-22T09:18:45Z</time>
      </trkpt>
      <trkpt lat="48.03027" lon="-4.43388">
        <ele>49.65</ele>
        <time>2014-08-22T09:19:02Z</time>
      </trkpt>
      <trkpt lat="48.03038" lon="-4.43399">
        <ele>49.65</ele>
        <time>2014-08-22T09:19:14Z</time>
      </trkpt>
      <trkpt lat="48.03038" lon="-4.43399">
        <ele>49.65</ele>
        <time>2014-08-22T09:19:16Z</time>
      </trkpt>
      <trkpt lat="48.03043" lon="-4.43393">
        <ele>48.2</ele>
        <time>2014-08-22T09:19:21Z</time>
      </trkpt>
      <trkpt lat="48.03054" lon="-4.43387">
        <ele>45.32</ele>
        <time>2014-08-22T09:19:29Z</time>
      </trkpt>
      <trkpt lat="48.03063" lon="-4.43376">
        <ele>42.92</ele>
        <time>2014-08-22T09:19:39Z</time>
      </trkpt>
      <trkpt lat="48.03067" lon="-4.43371">
        <ele>42.44</ele>
        <time>2014-08-22T09:19:43Z</time>
      </trkpt>
      <trkpt lat="48.03082" lon="-4.43362">
        <ele>41.95</ele>
        <time>2014-08-22T09:19:55Z</time>
      </trkpt>
      <trkpt lat="48.03089" lon="-4.43355">
        <ele>40.99</ele>
        <time>2014-08-22T09:20:01Z</time>
      </trkpt>
      <trkpt lat="48.03098" lon="-4.43348">
        <ele>41.95</ele>
        <time>2014-08-22T09:20:08Z</time>
      </trkpt>
      <trkpt lat="48.03112" lon="-4.43346">
        <ele>44.36</ele>
        <time>2014-08-22T09:20:19Z</time>
      </trkpt>
      <trkpt lat="48.03131" lon="-4.43341">
        <ele>45.32</ele>
        <time>2014-08-22T09:20:33Z</time>
      </trkpt>
      <trkpt lat="48.03133" lon="-4.43342">
        <ele>45.8</ele>
        <time>2014-08-22T09:20:34Z</time>
      </trkpt>
      <trkpt lat="48.03138" lon="-4.43342">
        <ele>46.76</ele>
        <time>2014-08-22T09:20:38Z</time>
      </trkpt>
      <trkpt lat="48.03154" lon="-4.43338">
        <ele>46.76</ele>
        <time>2014-08-22T09:20:51Z</time>
      </trkpt>
      <trkpt lat="48.03167" lon="-4.43335">
        <ele>43.4</ele>
        <time>2014-08-22T09:21:04Z</time>
      </trkpt>
      <trkpt lat="48.03174" lon="-4.43331">
        <ele>42.44</ele>
        <time>2014-08-22T09:21:10Z</time>
      </trkpt>
      <trkpt lat="48.03183" lon="-4.43326">
        <ele>40.51</ele>
        <time>2014-08-22T09:21:19Z</time>
      </trkpt>
      <trkpt lat="48.03195" lon="-4.43323">
        <ele>38.11</ele>
        <time>2014-08-22T09:21:30Z</time>
      </trkpt>
      <trkpt lat="48.03192" lon="-4.43315">
        <ele>33.78</ele>
        <time>2014-08-22T09:21:40Z</time>
      </trkpt>
      <trkpt lat="48.03187" lon="-4.43308">
        <ele>28.98</ele>
        <time>2014-08-22T09:21:47Z</time>
      </trkpt>
      <trkpt lat="48.0319" lon="-4.43302">
        <ele>24.65</ele>
        <time>2014-08-22T09:22:00Z</time>
      </trkpt>
      <trkpt lat="48.03196" lon="-4.43291">
        <ele>17.44</ele>
        <time>2014-08-22T09:22:12Z</time>
      </trkpt>
      <trkpt lat="48.03207" lon="-4.43276">
        <ele>14.08</ele>
        <time>2014-08-22T09:22:23Z</time>
      </trkpt>
      <trkpt lat="48.03217" lon="-4.43268">
        <ele>14.08</ele>
        <time>2014-08-22T09:22:30Z</time>
      </trkpt>
      <trkpt lat="48.03222" lon="-4.43263">
        <ele>12.63</ele>
        <time>2014-08-22T09:22:34Z</time>
      </trkpt>
      <trkpt lat="48.03231" lon="-4.43249">
        <ele>8.31</ele>
        <time>2014-08-22T09:22:46Z</time>
      </trkpt>
      <trkpt lat="48.03234" lon="-4.43246">
        <ele>7.35</ele>
        <time>2014-08-22T09:22:50Z</time>
      </trkpt>
      <trkpt lat="48.03242" lon="-4.43231">
        <ele>5.91</ele>
        <time>2014-08-22T09:23:00Z</time>
      </trkpt>
      <trkpt lat="48.03256" lon="-4.43213">
        <ele>6.87</ele>
        <time>2014-08-22T09:23:13Z</time>
      </trkpt>
      <trkpt lat="48.03283" lon="-4.43192">
        <ele>17.92</ele>
        <time>2014-08-22T09:23:23Z</time>
      </trkpt>
      <trkpt lat="48.03292" lon="-4.43186">
        <ele>20.32</ele>
        <time>2014-08-22T09:23:26Z</time>
      </trkpt>
      <trkpt lat="48.03304" lon="-4.43181">
        <ele>25.13</ele>
        <time>2014-08-22T09:23:31Z</time>
      </trkpt>
      <trkpt lat="48.03308" lon="-4.4318">
        <ele>26.57</ele>
        <time>2014-08-22T09:23:33Z</time>
      </trkpt>
      <trkpt lat="48.03316" lon="-4.43173">
        <ele>28.02</ele>
        <time>2014-08-22T09:23:43Z</time>
      </trkpt>
      <trkpt lat="48.03324" lon="-4.43166">
        <ele>28.5</ele>
        <time>2014-08-22T09:23:57Z</time>
      </trkpt>
      <trkpt lat="48.03342" lon="-4.43155">
        <ele>30.9</ele>
        <time>2014-08-22T09:24:12Z</time>
      </trkpt>
      <trkpt lat="48.03354" lon="-4.43148">
        <ele>28.98</ele>
        <time>2014-08-22T09:24:23Z</time>
      </trkpt>
      <trkpt lat="48.0336" lon="-4.43145">
        <ele>26.57</ele>
        <time>2014-08-22T09:24:29Z</time>
      </trkpt>
      <trkpt lat="48.03381" lon="-4.43133">
        <ele>30.42</ele>
        <time>2014-08-22T09:24:42Z</time>
      </trkpt>
      <trkpt lat="48.0339" lon="-4.43123">
        <ele>25.61</ele>
        <time>2014-08-22T09:24:55Z</time>
      </trkpt>
      <trkpt lat="48.03407" lon="-4.43117">
        <ele>23.69</ele>
        <time>2014-08-22T09:25:10Z</time>
      </trkpt>
      <trkpt lat="48.03418" lon="-4.43108">
        <ele>21.29</ele>
        <time>2014-08-22T09:25:24Z</time>
      </trkpt>
      <trkpt lat="48.0343" lon="-4.43095">
        <ele>22.73</ele>
        <time>2014-08-22T09:25:36Z</time>
      </trkpt>
      <trkpt lat="48.03447" lon="-4.43078">
        <ele>24.17</ele>
        <time>2014-08-22T09:25:52Z</time>
      </trkpt>
      <trkpt lat="48.03461" lon="-4.43071">
        <ele>24.17</ele>
        <time>2014-08-22T09:26:07Z</time>
      </trkpt>
      <trkpt lat="48.03482" lon="-4.43062">
        <ele>24.17</ele>
        <time>2014-08-22T09:26:23Z</time>
      </trkpt>
      <trkpt lat="48.03492" lon="-4.4306">
        <ele>23.69</ele>
        <time>2014-08-22T09:26:31Z</time>
      </trkpt>
      <trkpt lat="48.03502" lon="-4.4306">
        <ele>19.84</ele>
        <time>2014-08-22T09:26:44Z</time>
      </trkpt>
      <trkpt lat="48.03514" lon="-4.4306">
        <ele>17.92</ele>
        <time>2014-08-22T09:26:56Z</time>
      </trkpt>
      <trkpt lat="48.0352" lon="-4.43068">
        <ele>16.48</ele>
        <time>2014-08-22T09:27:15Z</time>
      </trkpt>
      <trkpt lat="48.03524" lon="-4.43068">
        <ele>17.92</ele>
        <time>2014-08-22T09:27:32Z</time>
      </trkpt>
      <trkpt lat="48.03524" lon="-4.43069">
        <ele>18.88</ele>
        <time>2014-08-22T09:27:57Z</time>
      </trkpt>
      <trkpt lat="48.03526" lon="-4.43068">
        <ele>19.36</ele>
        <time>2014-08-22T09:28:04Z</time>
      </trkpt>
      <trkpt lat="48.03527" lon="-4.43077">
        <ele>20.81</ele>
        <time>2014-08-22T09:28:09Z</time>
      </trkpt>
      <trkpt lat="48.03524" lon="-4.43094">
        <ele>25.61</ele>
        <time>2014-08-22T09:28:22Z</time>
      </trkpt>
      <trkpt lat="48.03527" lon="-4.43111">
        <ele>28.5</ele>
        <time>2014-08-22T09:28:34Z</time>
      </trkpt>
      <trkpt lat="48.03524" lon="-4.43134">
        <ele>30.9</ele>
        <time>2014-08-22T09:28:50Z</time>
      </trkpt>
      <trkpt lat="48.03522" lon="-4.43153">
        <ele>33.3</ele>
        <time>2014-08-22T09:29:02Z</time>
      </trkpt>
      <trkpt lat="48.03521" lon="-4.43166">
        <ele>32.82</ele>
        <time>2014-08-22T09:29:17Z</time>
      </trkpt>
      <trkpt lat="48.03519" lon="-4.43191">
        <ele>37.15</ele>
        <time>2014-08-22T09:29:35Z</time>
      </trkpt>
      <trkpt lat="48.03519" lon="-4.43212">
        <ele>37.15</ele>
        <time>2014-08-22T09:29:45Z</time>
      </trkpt>
      <trkpt lat="48.03518" lon="-4.43217">
        <ele>37.15</ele>
        <time>2014-08-22T09:29:48Z</time>
      </trkpt>
      <trkpt lat="48.03518" lon="-4.4324">
        <ele>38.59</ele>
        <time>2014-08-22T09:30:04Z</time>
      </trkpt>
      <trkpt lat="48.03518" lon="-4.4325">
        <ele>40.03</ele>
        <time>2014-08-22T09:30:09Z</time>
      </trkpt>
      <trkpt lat="48.03517" lon="-4.43264">
        <ele>40.99</ele>
        <time>2014-08-22T09:30:16Z</time>
      </trkpt>
      <trkpt lat="48.03516" lon="-4.43286">
        <ele>40.99</ele>
        <time>2014-08-22T09:30:29Z</time>
      </trkpt>
      <trkpt lat="48.03515" lon="-4.43292">
        <ele>41.47</ele>
        <time>2014-08-22T09:30:33Z</time>
      </trkpt>
      <trkpt lat="48.03514" lon="-4.43323">
        <ele>41.95</ele>
        <time>2014-08-22T09:30:49Z</time>
      </trkpt>
      <trkpt lat="48.03516" lon="-4.43341">
        <ele>40.99</ele>
        <time>2014-08-22T09:30:59Z</time>
      </trkpt>
      <trkpt lat="48.0352" lon="-4.43369">
        <ele>43.4</ele>
        <time>2014-08-22T09:31:15Z</time>
      </trkpt>
      <trkpt lat="48.03522" lon="-4.43401">
        <ele>43.88</ele>
        <time>2014-08-22T09:31:32Z</time>
      </trkpt>
      <trkpt lat="48.03521" lon="-4.43424">
        <ele>45.32</ele>
        <time>2014-08-22T09:31:47Z</time>
      </trkpt>
      <trkpt lat="48.03521" lon="-4.43449">
        <ele>45.32</ele>
        <time>2014-08-22T09:32:01Z</time>
      </trkpt>
      <trkpt lat="48.0352" lon="-4.43457">
        <ele>44.84</ele>
        <time>2014-08-22T09:32:07Z</time>
      </trkpt>
      <trkpt lat="48.0352" lon="-4.43462">
        <ele>44.84</ele>
        <time>2014-08-22T09:32:10Z</time>
      </trkpt>
      <trkpt lat="48.03518" lon="-4.43471">
        <ele>45.32</ele>
        <time>2014-08-22T09:32:15Z</time>
      </trkpt>
      <trkpt lat="48.03517" lon="-4.43485">
        <ele>45.32</ele>
        <time>2014-08-22T09:32:24Z</time>
      </trkpt>
      <trkpt lat="48.03515" lon="-4.43503">
        <ele>44.36</ele>
        <time>2014-08-22T09:32:41Z</time>
      </trkpt>
      <trkpt lat="48.03509" lon="-4.43525">
        <ele>46.28</ele>
        <time>2014-08-22T09:32:55Z</time>
      </trkpt>
      <trkpt lat="48.03507" lon="-4.43529">
        <ele>45.32</ele>
        <time>2014-08-22T09:32:58Z</time>
      </trkpt>
      <trkpt lat="48.03502" lon="-4.43555">
        <ele>44.36</ele>
        <time>2014-08-22T09:33:11Z</time>
      </trkpt>
      <trkpt lat="48.03501" lon="-4.43563">
        <ele>44.36</ele>
        <time>2014-08-22T09:33:15Z</time>
      </trkpt>
      <trkpt lat="48.03497" lon="-4.4358">
        <ele>45.32</ele>
        <time>2014-08-22T09:33:29Z</time>
      </trkpt>
      <trkpt lat="48.03501" lon="-4.43586">
        <ele>46.76</ele>
        <time>2014-08-22T09:33:46Z</time>
      </trkpt>
      <trkpt lat="48.03501" lon="-4.43588">
        <ele>47.72</ele>
        <time>2014-08-22T09:34:02Z</time>
      </trkpt>
      <trkpt lat="48.03501" lon="-4.43595">
        <ele>47.72</ele>
        <time>2014-08-22T09:34:16Z</time>
      </trkpt>
      <trkpt lat="48.03502" lon="-4.43605">
        <ele>47.72</ele>
        <time>2014-08-22T09:34:21Z</time>
      </trkpt>
      <trkpt lat="48.03511" lon="-4.43625">
        <ele>46.28</ele>
        <time>2014-08-22T09:34:38Z</time>
      </trkpt>
      <trkpt lat="48.03514" lon="-4.43645">
        <ele>47.72</ele>
        <time>2014-08-22T09:34:51Z</time>
      </trkpt>
      <trkpt lat="48.03515" lon="-4.43648">
        <ele>48.2</ele>
        <time>2014-08-22T09:34:57Z</time>
      </trkpt>
      <trkpt lat="48.03523" lon="-4.4366">
        <ele>48.68</ele>
        <time>2014-08-22T09:35:12Z</time>
      </trkpt>
      <trkpt lat="48.03524" lon="-4.43661">
        <ele>47.24</ele>
        <time>2014-08-22T09:35:54Z</time>
      </trkpt>
      <trkpt lat="48.03533" lon="-4.43653">
        <ele>47.24</ele>
        <time>2014-08-22T09:36:15Z</time>
      </trkpt>
      <trkpt lat="48.03534" lon="-4.43649">
        <ele>47.72</ele>
        <time>2014-08-22T09:36:35Z</time>
      </trkpt>
      <trkpt lat="48.03535" lon="-4.43645">
        <ele>47.24</ele>
        <time>2014-08-22T09:36:54Z</time>
      </trkpt>
      <trkpt lat="48.03543" lon="-4.4364">
        <ele>50.61</ele>
        <time>2014-08-22T09:37:15Z</time>
      </trkpt>
      <trkpt lat="48.03537" lon="-4.43644">
        <ele>50.13</ele>
        <time>2014-08-22T09:37:35Z</time>
      </trkpt>
      <trkpt lat="48.0354" lon="-4.43643">
        <ele>49.65</ele>
        <time>2014-08-22T09:37:55Z</time>
      </trkpt>
      <trkpt lat="48.03532" lon="-4.43653">
        <ele>48.68</ele>
        <time>2014-08-22T09:38:15Z</time>
      </trkpt>
      <trkpt lat="48.03524" lon="-4.43659">
        <ele>50.13</ele>
        <time>2014-08-22T09:38:29Z</time>
      </trkpt>
      <trkpt lat="48.03523" lon="-4.43662">
        <ele>49.16</ele>
        <time>2014-08-22T09:38:44Z</time>
      </trkpt>
      <trkpt lat="48.03523" lon="-4.43662">
        <ele>49.65</ele>
        <time>2014-08-22T09:39:11Z</time>
      </trkpt>
      <trkpt lat="48.03523" lon="-4.43662">
        <ele>50.13</ele>
        <time>2014-08-22T09:39:24Z</time>
      </trkpt>
      <trkpt lat="48.03522" lon="-4.43666">
        <ele>50.61</ele>
        <time>2014-08-22T09:39:45Z</time>
      </trkpt>
      <trkpt lat="48.03523" lon="-4.43669">
        <ele>48.68</ele>
        <time>2014-08-22T09:39:57Z</time>
      </trkpt>
      <trkpt lat="48.03524" lon="-4.43671">
        <ele>48.2</ele>
        <time>2014-08-22T09:39:59Z</time>
      </trkpt>
      <trkpt lat="48.03526" lon="-4.43675">
        <ele>47.72</ele>
        <time>2014-08-22T09:40:12Z</time>
      </trkpt>
      <trkpt lat="48.03528" lon="-4.43676">
        <ele>48.2</ele>
        <time>2014-08-22T09:40:28Z</time>
      </trkpt>
      <trkpt lat="48.03527" lon="-4.43677">
        <ele>46.76</ele>
        <time>2014-08-22T09:40:42Z</time>
      </trkpt>
      <trkpt lat="48.03527" lon="-4.43679">
        <ele>46.76</ele>
        <time>2014-08-22T09:40:48Z</time>
      </trkpt>
      <trkpt lat="48.03525" lon="-4.43678">
        <ele>46.76</ele>
        <time>2014-08-22T09:41:03Z</time>
      </trkpt>
      <trkpt lat="48.03526" lon="-4.4368">
        <ele>46.76</ele>
        <time>2014-08-22T09:41:17Z</time>
      </trkpt>
      <trkpt lat="48.03526" lon="-4.43681">
        <ele>46.76</ele>
        <time>2014-08-22T09:41:42Z</time>
      </trkpt>
      <trkpt lat="48.03526" lon="-4.43682">
        <ele>46.76</ele>
        <time>2014-08-22T09:42:04Z</time>
      </trkpt>
      <trkpt lat="48.03527" lon="-4.43683">
        <ele>47.24</ele>
        <time>2014-08-22T09:42:28Z</time>
      </trkpt>
      <trkpt lat="48.03527" lon="-4.43683">
        <ele>47.24</ele>
        <time>2014-08-22T09:42:46Z</time>
      </trkpt>
      <trkpt lat="48.03534" lon="-4.4368">
        <ele>47.24</ele>
        <time>2014-08-22T09:42:58Z</time>
      </trkpt>
      <trkpt lat="48.03537" lon="-4.43677">
        <ele>45.8</ele>
        <time>2014-08-22T09:43:13Z</time>
      </trkpt>
      <trkpt lat="48.03539" lon="-4.43672">
        <ele>44.84</ele>
        <time>2014-08-22T09:43:27Z</time>
      </trkpt>
      <trkpt lat="48.03541" lon="-4.43671">
        <ele>44.84</ele>
        <time>2014-08-22T09:43:29Z</time>
      </trkpt>
      <trkpt lat="48.03551" lon="-4.4366">
        <ele>45.32</ele>
        <time>2014-08-22T09:43:36Z</time>
      </trkpt>
      <trkpt lat="48.03558" lon="-4.43657">
        <ele>44.36</ele>
        <time>2014-08-22T09:43:41Z</time>
      </trkpt>
      <trkpt lat="48.03569" lon="-4.43641">
        <ele>43.88</ele>
        <time>2014-08-22T09:43:53Z</time>
      </trkpt>
      <trkpt lat="48.03574" lon="-4.4363">
        <ele>44.36</ele>
        <time>2014-08-22T09:43:58Z</time>
      </trkpt>
      <trkpt lat="48.0358" lon="-4.43621">
        <ele>44.84</ele>
        <time>2014-08-22T09:44:05Z</time>
      </trkpt>
      <trkpt lat="48.03582" lon="-4.43618">
        <ele>44.36</ele>
        <time>2014-08-22T09:44:07Z</time>
      </trkpt>
      <trkpt lat="48.03583" lon="-4.43616">
        <ele>44.36</ele>
        <time>2014-08-22T09:44:09Z</time>
      </trkpt>
      <trkpt lat="48.03592" lon="-4.43599">
        <ele>41.47</ele>
        <time>2014-08-22T09:44:20Z</time>
      </trkpt>
      <trkpt lat="48.03593" lon="-4.43598">
        <ele>41.47</ele>
        <time>2014-08-22T09:44:21Z</time>
      </trkpt>
      <trkpt lat="48.036" lon="-4.43583">
        <ele>39.55</ele>
        <time>2014-08-22T09:44:32Z</time>
      </trkpt>
      <trkpt lat="48.03607" lon="-4.43563">
        <ele>38.11</ele>
        <time>2014-08-22T09:44:46Z</time>
      </trkpt>
      <trkpt lat="48.03612" lon="-4.43549">
        <ele>37.15</ele>
        <time>2014-08-22T09:44:54Z</time>
      </trkpt>
      <trkpt lat="48.03614" lon="-4.4353">
        <ele>38.59</ele>
        <time>2014-08-22T09:45:05Z</time>
      </trkpt>
      <trkpt lat="48.03619" lon="-4.4351">
        <ele>38.11</ele>
        <time>2014-08-22T09:45:20Z</time>
      </trkpt>
      <trkpt lat="48.03625" lon="-4.43504">
        <ele>36.67</ele>
        <time>2014-08-22T09:45:27Z</time>
      </trkpt>
      <trkpt lat="48.03631" lon="-4.43505">
        <ele>36.67</ele>
        <time>2014-08-22T09:45:31Z</time>
      </trkpt>
      <trkpt lat="48.03635" lon="-4.43501">
        <ele>37.15</ele>
        <time>2014-08-22T09:45:35Z</time>
      </trkpt>
      <trkpt lat="48.03652" lon="-4.43498">
        <ele>37.63</ele>
        <time>2014-08-22T09:45:50Z</time>
      </trkpt>
      <trkpt lat="48.03667" lon="-4.43496">
        <ele>35.23</ele>
        <time>2014-08-22T09:46:03Z</time>
      </trkpt>
      <trkpt lat="48.03674" lon="-4.43492">
        <ele>33.3</ele>
        <time>2014-08-22T09:46:11Z</time>
      </trkpt>
      <trkpt lat="48.03687" lon="-4.43491">
        <ele>34.26</ele>
        <time>2014-08-22T09:46:21Z</time>
      </trkpt>
      <trkpt lat="48.03697" lon="-4.4349">
        <ele>32.82</ele>
        <time>2014-08-22T09:46:33Z</time>
      </trkpt>
      <trkpt lat="48.03713" lon="-4.43489">
        <ele>31.86</ele>
        <time>2014-08-22T09:46:46Z</time>
      </trkpt>
      <trkpt lat="48.03727" lon="-4.43489">
        <ele>31.86</ele>
        <time>2014-08-22T09:46:57Z</time>
      </trkpt>
      <trkpt lat="48.03745" lon="-4.43482">
        <ele>34.26</ele>
        <time>2014-08-22T09:47:11Z</time>
      </trkpt>
      <trkpt lat="48.03746" lon="-4.43482">
        <ele>34.74</ele>
        <time>2014-08-22T09:47:12Z</time>
      </trkpt>
      <trkpt lat="48.03754" lon="-4.43481">
        <ele>36.67</ele>
        <time>2014-08-22T09:47:17Z</time>
      </trkpt>
      <trkpt lat="48.0376" lon="-4.4348">
        <ele>37.63</ele>
        <time>2014-08-22T09:47:21Z</time>
      </trkpt>
      <trkpt lat="48.03776" lon="-4.4348">
        <ele>38.59</ele>
        <time>2014-08-22T09:47:34Z</time>
      </trkpt>
      <trkpt lat="48.03778" lon="-4.43478">
        <ele>38.11</ele>
        <time>2014-08-22T09:47:37Z</time>
      </trkpt>
      <trkpt lat="48.03783" lon="-4.43476">
        <ele>38.59</ele>
        <time>2014-08-22T09:47:43Z</time>
      </trkpt>
      <trkpt lat="48.03784" lon="-4.43476">
        <ele>38.59</ele>
        <time>2014-08-22T09:47:54Z</time>
      </trkpt>
      <trkpt lat="48.03786" lon="-4.43476">
        <ele>38.59</ele>
        <time>2014-08-22T09:47:56Z</time>
      </trkpt>
      <trkpt lat="48.03792" lon="-4.43475">
        <ele>38.59</ele>
        <time>2014-08-22T09:48:00Z</time>
      </trkpt>
      <trkpt lat="48.03797" lon="-4.43476">
        <ele>38.59</ele>
        <time>2014-08-22T09:48:04Z</time>
      </trkpt>
      <trkpt lat="48.03818" lon="-4.43473">
        <ele>39.55</ele>
        <time>2014-08-22T09:48:18Z</time>
      </trkpt>
      <trkpt lat="48.03834" lon="-4.43476">
        <ele>38.11</ele>
        <time>2014-08-22T09:48:34Z</time>
      </trkpt>
      <trkpt lat="48.03852" lon="-4.43475">
        <ele>35.71</ele>
        <time>2014-08-22T09:48:49Z</time>
      </trkpt>
      <trkpt lat="48.03861" lon="-4.43475">
        <ele>34.74</ele>
        <time>2014-08-22T09:48:58Z</time>
      </trkpt>
      <trkpt lat="48.03867" lon="-4.43475">
        <ele>33.78</ele>
        <time>2014-08-22T09:49:02Z</time>
      </trkpt>
      <trkpt lat="48.03879" lon="-4.43478">
        <ele>28.02</ele>
        <time>2014-08-22T09:49:13Z</time>
      </trkpt>
      <trkpt lat="48.03892" lon="-4.43478">
        <ele>25.13</ele>
        <time>2014-08-22T09:49:24Z</time>
      </trkpt>
      <trkpt lat="48.039" lon="-4.43478">
        <ele>23.21</ele>
        <time>2014-08-22T09:49:31Z</time>
      </trkpt>
      <trkpt lat="48.03905" lon="-4.43481">
        <ele>22.73</ele>
        <time>2014-08-22T09:49:34Z</time>
      </trkpt>
      <trkpt lat="48.03917" lon="-4.43479">
        <ele>18.4</ele>
        <time>2014-08-22T09:49:45Z</time>
      </trkpt>
      <trkpt lat="48.03934" lon="-4.43471">
        <ele>17.44</ele>
        <time>2014-08-22T09:49:57Z</time>
      </trkpt>
      <trkpt lat="48.03938" lon="-4.43468">
        <ele>17.44</ele>
        <time>2014-08-22T09:50:02Z</time>
      </trkpt>
      <trkpt lat="48.0394" lon="-4.43466">
        <ele>16.48</ele>
        <time>2014-08-22T09:50:04Z</time>
      </trkpt>
      <trkpt lat="48.03947" lon="-4.43458">
        <ele>14.56</ele>
        <time>2014-08-22T09:50:12Z</time>
      </trkpt>
      <trkpt lat="48.0395" lon="-4.43452">
        <ele>13.12</ele>
        <time>2014-08-22T09:50:16Z</time>
      </trkpt>
      <trkpt lat="48.03952" lon="-4.43439">
        <ele>10.71</ele>
        <time>2014-08-22T09:50:24Z</time>
      </trkpt>
      <trkpt lat="48.03954" lon="-4.43432">
        <ele>11.19</ele>
        <time>2014-08-22T09:50:28Z</time>
      </trkpt>
      <trkpt lat="48.03955" lon="-4.4342">
        <ele>13.6</ele>
        <time>2014-08-22T09:50:33Z</time>
      </trkpt>
      <trkpt lat="48.03955" lon="-4.43415">
        <ele>13.6</ele>
        <time>2014-08-22T09:50:35Z</time>
      </trkpt>
      <trkpt lat="48.0396" lon="-4.43394">
        <ele>15.52</ele>
        <time>2014-08-22T09:50:45Z</time>
      </trkpt>
      <trkpt lat="48.03962" lon="-4.43384">
        <ele>16</ele>
        <time>2014-08-22T09:50:50Z</time>
      </trkpt>
      <trkpt lat="48.03964" lon="-4.43379">
        <ele>16</ele>
        <time>2014-08-22T09:50:53Z</time>
      </trkpt>
      <trkpt lat="48.03966" lon="-4.43372">
        <ele>16.96</ele>
        <time>2014-08-22T09:50:58Z</time>
      </trkpt>
      <trkpt lat="48.03965" lon="-4.43361">
        <ele>17.44</ele>
        <time>2014-08-22T09:51:03Z</time>
      </trkpt>
      <trkpt lat="48.03966" lon="-4.43356">
        <ele>16.96</ele>
        <time>2014-08-22T09:51:06Z</time>
      </trkpt>
      <trkpt lat="48.0397" lon="-4.43329">
        <ele>14.08</ele>
        <time>2014-08-22T09:51:21Z</time>
      </trkpt>
      <trkpt lat="48.0397" lon="-4.43327">
        <ele>14.08</ele>
        <time>2014-08-22T09:51:22Z</time>
      </trkpt>
      <trkpt lat="48.0397" lon="-4.43303">
        <ele>14.08</ele>
        <time>2014-08-22T09:51:36Z</time>
      </trkpt>
      <trkpt lat="48.03972" lon="-4.4328">
        <ele>11.19</ele>
        <time>2014-08-22T09:51:49Z</time>
      </trkpt>
      <trkpt lat="48.03976" lon="-4.43262">
        <ele>11.19</ele>
        <time>2014-08-22T09:51:59Z</time>
      </trkpt>
      <trkpt lat="48.03978" lon="-4.43253">
        <ele>13.6</ele>
        <time>2014-08-22T09:52:04Z</time>
      </trkpt>
      <trkpt lat="48.03988" lon="-4.43246">
        <ele>14.56</ele>
        <time>2014-08-22T09:52:15Z</time>
      </trkpt>
      <trkpt lat="48.03995" lon="-4.43244">
        <ele>13.6</ele>
        <time>2014-08-22T09:52:20Z</time>
      </trkpt>
      <trkpt lat="48.03998" lon="-4.4324">
        <ele>12.63</ele>
        <time>2014-08-22T09:52:24Z</time>
      </trkpt>
      <trkpt lat="48.04012" lon="-4.43236">
        <ele>15.04</ele>
        <time>2014-08-22T09:52:38Z</time>
      </trkpt>
      <trkpt lat="48.04031" lon="-4.43233">
        <ele>13.6</ele>
        <time>2014-08-22T09:52:51Z</time>
      </trkpt>
      <trkpt lat="48.04049" lon="-4.43237">
        <ele>12.63</ele>
        <time>2014-08-22T09:53:05Z</time>
      </trkpt>
      <trkpt lat="48.04052" lon="-4.43239">
        <ele>13.12</ele>
        <time>2014-08-22T09:53:07Z</time>
      </trkpt>
      <trkpt lat="48.04057" lon="-4.43238">
        <ele>13.6</ele>
        <time>2014-08-22T09:53:13Z</time>
      </trkpt>
      <trkpt lat="48.04064" lon="-4.43239">
        <ele>10.23</ele>
        <time>2014-08-22T09:53:20Z</time>
      </trkpt>
      <trkpt lat="48.04077" lon="-4.4324">
        <ele>5.42</ele>
        <time>2014-08-22T09:53:30Z</time>
      </trkpt>
      <trkpt lat="48.04078" lon="-4.4324">
        <ele>5.42</ele>
        <time>2014-08-22T09:53:31Z</time>
      </trkpt>
      <trkpt lat="48.04092" lon="-4.43243">
        <ele>9.27</ele>
        <time>2014-08-22T09:53:42Z</time>
      </trkpt>
      <trkpt lat="48.04096" lon="-4.43244">
        <ele>9.27</ele>
        <time>2014-08-22T09:53:46Z</time>
      </trkpt>
      <trkpt lat="48.04105" lon="-4.43251">
        <ele>11.19</ele>
        <time>2014-08-22T09:53:51Z</time>
      </trkpt>
      <trkpt lat="48.0411" lon="-4.43251">
        <ele>11.19</ele>
        <time>2014-08-22T09:53:55Z</time>
      </trkpt>
      <trkpt lat="48.04113" lon="-4.43251">
        <ele>10.71</ele>
        <time>2014-08-22T09:53:57Z</time>
      </trkpt>
      <trkpt lat="48.04125" lon="-4.43256">
        <ele>9.75</ele>
        <time>2014-08-22T09:54:09Z</time>
      </trkpt>
      <trkpt lat="48.04142" lon="-4.43256">
        <ele>8.79</ele>
        <time>2014-08-22T09:54:22Z</time>
      </trkpt>
      <trkpt lat="48.04156" lon="-4.43259">
        <ele>6.39</ele>
        <time>2014-08-22T09:54:34Z</time>
      </trkpt>
      <trkpt lat="48.04164" lon="-4.43261">
        <ele>7.35</ele>
        <time>2014-08-22T09:54:40Z</time>
      </trkpt>
      <trkpt lat="48.04178" lon="-4.4326">
        <ele>8.79</ele>
        <time>2014-08-22T09:54:52Z</time>
      </trkpt>
      <trkpt lat="48.04189" lon="-4.43257">
        <ele>5.42</ele>
        <time>2014-08-22T09:55:06Z</time>
      </trkpt>
      <trkpt lat="48.04206" lon="-4.43235">
        <ele>12.63</ele>
        <time>2014-08-22T09:55:22Z</time>
      </trkpt>
      <trkpt lat="48.04205" lon="-4.4323">
        <ele>13.6</ele>
        <time>2014-08-22T09:55:36Z</time>
      </trkpt>
      <trkpt lat="48.04206" lon="-4.4323">
        <ele>14.56</ele>
        <time>2014-08-22T09:55:57Z</time>
      </trkpt>
      <trkpt lat="48.04206" lon="-4.43228">
        <ele>15.52</ele>
        <time>2014-08-22T09:56:21Z</time>
      </trkpt>
      <trkpt lat="48.04205" lon="-4.43213">
        <ele>17.44</ele>
        <time>2014-08-22T09:56:34Z</time>
      </trkpt>
      <trkpt lat="48.04213" lon="-4.43195">
        <ele>20.32</ele>
        <time>2014-08-22T09:56:47Z</time>
      </trkpt>
      <trkpt lat="48.04216" lon="-4.43189">
        <ele>21.29</ele>
        <time>2014-08-22T09:56:51Z</time>
      </trkpt>
      <trkpt lat="48.04222" lon="-4.43163">
        <ele>23.21</ele>
        <time>2014-08-22T09:57:07Z</time>
      </trkpt>
      <trkpt lat="48.0423" lon="-4.43143">
        <ele>23.69</ele>
        <time>2014-08-22T09:57:22Z</time>
      </trkpt>
      <trkpt lat="48.04231" lon="-4.43138">
        <ele>24.17</ele>
        <time>2014-08-22T09:57:25Z</time>
      </trkpt>
      <trkpt lat="48.0423" lon="-4.43134">
        <ele>24.65</ele>
        <time>2014-08-22T09:57:27Z</time>
      </trkpt>
      <trkpt lat="48.04228" lon="-4.43123">
        <ele>24.65</ele>
        <time>2014-08-22T09:57:31Z</time>
      </trkpt>
      <trkpt lat="48.04232" lon="-4.431">
        <ele>28.02</ele>
        <time>2014-08-22T09:57:45Z</time>
      </trkpt>
      <trkpt lat="48.04237" lon="-4.43086">
        <ele>29.46</ele>
        <time>2014-08-22T09:57:56Z</time>
      </trkpt>
      <trkpt lat="48.04241" lon="-4.4306">
        <ele>31.86</ele>
        <time>2014-08-22T09:58:10Z</time>
      </trkpt>
      <trkpt lat="48.04245" lon="-4.43043">
        <ele>33.3</ele>
        <time>2014-08-22T09:58:22Z</time>
      </trkpt>
      <trkpt lat="48.04247" lon="-4.43038">
        <ele>33.78</ele>
        <time>2014-08-22T09:58:25Z</time>
      </trkpt>
      <trkpt lat="48.04249" lon="-4.43035">
        <ele>33.78</ele>
        <time>2014-08-22T09:58:27Z</time>
      </trkpt>
      <trkpt lat="48.04251" lon="-4.4303">
        <ele>33.78</ele>
        <time>2014-08-22T09:58:30Z</time>
      </trkpt>
      <trkpt lat="48.04253" lon="-4.43028">
        <ele>33.78</ele>
        <time>2014-08-22T09:58:32Z</time>
      </trkpt>
      <trkpt lat="48.04262" lon="-4.43011">
        <ele>33.78</ele>
        <time>2014-08-22T09:58:45Z</time>
      </trkpt>
      <trkpt lat="48.04274" lon="-4.43">
        <ele>33.3</ele>
        <time>2014-08-22T09:58:59Z</time>
      </trkpt>
      <trkpt lat="48.04291" lon="-4.42981">
        <ele>30.9</ele>
        <time>2014-08-22T09:59:20Z</time>
      </trkpt>
      <trkpt lat="48.0431" lon="-4.42956">
        <ele>35.23</ele>
        <time>2014-08-22T09:59:40Z</time>
      </trkpt>
      <trkpt lat="48.04322" lon="-4.42939">
        <ele>35.71</ele>
        <time>2014-08-22T09:59:53Z</time>
      </trkpt>
      <trkpt lat="48.04327" lon="-4.4293">
        <ele>35.71</ele>
        <time>2014-08-22T09:59:59Z</time>
      </trkpt>
      <trkpt lat="48.04346" lon="-4.42914">
        <ele>38.11</ele>
        <time>2014-08-22T10:00:15Z</time>
      </trkpt>
      <trkpt lat="48.04364" lon="-4.42899">
        <ele>40.03</ele>
        <time>2014-08-22T10:00:33Z</time>
      </trkpt>
      <trkpt lat="48.04374" lon="-4.42876">
        <ele>40.51</ele>
        <time>2014-08-22T10:00:48Z</time>
      </trkpt>
      <trkpt lat="48.04383" lon="-4.42865">
        <ele>41.47</ele>
        <time>2014-08-22T10:00:57Z</time>
      </trkpt>
      <trkpt lat="48.04392" lon="-4.42849">
        <ele>45.8</ele>
        <time>2014-08-22T10:01:09Z</time>
      </trkpt>
      <trkpt lat="48.04384" lon="-4.42838">
        <ele>44.36</ele>
        <time>2014-08-22T10:01:22Z</time>
      </trkpt>
      <trkpt lat="48.04383" lon="-4.42838">
        <ele>45.32</ele>
        <time>2014-08-22T10:01:39Z</time>
      </trkpt>
      <trkpt lat="48.0438" lon="-4.42835">
        <ele>47.24</ele>
        <time>2014-08-22T10:01:53Z</time>
      </trkpt>
      <trkpt lat="48.04374" lon="-4.42825">
        <ele>48.68</ele>
        <time>2014-08-22T10:02:07Z</time>
      </trkpt>
      <trkpt lat="48.0437" lon="-4.42812">
        <ele>47.72</ele>
        <time>2014-08-22T10:02:22Z</time>
      </trkpt>
      <trkpt lat="48.04374" lon="-4.42812">
        <ele>45.8</ele>
        <time>2014-08-22T10:02:33Z</time>
      </trkpt>
      <trkpt lat="48.04373" lon="-4.42812">
        <ele>45.8</ele>
        <time>2014-08-22T10:02:48Z</time>
      </trkpt>
      <trkpt lat="48.04368" lon="-4.42812">
        <ele>45.32</ele>
        <time>2014-08-22T10:02:59Z</time>
      </trkpt>
      <trkpt lat="48.04365" lon="-4.42808">
        <ele>45.32</ele>
        <time>2014-08-22T10:03:08Z</time>
      </trkpt>
      <trkpt lat="48.04359" lon="-4.428">
        <ele>45.8</ele>
        <time>2014-08-22T10:03:20Z</time>
      </trkpt>
      <trkpt lat="48.04357" lon="-4.42797">
        <ele>45.32</ele>
        <time>2014-08-22T10:03:24Z</time>
      </trkpt>
      <trkpt lat="48.0434" lon="-4.42783">
        <ele>44.36</ele>
        <time>2014-08-22T10:03:41Z</time>
      </trkpt>
      <trkpt lat="48.04338" lon="-4.4278">
        <ele>44.36</ele>
        <time>2014-08-22T10:03:43Z</time>
      </trkpt>
      <trkpt lat="48.04334" lon="-4.42777">
        <ele>45.32</ele>
        <time>2014-08-22T10:03:46Z</time>
      </trkpt>
      <trkpt lat="48.04322" lon="-4.4277">
        <ele>43.88</ele>
        <time>2014-08-22T10:04:00Z</time>
      </trkpt>
      <trkpt lat="48.04312" lon="-4.42765">
        <ele>42.92</ele>
        <time>2014-08-22T10:04:11Z</time>
      </trkpt>
      <trkpt lat="48.04297" lon="-4.42754">
        <ele>40.99</ele>
        <time>2014-08-22T10:04:26Z</time>
      </trkpt>
      <trkpt lat="48.04284" lon="-4.42747">
        <ele>39.55</ele>
        <time>2014-08-22T10:04:39Z</time>
      </trkpt>
      <trkpt lat="48.04282" lon="-4.42745">
        <ele>40.51</ele>
        <time>2014-08-22T10:04:57Z</time>
      </trkpt>
      <trkpt lat="48.04281" lon="-4.42745">
        <ele>40.99</ele>
        <time>2014-08-22T10:05:12Z</time>
      </trkpt>
      <trkpt lat="48.04282" lon="-4.42745">
        <ele>40.99</ele>
        <time>2014-08-22T10:05:30Z</time>
      </trkpt>
      <trkpt lat="48.04281" lon="-4.42745">
        <ele>41.47</ele>
        <time>2014-08-22T10:05:55Z</time>
      </trkpt>
      <trkpt lat="48.04281" lon="-4.42745">
        <ele>41.47</ele>
        <time>2014-08-22T10:06:20Z</time>
      </trkpt>
      <trkpt lat="48.04282" lon="-4.42745">
        <ele>41.47</ele>
        <time>2014-08-22T10:06:49Z</time>
      </trkpt>
      <trkpt lat="48.04282" lon="-4.42745">
        <ele>41.47</ele>
        <time>2014-08-22T10:07:20Z</time>
      </trkpt>
      <trkpt lat="48.04282" lon="-4.42745">
        <ele>41.47</ele>
        <time>2014-08-22T10:07:46Z</time>
      </trkpt>
      <trkpt lat="48.04281" lon="-4.42745">
        <ele>41.95</ele>
        <time>2014-08-22T10:08:06Z</time>
      </trkpt>
      <trkpt lat="48.04282" lon="-4.42746">
        <ele>41.95</ele>
        <time>2014-08-22T10:08:26Z</time>
      </trkpt>
      <trkpt lat="48.04282" lon="-4.42746">
        <ele>41.95</ele>
        <time>2014-08-22T10:08:39Z</time>
      </trkpt>
      <trkpt lat="48.04268" lon="-4.42736">
        <ele>40.99</ele>
        <time>2014-08-22T10:08:52Z</time>
      </trkpt>
      <trkpt lat="48.04262" lon="-4.42725">
        <ele>40.51</ele>
        <time>2014-08-22T10:09:01Z</time>
      </trkpt>
      <trkpt lat="48.04258" lon="-4.42698">
        <ele>41.47</ele>
        <time>2014-08-22T10:09:16Z</time>
      </trkpt>
      <trkpt lat="48.04253" lon="-4.42685">
        <ele>41.47</ele>
        <time>2014-08-22T10:09:25Z</time>
      </trkpt>
      <trkpt lat="48.04249" lon="-4.42679">
        <ele>40.51</ele>
        <time>2014-08-22T10:09:30Z</time>
      </trkpt>
      <trkpt lat="48.04232" lon="-4.4267">
        <ele>39.07</ele>
        <time>2014-08-22T10:09:49Z</time>
      </trkpt>
      <trkpt lat="48.04225" lon="-4.42668">
        <ele>37.63</ele>
        <time>2014-08-22T10:09:57Z</time>
      </trkpt>
      <trkpt lat="48.04217" lon="-4.42665">
        <ele>36.19</ele>
        <time>2014-08-22T10:10:07Z</time>
      </trkpt>
      <trkpt lat="48.04213" lon="-4.42658">
        <ele>35.71</ele>
        <time>2014-08-22T10:10:13Z</time>
      </trkpt>
      <trkpt lat="48.04205" lon="-4.42645">
        <ele>34.74</ele>
        <time>2014-08-22T10:10:25Z</time>
      </trkpt>
      <trkpt lat="48.04201" lon="-4.42622">
        <ele>32.82</ele>
        <time>2014-08-22T10:10:39Z</time>
      </trkpt>
      <trkpt lat="48.04197" lon="-4.42608">
        <ele>32.34</ele>
        <time>2014-08-22T10:10:48Z</time>
      </trkpt>
      <trkpt lat="48.04196" lon="-4.42603">
        <ele>32.82</ele>
        <time>2014-08-22T10:11:02Z</time>
      </trkpt>
      <trkpt lat="48.04195" lon="-4.42596">
        <ele>32.34</ele>
        <time>2014-08-22T10:11:14Z</time>
      </trkpt>
      <trkpt lat="48.04192" lon="-4.42576">
        <ele>33.3</ele>
        <time>2014-08-22T10:11:26Z</time>
      </trkpt>
      <trkpt lat="48.0419" lon="-4.42569">
        <ele>33.78</ele>
        <time>2014-08-22T10:11:30Z</time>
      </trkpt>
      <trkpt lat="48.04189" lon="-4.42544">
        <ele>33.3</ele>
        <time>2014-08-22T10:11:44Z</time>
      </trkpt>
      <trkpt lat="48.04188" lon="-4.42539">
        <ele>33.78</ele>
        <time>2014-08-22T10:11:46Z</time>
      </trkpt>
      <trkpt lat="48.04181" lon="-4.42521">
        <ele>31.86</ele>
        <time>2014-08-22T10:12:02Z</time>
      </trkpt>
      <trkpt lat="48.0417" lon="-4.42503">
        <ele>27.05</ele>
        <time>2014-08-22T10:12:15Z</time>
      </trkpt>
      <trkpt lat="48.0416" lon="-4.42475">
        <ele>23.21</ele>
        <time>2014-08-22T10:12:32Z</time>
      </trkpt>
      <trkpt lat="48.04153" lon="-4.42434">
        <ele>22.73</ele>
        <time>2014-08-22T10:12:50Z</time>
      </trkpt>
      <trkpt lat="48.04151" lon="-4.42427">
        <ele>23.21</ele>
        <time>2014-08-22T10:12:54Z</time>
      </trkpt>
      <trkpt lat="48.0415" lon="-4.42398">
        <ele>24.65</ele>
        <time>2014-08-22T10:13:10Z</time>
      </trkpt>
      <trkpt lat="48.04147" lon="-4.42373">
        <ele>26.57</ele>
        <time>2014-08-22T10:13:22Z</time>
      </trkpt>
      <trkpt lat="48.04147" lon="-4.42363">
        <ele>26.09</ele>
        <time>2014-08-22T10:13:29Z</time>
      </trkpt>
      <trkpt lat="48.04148" lon="-4.42334">
        <ele>22.73</ele>
        <time>2014-08-22T10:13:46Z</time>
      </trkpt>
      <trkpt lat="48.04145" lon="-4.42307">
        <ele>18.4</ele>
        <time>2014-08-22T10:14:02Z</time>
      </trkpt>
      <trkpt lat="48.04146" lon="-4.42295">
        <ele>16</ele>
        <time>2014-08-22T10:14:07Z</time>
      </trkpt>
      <trkpt lat="48.04154" lon="-4.42267">
        <ele>14.56</ele>
        <time>2014-08-22T10:14:22Z</time>
      </trkpt>
      <trkpt lat="48.04168" lon="-4.42253">
        <ele>18.88</ele>
        <time>2014-08-22T10:14:35Z</time>
      </trkpt>
      <trkpt lat="48.04179" lon="-4.42247">
        <ele>19.84</ele>
        <time>2014-08-22T10:14:47Z</time>
      </trkpt>
      <trkpt lat="48.04189" lon="-4.42235">
        <ele>23.21</ele>
        <time>2014-08-22T10:14:57Z</time>
      </trkpt>
      <trkpt lat="48.04187" lon="-4.42224">
        <ele>24.65</ele>
        <time>2014-08-22T10:15:08Z</time>
      </trkpt>
      <trkpt lat="48.04184" lon="-4.42222">
        <ele>24.17</ele>
        <time>2014-08-22T10:15:12Z</time>
      </trkpt>
      <trkpt lat="48.04166" lon="-4.42207">
        <ele>22.25</ele>
        <time>2014-08-22T10:15:27Z</time>
      </trkpt>
      <trkpt lat="48.04162" lon="-4.42201">
        <ele>23.21</ele>
        <time>2014-08-22T10:15:30Z</time>
      </trkpt>
      <trkpt lat="48.04152" lon="-4.42182">
        <ele>23.21</ele>
        <time>2014-08-22T10:15:43Z</time>
      </trkpt>
      <trkpt lat="48.04148" lon="-4.42166">
        <ele>25.61</ele>
        <time>2014-08-22T10:15:55Z</time>
      </trkpt>
      <trkpt lat="48.04148" lon="-4.42164">
        <ele>25.61</ele>
        <time>2014-08-22T10:15:56Z</time>
      </trkpt>
      <trkpt lat="48.04146" lon="-4.42144">
        <ele>27.53</ele>
        <time>2014-08-22T10:16:08Z</time>
      </trkpt>
      <trkpt lat="48.04147" lon="-4.4212">
        <ele>27.05</ele>
        <time>2014-08-22T10:16:22Z</time>
      </trkpt>
      <trkpt lat="48.04146" lon="-4.42101">
        <ele>27.53</ele>
        <time>2014-08-22T10:16:33Z</time>
      </trkpt>
      <trkpt lat="48.04146" lon="-4.42095">
        <ele>27.53</ele>
        <time>2014-08-22T10:16:37Z</time>
      </trkpt>
      <trkpt lat="48.04145" lon="-4.42083">
        <ele>27.05</ele>
        <time>2014-08-22T10:16:44Z</time>
      </trkpt>
      <trkpt lat="48.04144" lon="-4.42075">
        <ele>26.57</ele>
        <time>2014-08-22T10:16:48Z</time>
      </trkpt>
      <trkpt lat="48.04145" lon="-4.4206">
        <ele>27.53</ele>
        <time>2014-08-22T10:16:58Z</time>
      </trkpt>
      <trkpt lat="48.04145" lon="-4.42052">
        <ele>28.98</ele>
        <time>2014-08-22T10:17:02Z</time>
      </trkpt>
      <trkpt lat="48.04143" lon="-4.42032">
        <ele>29.94</ele>
        <time>2014-08-22T10:17:12Z</time>
      </trkpt>
      <trkpt lat="48.04142" lon="-4.42017">
        <ele>29.94</ele>
        <time>2014-08-22T10:17:21Z</time>
      </trkpt>
      <trkpt lat="48.04143" lon="-4.41995">
        <ele>32.82</ele>
        <time>2014-08-22T10:17:33Z</time>
      </trkpt>
      <trkpt lat="48.04142" lon="-4.41969">
        <ele>35.23</ele>
        <time>2014-08-22T10:17:47Z</time>
      </trkpt>
      <trkpt lat="48.04141" lon="-4.41944">
        <ele>36.19</ele>
        <time>2014-08-22T10:18:02Z</time>
      </trkpt>
      <trkpt lat="48.0414" lon="-4.41915">
        <ele>38.11</ele>
        <time>2014-08-22T10:18:16Z</time>
      </trkpt>
      <trkpt lat="48.04139" lon="-4.41899">
        <ele>37.15</ele>
        <time>2014-08-22T10:18:25Z</time>
      </trkpt>
      <trkpt lat="48.04139" lon="-4.41895">
        <ele>37.63</ele>
        <time>2014-08-22T10:18:28Z</time>
      </trkpt>
      <trkpt lat="48.04134" lon="-4.41865">
        <ele>39.07</ele>
        <time>2014-08-22T10:18:45Z</time>
      </trkpt>
      <trkpt lat="48.04132" lon="-4.41841">
        <ele>39.07</ele>
        <time>2014-08-22T10:18:58Z</time>
      </trkpt>
      <trkpt lat="48.04133" lon="-4.41817">
        <ele>40.51</ele>
        <time>2014-08-22T10:19:11Z</time>
      </trkpt>
      <trkpt lat="48.04133" lon="-4.4181">
        <ele>40.03</ele>
        <time>2014-08-22T10:19:15Z</time>
      </trkpt>
      <trkpt lat="48.04132" lon="-4.41783">
        <ele>40.51</ele>
        <time>2014-08-22T10:19:29Z</time>
      </trkpt>
      <trkpt lat="48.04131" lon="-4.41753">
        <ele>43.4</ele>
        <time>2014-08-22T10:19:45Z</time>
      </trkpt>
      <trkpt lat="48.04131" lon="-4.41721">
        <ele>45.8</ele>
        <time>2014-08-22T10:20:03Z</time>
      </trkpt>
      <trkpt lat="48.04129" lon="-4.41691">
        <ele>47.72</ele>
        <time>2014-08-22T10:20:19Z</time>
      </trkpt>
      <trkpt lat="48.04129" lon="-4.41666">
        <ele>47.72</ele>
        <time>2014-08-22T10:20:33Z</time>
      </trkpt>
      <trkpt lat="48.04128" lon="-4.41642">
        <ele>48.2</ele>
        <time>2014-08-22T10:20:46Z</time>
      </trkpt>
      <trkpt lat="48.04128" lon="-4.41613">
        <ele>48.2</ele>
        <time>2014-08-22T10:21:02Z</time>
      </trkpt>
      <trkpt lat="48.04128" lon="-4.41584">
        <ele>49.16</ele>
        <time>2014-08-22T10:21:17Z</time>
      </trkpt>
      <trkpt lat="48.04126" lon="-4.41558">
        <ele>50.13</ele>
        <time>2014-08-22T10:21:30Z</time>
      </trkpt>
      <trkpt lat="48.04127" lon="-4.4155">
        <ele>50.13</ele>
        <time>2014-08-22T10:21:34Z</time>
      </trkpt>
      <trkpt lat="48.04127" lon="-4.41543">
        <ele>50.13</ele>
        <time>2014-08-22T10:21:38Z</time>
      </trkpt>
      <trkpt lat="48.04129" lon="-4.41534">
        <ele>50.13</ele>
        <time>2014-08-22T10:21:43Z</time>
      </trkpt>
      <trkpt lat="48.04125" lon="-4.41505">
        <ele>48.2</ele>
        <time>2014-08-22T10:21:58Z</time>
      </trkpt>
      <trkpt lat="48.04122" lon="-4.41483">
        <ele>47.72</ele>
        <time>2014-08-22T10:22:12Z</time>
      </trkpt>
      <trkpt lat="48.04116" lon="-4.41452">
        <ele>48.68</ele>
        <time>2014-08-22T10:22:28Z</time>
      </trkpt>
      <trkpt lat="48.04107" lon="-4.41431">
        <ele>50.61</ele>
        <time>2014-08-22T10:22:41Z</time>
      </trkpt>
      <trkpt lat="48.04107" lon="-4.4143">
        <ele>50.61</ele>
        <time>2014-08-22T10:22:42Z</time>
      </trkpt>
      <trkpt lat="48.041" lon="-4.4141">
        <ele>51.09</ele>
        <time>2014-08-22T10:22:54Z</time>
      </trkpt>
      <trkpt lat="48.04091" lon="-4.41385">
        <ele>51.09</ele>
        <time>2014-08-22T10:23:09Z</time>
      </trkpt>
      <trkpt lat="48.04084" lon="-4.4136">
        <ele>51.09</ele>
        <time>2014-08-22T10:23:23Z</time>
      </trkpt>
      <trkpt lat="48.04076" lon="-4.41334">
        <ele>51.09</ele>
        <time>2014-08-22T10:23:38Z</time>
      </trkpt>
      <trkpt lat="48.04069" lon="-4.41306">
        <ele>51.57</ele>
        <time>2014-08-22T10:23:54Z</time>
      </trkpt>
      <trkpt lat="48.04065" lon="-4.41282">
        <ele>50.13</ele>
        <time>2014-08-22T10:24:10Z</time>
      </trkpt>
      <trkpt lat="48.0406" lon="-4.41259">
        <ele>49.16</ele>
        <time>2014-08-22T10:24:23Z</time>
      </trkpt>
      <trkpt lat="48.0406" lon="-4.41257">
        <ele>49.16</ele>
        <time>2014-08-22T10:24:24Z</time>
      </trkpt>
      <trkpt lat="48.0406" lon="-4.41253">
        <ele>48.68</ele>
        <time>2014-08-22T10:24:27Z</time>
      </trkpt>
      <trkpt lat="48.04058" lon="-4.41247">
        <ele>47.72</ele>
        <time>2014-08-22T10:24:30Z</time>
      </trkpt>
      <trkpt lat="48.04057" lon="-4.41239">
        <ele>46.76</ele>
        <time>2014-08-22T10:24:35Z</time>
      </trkpt>
      <trkpt lat="48.04058" lon="-4.41232">
        <ele>46.76</ele>
        <time>2014-08-22T10:24:40Z</time>
      </trkpt>
      <trkpt lat="48.04057" lon="-4.41224">
        <ele>46.28</ele>
        <time>2014-08-22T10:24:45Z</time>
      </trkpt>
      <trkpt lat="48.04051" lon="-4.41196">
        <ele>48.2</ele>
        <time>2014-08-22T10:24:58Z</time>
      </trkpt>
      <trkpt lat="48.04049" lon="-4.41188">
        <ele>48.2</ele>
        <time>2014-08-22T10:25:03Z</time>
      </trkpt>
      <trkpt lat="48.04043" lon="-4.41152">
        <ele>47.24</ele>
        <time>2014-08-22T10:25:24Z</time>
      </trkpt>
      <trkpt lat="48.04037" lon="-4.41122">
        <ele>48.2</ele>
        <time>2014-08-22T10:25:39Z</time>
      </trkpt>
      <trkpt lat="48.04034" lon="-4.41092">
        <ele>52.05</ele>
        <time>2014-08-22T10:25:55Z</time>
      </trkpt>
      <trkpt lat="48.04029" lon="-4.41065">
        <ele>51.09</ele>
        <time>2014-08-22T10:26:11Z</time>
      </trkpt>
      <trkpt lat="48.04024" lon="-4.4104">
        <ele>51.57</ele>
        <time>2014-08-22T10:26:24Z</time>
      </trkpt>
      <trkpt lat="48.04023" lon="-4.41033">
        <ele>52.53</ele>
        <time>2014-08-22T10:26:28Z</time>
      </trkpt>
      <trkpt lat="48.04016" lon="-4.41006">
        <ele>55.41</ele>
        <time>2014-08-22T10:26:44Z</time>
      </trkpt>
      <trkpt lat="48.04016" lon="-4.40991">
        <ele>55.41</ele>
        <time>2014-08-22T10:26:54Z</time>
      </trkpt>
      <trkpt lat="48.04016" lon="-4.40983">
        <ele>56.37</ele>
        <time>2014-08-22T10:26:58Z</time>
      </trkpt>
      <trkpt lat="48.04014" lon="-4.40963">
        <ele>56.37</ele>
        <time>2014-08-22T10:27:10Z</time>
      </trkpt>
      <trkpt lat="48.04013" lon="-4.40936">
        <ele>56.86</ele>
        <time>2014-08-22T10:27:26Z</time>
      </trkpt>
      <trkpt lat="48.04011" lon="-4.40913">
        <ele>58.78</ele>
        <time>2014-08-22T10:27:37Z</time>
      </trkpt>
      <trkpt lat="48.04009" lon="-4.40897">
        <ele>60.22</ele>
        <time>2014-08-22T10:27:48Z</time>
      </trkpt>
      <trkpt lat="48.04009" lon="-4.40866">
        <ele>61.66</ele>
        <time>2014-08-22T10:28:04Z</time>
      </trkpt>
      <trkpt lat="48.04006" lon="-4.40849">
        <ele>60.7</ele>
        <time>2014-08-22T10:28:14Z</time>
      </trkpt>
      <trkpt lat="48.04004" lon="-4.40838">
        <ele>60.7</ele>
        <time>2014-08-22T10:28:20Z</time>
      </trkpt>
      <trkpt lat="48.04002" lon="-4.40829">
        <ele>59.74</ele>
        <time>2014-08-22T10:28:26Z</time>
      </trkpt>
      <trkpt lat="48.04002" lon="-4.40812">
        <ele>58.3</ele>
        <time>2014-08-22T10:28:35Z</time>
      </trkpt>
      <trkpt lat="48.03999" lon="-4.40794">
        <ele>57.82</ele>
        <time>2014-08-22T10:28:46Z</time>
      </trkpt>
      <trkpt lat="48.03997" lon="-4.40786">
        <ele>58.3</ele>
        <time>2014-08-22T10:28:51Z</time>
      </trkpt>
      <trkpt lat="48.03995" lon="-4.40757">
        <ele>57.34</ele>
        <time>2014-08-22T10:29:06Z</time>
      </trkpt>
      <trkpt lat="48.03992" lon="-4.40736">
        <ele>56.37</ele>
        <time>2014-08-22T10:29:19Z</time>
      </trkpt>
      <trkpt lat="48.03991" lon="-4.4071">
        <ele>57.82</ele>
        <time>2014-08-22T10:29:32Z</time>
      </trkpt>
      <trkpt lat="48.0399" lon="-4.407">
        <ele>57.34</ele>
        <time>2014-08-22T10:29:38Z</time>
      </trkpt>
      <trkpt lat="48.03988" lon="-4.40687">
        <ele>57.82</ele>
        <time>2014-08-22T10:29:44Z</time>
      </trkpt>
      <trkpt lat="48.03987" lon="-4.4066">
        <ele>57.34</ele>
        <time>2014-08-22T10:29:59Z</time>
      </trkpt>
      <trkpt lat="48.03986" lon="-4.40634">
        <ele>57.82</ele>
        <time>2014-08-22T10:30:11Z</time>
      </trkpt>
      <trkpt lat="48.03983" lon="-4.40605">
        <ele>58.78</ele>
        <time>2014-08-22T10:30:27Z</time>
      </trkpt>
      <trkpt lat="48.03981" lon="-4.40591">
        <ele>58.78</ele>
        <time>2014-08-22T10:30:36Z</time>
      </trkpt>
      <trkpt lat="48.03981" lon="-4.40582">
        <ele>59.74</ele>
        <time>2014-08-22T10:30:52Z</time>
      </trkpt>
      <trkpt lat="48.03981" lon="-4.40564">
        <ele>59.74</ele>
        <time>2014-08-22T10:31:06Z</time>
      </trkpt>
      <trkpt lat="48.0398" lon="-4.40553">
        <ele>59.74</ele>
        <time>2014-08-22T10:31:14Z</time>
      </trkpt>
      <trkpt lat="48.03981" lon="-4.4055">
        <ele>59.74</ele>
        <time>2014-08-22T10:31:16Z</time>
      </trkpt>
      <trkpt lat="48.0398" lon="-4.40528">
        <ele>59.74</ele>
        <time>2014-08-22T10:31:33Z</time>
      </trkpt>
      <trkpt lat="48.0398" lon="-4.40499">
        <ele>59.74</ele>
        <time>2014-08-22T10:31:50Z</time>
      </trkpt>
      <trkpt lat="48.03981" lon="-4.40468">
        <ele>60.7</ele>
        <time>2014-08-22T10:32:08Z</time>
      </trkpt>
      <trkpt lat="48.03983" lon="-4.40448">
        <ele>60.22</ele>
        <time>2014-08-22T10:32:19Z</time>
      </trkpt>
      <trkpt lat="48.03981" lon="-4.40427">
        <ele>59.26</ele>
        <time>2014-08-22T10:32:32Z</time>
      </trkpt>
      <trkpt lat="48.03982" lon="-4.40415">
        <ele>59.74</ele>
        <time>2014-08-22T10:32:39Z</time>
      </trkpt>
      <trkpt lat="48.03982" lon="-4.40383">
        <ele>60.22</ele>
        <time>2014-08-22T10:32:54Z</time>
      </trkpt>
      <trkpt lat="48.03981" lon="-4.40356">
        <ele>60.7</ele>
        <time>2014-08-22T10:33:09Z</time>
      </trkpt>
      <trkpt lat="48.03981" lon="-4.40327">
        <ele>61.18</ele>
        <time>2014-08-22T10:33:23Z</time>
      </trkpt>
      <trkpt lat="48.03981" lon="-4.40299">
        <ele>61.66</ele>
        <time>2014-08-22T10:33:39Z</time>
      </trkpt>
      <trkpt lat="48.03981" lon="-4.40296">
        <ele>61.66</ele>
        <time>2014-08-22T10:33:51Z</time>
      </trkpt>
      <trkpt lat="48.03981" lon="-4.40282">
        <ele>62.14</ele>
        <time>2014-08-22T10:34:07Z</time>
      </trkpt>
      <trkpt lat="48.03981" lon="-4.40259">
        <ele>61.66</ele>
        <time>2014-08-22T10:34:19Z</time>
      </trkpt>
      <trkpt lat="48.03981" lon="-4.40227">
        <ele>62.14</ele>
        <time>2014-08-22T10:34:36Z</time>
      </trkpt>
      <trkpt lat="48.03981" lon="-4.40218">
        <ele>62.62</ele>
        <time>2014-08-22T10:34:41Z</time>
      </trkpt>
      <trkpt lat="48.03982" lon="-4.4021">
        <ele>62.62</ele>
        <time>2014-08-22T10:34:46Z</time>
      </trkpt>
      <trkpt lat="48.03982" lon="-4.40178">
        <ele>62.62</ele>
        <time>2014-08-22T10:35:04Z</time>
      </trkpt>
      <trkpt lat="48.03982" lon="-4.40157">
        <ele>63.1</ele>
        <time>2014-08-22T10:35:15Z</time>
      </trkpt>
      <trkpt lat="48.03982" lon="-4.40126">
        <ele>64.07</ele>
        <time>2014-08-22T10:35:32Z</time>
      </trkpt>
      <trkpt lat="48.03982" lon="-4.40097">
        <ele>65.51</ele>
        <time>2014-08-22T10:35:48Z</time>
      </trkpt>
      <trkpt lat="48.03982" lon="-4.40067">
        <ele>65.51</ele>
        <time>2014-08-22T10:36:04Z</time>
      </trkpt>
      <trkpt lat="48.03981" lon="-4.40053">
        <ele>66.47</ele>
        <time>2014-08-22T10:36:12Z</time>
      </trkpt>
      <trkpt lat="48.03981" lon="-4.40042">
        <ele>67.91</ele>
        <time>2014-08-22T10:36:18Z</time>
      </trkpt>
      <trkpt lat="48.03981" lon="-4.40012">
        <ele>68.39</ele>
        <time>2014-08-22T10:36:34Z</time>
      </trkpt>
      <trkpt lat="48.03979" lon="-4.39977">
        <ele>66.47</ele>
        <time>2014-08-22T10:36:52Z</time>
      </trkpt>
      <trkpt lat="48.03978" lon="-4.39946">
        <ele>65.51</ele>
        <time>2014-08-22T10:37:08Z</time>
      </trkpt>
      <trkpt lat="48.03975" lon="-4.39914">
        <ele>65.51</ele>
        <time>2014-08-22T10:37:25Z</time>
      </trkpt>
      <trkpt lat="48.03973" lon="-4.3988">
        <ele>65.99</ele>
        <time>2014-08-22T10:37:43Z</time>
      </trkpt>
      <trkpt lat="48.0397" lon="-4.39851">
        <ele>66.47</ele>
        <time>2014-08-22T10:37:59Z</time>
      </trkpt>
      <trkpt lat="48.03969" lon="-4.39824">
        <ele>66.95</ele>
        <time>2014-08-22T10:38:13Z</time>
      </trkpt>
      <trkpt lat="48.03966" lon="-4.39795">
        <ele>67.43</ele>
        <time>2014-08-22T10:38:29Z</time>
      </trkpt>
      <trkpt lat="48.03964" lon="-4.39767">
        <ele>67.91</ele>
        <time>2014-08-22T10:38:44Z</time>
      </trkpt>
      <trkpt lat="48.03961" lon="-4.39728">
        <ele>66.95</ele>
        <time>2014-08-22T10:39:05Z</time>
      </trkpt>
      <trkpt lat="48.03959" lon="-4.39699">
        <ele>66.95</ele>
        <time>2014-08-22T10:39:21Z</time>
      </trkpt>
      <trkpt lat="48.03958" lon="-4.39684">
        <ele>66.47</ele>
        <time>2014-08-22T10:39:29Z</time>
      </trkpt>
      <trkpt lat="48.03957" lon="-4.39681">
        <ele>66.47</ele>
        <time>2014-08-22T10:39:31Z</time>
      </trkpt>
      <trkpt lat="48.03953" lon="-4.39653">
        <ele>67.43</ele>
        <time>2014-08-22T10:39:46Z</time>
      </trkpt>
      <trkpt lat="48.03952" lon="-4.3965">
        <ele>66.95</ele>
        <time>2014-08-22T10:39:48Z</time>
      </trkpt>
      <trkpt lat="48.03937" lon="-4.39647">
        <ele>66.47</ele>
        <time>2014-08-22T10:40:01Z</time>
      </trkpt>
      <trkpt lat="48.03923" lon="-4.39647">
        <ele>65.51</ele>
        <time>2014-08-22T10:40:14Z</time>
      </trkpt>
      <trkpt lat="48.03908" lon="-4.39648">
        <ele>65.03</ele>
        <time>2014-08-22T10:40:25Z</time>
      </trkpt>
      <trkpt lat="48.03893" lon="-4.3965">
        <ele>63.58</ele>
        <time>2014-08-22T10:40:38Z</time>
      </trkpt>
      <trkpt lat="48.03888" lon="-4.39649">
        <ele>63.1</ele>
        <time>2014-08-22T10:40:42Z</time>
      </trkpt>
      <trkpt lat="48.03869" lon="-4.39648">
        <ele>62.62</ele>
        <time>2014-08-22T10:40:56Z</time>
      </trkpt>
      <trkpt lat="48.03852" lon="-4.39648">
        <ele>61.66</ele>
        <time>2014-08-22T10:41:10Z</time>
      </trkpt>
      <trkpt lat="48.0385" lon="-4.39648">
        <ele>61.66</ele>
        <time>2014-08-22T10:41:12Z</time>
      </trkpt>
      <trkpt lat="48.03841" lon="-4.39647">
        <ele>61.18</ele>
        <time>2014-08-22T10:41:19Z</time>
      </trkpt>
      <trkpt lat="48.0383" lon="-4.39647">
        <ele>59.74</ele>
        <time>2014-08-22T10:41:30Z</time>
      </trkpt>
      <trkpt lat="48.03823" lon="-4.39651">
        <ele>58.78</ele>
        <time>2014-08-22T10:41:36Z</time>
      </trkpt>
      <trkpt lat="48.03819" lon="-4.39659">
        <ele>58.3</ele>
        <time>2014-08-22T10:41:42Z</time>
      </trkpt>
      <trkpt lat="48.03815" lon="-4.39685">
        <ele>55.89</ele>
        <time>2014-08-22T10:41:56Z</time>
      </trkpt>
      <trkpt lat="48.03815" lon="-4.39692">
        <ele>54.93</ele>
        <time>2014-08-22T10:41:59Z</time>
      </trkpt>
      <trkpt lat="48.03814" lon="-4.39714">
        <ele>53.49</ele>
        <time>2014-08-22T10:42:12Z</time>
      </trkpt>
      <trkpt lat="48.03813" lon="-4.39747">
        <ele>51.09</ele>
        <time>2014-08-22T10:42:29Z</time>
      </trkpt>
      <trkpt lat="48.0381" lon="-4.39773">
        <ele>50.13</ele>
        <time>2014-08-22T10:42:46Z</time>
      </trkpt>
      <trkpt lat="48.03812" lon="-4.39799">
        <ele>48.68</ele>
        <time>2014-08-22T10:43:01Z</time>
      </trkpt>
      <trkpt lat="48.03808" lon="-4.3982">
        <ele>50.13</ele>
        <time>2014-08-22T10:43:17Z</time>
      </trkpt>
      <trkpt lat="48.0381" lon="-4.39846">
        <ele>47.24</ele>
        <time>2014-08-22T10:43:31Z</time>
      </trkpt>
      <trkpt lat="48.03807" lon="-4.39874">
        <ele>48.2</ele>
        <time>2014-08-22T10:43:44Z</time>
      </trkpt>
      <trkpt lat="48.03804" lon="-4.39897">
        <ele>47.72</ele>
        <time>2014-08-22T10:43:59Z</time>
      </trkpt>
      <trkpt lat="48.03802" lon="-4.3992">
        <ele>46.76</ele>
        <time>2014-08-22T10:44:14Z</time>
      </trkpt>
      <trkpt lat="48.03798" lon="-4.39939">
        <ele>46.28</ele>
        <time>2014-08-22T10:44:29Z</time>
      </trkpt>
      <trkpt lat="48.03795" lon="-4.39958">
        <ele>45.32</ele>
        <time>2014-08-22T10:44:43Z</time>
      </trkpt>
      <trkpt lat="48.03795" lon="-4.39962">
        <ele>45.32</ele>
        <time>2014-08-22T10:44:45Z</time>
      </trkpt>
      <trkpt lat="48.03787" lon="-4.39982">
        <ele>44.36</ele>
        <time>2014-08-22T10:45:00Z</time>
      </trkpt>
      <trkpt lat="48.03778" lon="-4.40009">
        <ele>41.95</ele>
        <time>2014-08-22T10:45:16Z</time>
      </trkpt>
      <trkpt lat="48.03773" lon="-4.4003">
        <ele>40.51</ele>
        <time>2014-08-22T10:45:28Z</time>
      </trkpt>
      <trkpt lat="48.03767" lon="-4.40045">
        <ele>40.51</ele>
        <time>2014-08-22T10:45:44Z</time>
      </trkpt>
      <trkpt lat="48.03757" lon="-4.40081">
        <ele>40.03</ele>
        <time>2014-08-22T10:45:59Z</time>
      </trkpt>
      <trkpt lat="48.03751" lon="-4.40101">
        <ele>39.07</ele>
        <time>2014-08-22T10:46:12Z</time>
      </trkpt>
      <trkpt lat="48.03744" lon="-4.40133">
        <ele>35.23</ele>
        <time>2014-08-22T10:46:27Z</time>
      </trkpt>
      <trkpt lat="48.03743" lon="-4.40136">
        <ele>34.74</ele>
        <time>2014-08-22T10:46:32Z</time>
      </trkpt>
      <trkpt lat="48.03736" lon="-4.40136">
        <ele>32.82</ele>
        <time>2014-08-22T10:46:47Z</time>
      </trkpt>
      <trkpt lat="48.0373" lon="-4.40135">
        <ele>30.9</ele>
        <time>2014-08-22T10:47:02Z</time>
      </trkpt>
      <trkpt lat="48.03718" lon="-4.40133">
        <ele>28.98</ele>
        <time>2014-08-22T10:47:13Z</time>
      </trkpt>
      <trkpt lat="48.03708" lon="-4.40131">
        <ele>27.53</ele>
        <time>2014-08-22T10:47:21Z</time>
      </trkpt>
      <trkpt lat="48.03689" lon="-4.40131">
        <ele>26.09</ele>
        <time>2014-08-22T10:47:37Z</time>
      </trkpt>
      <trkpt lat="48.03678" lon="-4.40141">
        <ele>25.13</ele>
        <time>2014-08-22T10:47:49Z</time>
      </trkpt>
      <trkpt lat="48.03664" lon="-4.4015">
        <ele>27.05</ele>
        <time>2014-08-22T10:48:00Z</time>
      </trkpt>
      <trkpt lat="48.0366" lon="-4.40153">
        <ele>27.53</ele>
        <time>2014-08-22T10:48:03Z</time>
      </trkpt>
      <trkpt lat="48.03655" lon="-4.40157">
        <ele>28.02</ele>
        <time>2014-08-22T10:48:08Z</time>
      </trkpt>
      <trkpt lat="48.03652" lon="-4.40161">
        <ele>28.02</ele>
        <time>2014-08-22T10:48:13Z</time>
      </trkpt>
      <trkpt lat="48.0364" lon="-4.40172">
        <ele>28.02</ele>
        <time>2014-08-22T10:48:29Z</time>
      </trkpt>
      <trkpt lat="48.03631" lon="-4.40181">
        <ele>28.98</ele>
        <time>2014-08-22T10:48:45Z</time>
      </trkpt>
      <trkpt lat="48.03607" lon="-4.40189">
        <ele>27.05</ele>
        <time>2014-08-22T10:49:02Z</time>
      </trkpt>
      <trkpt lat="48.03603" lon="-4.40189">
        <ele>27.53</ele>
        <time>2014-08-22T10:49:07Z</time>
      </trkpt>
      <trkpt lat="48.03588" lon="-4.40198">
        <ele>29.46</ele>
        <time>2014-08-22T10:49:22Z</time>
      </trkpt>
      <trkpt lat="48.03584" lon="-4.40207">
        <ele>28.98</ele>
        <time>2014-08-22T10:49:29Z</time>
      </trkpt>
      <trkpt lat="48.03577" lon="-4.4023">
        <ele>29.46</ele>
        <time>2014-08-22T10:49:42Z</time>
      </trkpt>
      <trkpt lat="48.03575" lon="-4.4024">
        <ele>30.42</ele>
        <time>2014-08-22T10:49:47Z</time>
      </trkpt>
      <trkpt lat="48.03573" lon="-4.40262">
        <ele>31.38</ele>
        <time>2014-08-22T10:50:01Z</time>
      </trkpt>
      <trkpt lat="48.03571" lon="-4.40283">
        <ele>31.86</ele>
        <time>2014-08-22T10:50:16Z</time>
      </trkpt>
      <trkpt lat="48.03566" lon="-4.40311">
        <ele>33.78</ele>
        <time>2014-08-22T10:50:30Z</time>
      </trkpt>
      <trkpt lat="48.03561" lon="-4.40331">
        <ele>33.78</ele>
        <time>2014-08-22T10:50:44Z</time>
      </trkpt>
      <trkpt lat="48.03557" lon="-4.40347">
        <ele>35.23</ele>
        <time>2014-08-22T10:50:57Z</time>
      </trkpt>
      <trkpt lat="48.03554" lon="-4.40361">
        <ele>36.67</ele>
        <time>2014-08-22T10:51:10Z</time>
      </trkpt>
      <trkpt lat="48.03551" lon="-4.40382">
        <ele>40.51</ele>
        <time>2014-08-22T10:51:21Z</time>
      </trkpt>
      <trkpt lat="48.03544" lon="-4.40403">
        <ele>42.92</ele>
        <time>2014-08-22T10:51:34Z</time>
      </trkpt>
      <trkpt lat="48.03539" lon="-4.40425">
        <ele>44.84</ele>
        <time>2014-08-22T10:51:49Z</time>
      </trkpt>
      <trkpt lat="48.03533" lon="-4.40434">
        <ele>45.32</ele>
        <time>2014-08-22T10:52:00Z</time>
      </trkpt>
      <trkpt lat="48.03525" lon="-4.40443">
        <ele>45.32</ele>
        <time>2014-08-22T10:52:08Z</time>
      </trkpt>
      <trkpt lat="48.03514" lon="-4.40454">
        <ele>44.36</ele>
        <time>2014-08-22T10:52:23Z</time>
      </trkpt>
      <trkpt lat="48.03506" lon="-4.40461">
        <ele>44.36</ele>
        <time>2014-08-22T10:52:35Z</time>
      </trkpt>
      <trkpt lat="48.03497" lon="-4.40468">
        <ele>42.92</ele>
        <time>2014-08-22T10:52:47Z</time>
      </trkpt>
      <trkpt lat="48.03488" lon="-4.40474">
        <ele>42.44</ele>
        <time>2014-08-22T10:53:00Z</time>
      </trkpt>
      <trkpt lat="48.03468" lon="-4.40475">
        <ele>40.03</ele>
        <time>2014-08-22T10:53:14Z</time>
      </trkpt>
      <trkpt lat="48.0346" lon="-4.40474">
        <ele>39.55</ele>
        <time>2014-08-22T10:53:28Z</time>
      </trkpt>
      <trkpt lat="48.03459" lon="-4.40475">
        <ele>40.99</ele>
        <time>2014-08-22T10:53:35Z</time>
      </trkpt>
      <trkpt lat="48.03457" lon="-4.40474">
        <ele>40.99</ele>
        <time>2014-08-22T10:53:37Z</time>
      </trkpt>
      <trkpt lat="48.03443" lon="-4.40464">
        <ele>38.59</ele>
        <time>2014-08-22T10:53:51Z</time>
      </trkpt>
      <trkpt lat="48.03427" lon="-4.40462">
        <ele>38.11</ele>
        <time>2014-08-22T10:54:09Z</time>
      </trkpt>
      <trkpt lat="48.03412" lon="-4.40472">
        <ele>43.88</ele>
        <time>2014-08-22T10:54:24Z</time>
      </trkpt>
      <trkpt lat="48.03412" lon="-4.40474">
        <ele>43.88</ele>
        <time>2014-08-22T10:54:25Z</time>
      </trkpt>
      <trkpt lat="48.03406" lon="-4.40499">
        <ele>48.2</ele>
        <time>2014-08-22T10:54:40Z</time>
      </trkpt>
      <trkpt lat="48.03404" lon="-4.40517">
        <ele>48.68</ele>
        <time>2014-08-22T10:54:54Z</time>
      </trkpt>
      <trkpt lat="48.03399" lon="-4.40536">
        <ele>49.16</ele>
        <time>2014-08-22T10:55:07Z</time>
      </trkpt>
      <trkpt lat="48.03396" lon="-4.40557">
        <ele>48.68</ele>
        <time>2014-08-22T10:55:20Z</time>
      </trkpt>
      <trkpt lat="48.03393" lon="-4.40569">
        <ele>48.2</ele>
        <time>2014-08-22T10:55:27Z</time>
      </trkpt>
      <trkpt lat="48.03389" lon="-4.40582">
        <ele>47.72</ele>
        <time>2014-08-22T10:55:34Z</time>
      </trkpt>
      <trkpt lat="48.03385" lon="-4.40604">
        <ele>47.72</ele>
        <time>2014-08-22T10:55:48Z</time>
      </trkpt>
      <trkpt lat="48.03384" lon="-4.40623">
        <ele>49.65</ele>
        <time>2014-08-22T10:56:02Z</time>
      </trkpt>
      <trkpt lat="48.03384" lon="-4.40627">
        <ele>51.09</ele>
        <time>2014-08-22T10:56:17Z</time>
      </trkpt>
      <trkpt lat="48.03388" lon="-4.40636">
        <ele>51.57</ele>
        <time>2014-08-22T10:56:31Z</time>
      </trkpt>
      <trkpt lat="48.03389" lon="-4.40636">
        <ele>52.05</ele>
        <time>2014-08-22T10:56:48Z</time>
      </trkpt>
      <trkpt lat="48.03388" lon="-4.40635">
        <ele>51.57</ele>
        <time>2014-08-22T10:57:05Z</time>
      </trkpt>
      <trkpt lat="48.03388" lon="-4.40635">
        <ele>52.05</ele>
        <time>2014-08-22T10:57:25Z</time>
      </trkpt>
      <trkpt lat="48.03389" lon="-4.40635">
        <ele>52.53</ele>
        <time>2014-08-22T10:57:44Z</time>
      </trkpt>
      <trkpt lat="48.03389" lon="-4.40634">
        <ele>52.53</ele>
        <time>2014-08-22T10:58:01Z</time>
      </trkpt>
      <trkpt lat="48.03386" lon="-4.40655">
        <ele>38.59</ele>
        <time>2014-08-22T11:35:40Z</time>
      </trkpt>
      <trkpt lat="48.03381" lon="-4.40685">
        <ele>31.38</ele>
        <time>2014-08-22T11:35:56Z</time>
      </trkpt>
      <trkpt lat="48.03389" lon="-4.40635">
        <ele>48.68</ele>
        <time>2014-08-22T11:36:13Z</time>
      </trkpt>
      <trkpt lat="48.03389" lon="-4.40634">
        <ele>50.61</ele>
        <time>2014-08-22T11:36:27Z</time>
      </trkpt>
      <trkpt lat="48.03389" lon="-4.40635">
        <ele>51.09</ele>
        <time>2014-08-22T11:36:38Z</time>
      </trkpt>
      <trkpt lat="48.03388" lon="-4.40635">
        <ele>51.57</ele>
        <time>2014-08-22T11:36:47Z</time>
      </trkpt>
      <trkpt lat="48.03388" lon="-4.40633">
        <ele>55.41</ele>
        <time>2014-08-22T11:37:03Z</time>
      </trkpt>
      <trkpt lat="48.03388" lon="-4.40631">
        <ele>55.89</ele>
        <time>2014-08-22T11:37:23Z</time>
      </trkpt>
      <trkpt lat="48.03388" lon="-4.40632">
        <ele>53.49</ele>
        <time>2014-08-22T11:37:40Z</time>
      </trkpt>
      <trkpt lat="48.03389" lon="-4.40633">
        <ele>52.53</ele>
        <time>2014-08-22T11:37:59Z</time>
      </trkpt>
      <trkpt lat="48.03389" lon="-4.40633">
        <ele>52.53</ele>
        <time>2014-08-22T11:38:17Z</time>
      </trkpt>
      <trkpt lat="48.03389" lon="-4.40633">
        <ele>51.57</ele>
        <time>2014-08-22T11:38:30Z</time>
      </trkpt>
      <trkpt lat="48.03389" lon="-4.40634">
        <ele>51.09</ele>
        <time>2014-08-22T11:38:46Z</time>
      </trkpt>
      <trkpt lat="48.03388" lon="-4.40636">
        <ele>50.61</ele>
        <time>2014-08-22T11:38:59Z</time>
      </trkpt>
      <trkpt lat="48.03388" lon="-4.40635">
        <ele>50.13</ele>
        <time>2014-08-22T11:39:11Z</time>
      </trkpt>
      <trkpt lat="48.03388" lon="-4.40635">
        <ele>50.13</ele>
        <time>2014-08-22T11:39:26Z</time>
      </trkpt>
      <trkpt lat="48.03388" lon="-4.40634">
        <ele>50.61</ele>
        <time>2014-08-22T11:39:42Z</time>
      </trkpt>
      <trkpt lat="48.03387" lon="-4.40634">
        <ele>50.61</ele>
        <time>2014-08-22T11:40:05Z</time>
      </trkpt>
      <trkpt lat="48.03387" lon="-4.40633">
        <ele>50.61</ele>
        <time>2014-08-22T11:40:24Z</time>
      </trkpt>
      <trkpt lat="48.03387" lon="-4.40633">
        <ele>51.09</ele>
        <time>2014-08-22T11:40:47Z</time>
      </trkpt>
      <trkpt lat="48.03387" lon="-4.40632">
        <ele>51.09</ele>
        <time>2014-08-22T11:41:09Z</time>
      </trkpt>
      <trkpt lat="48.03387" lon="-4.40631">
        <ele>51.09</ele>
        <time>2014-08-22T11:41:27Z</time>
      </trkpt>
      <trkpt lat="48.03385" lon="-4.40631">
        <ele>51.09</ele>
        <time>2014-08-22T11:41:45Z</time>
      </trkpt>
      <trkpt lat="48.03377" lon="-4.40622">
        <ele>50.13</ele>
        <time>2014-08-22T11:41:56Z</time>
      </trkpt>
      <trkpt lat="48.03372" lon="-4.40624">
        <ele>52.05</ele>
        <time>2014-08-22T11:42:03Z</time>
      </trkpt>
      <trkpt lat="48.0337" lon="-4.40623">
        <ele>52.53</ele>
        <time>2014-08-22T11:42:05Z</time>
      </trkpt>
      <trkpt lat="48.03359" lon="-4.40624">
        <ele>53.49</ele>
        <time>2014-08-22T11:42:19Z</time>
      </trkpt>
      <trkpt lat="48.03344" lon="-4.40625">
        <ele>53.49</ele>
        <time>2014-08-22T11:42:31Z</time>
      </trkpt>
      <trkpt lat="48.03323" lon="-4.40626">
        <ele>53.49</ele>
        <time>2014-08-22T11:42:48Z</time>
      </trkpt>
      <trkpt lat="48.03305" lon="-4.40623">
        <ele>53.97</ele>
        <time>2014-08-22T11:43:03Z</time>
      </trkpt>
      <trkpt lat="48.03303" lon="-4.4062">
        <ele>55.41</ele>
        <time>2014-08-22T11:43:18Z</time>
      </trkpt>
      <trkpt lat="48.03281" lon="-4.40618">
        <ele>55.89</ele>
        <time>2014-08-22T11:43:36Z</time>
      </trkpt>
      <trkpt lat="48.03272" lon="-4.40617">
        <ele>56.86</ele>
        <time>2014-08-22T11:43:45Z</time>
      </trkpt>
      <trkpt lat="48.03254" lon="-4.4061">
        <ele>57.82</ele>
        <time>2014-08-22T11:43:59Z</time>
      </trkpt>
      <trkpt lat="48.0324" lon="-4.40598">
        <ele>58.78</ele>
        <time>2014-08-22T11:44:13Z</time>
      </trkpt>
      <trkpt lat="48.03228" lon="-4.40587">
        <ele>59.26</ele>
        <time>2014-08-22T11:44:25Z</time>
      </trkpt>
      <trkpt lat="48.03216" lon="-4.40578">
        <ele>60.22</ele>
        <time>2014-08-22T11:44:37Z</time>
      </trkpt>
      <trkpt lat="48.03205" lon="-4.40569">
        <ele>61.66</ele>
        <time>2014-08-22T11:44:49Z</time>
      </trkpt>
      <trkpt lat="48.03202" lon="-4.40567">
        <ele>61.66</ele>
        <time>2014-08-22T11:44:51Z</time>
      </trkpt>
      <trkpt lat="48.03193" lon="-4.4056">
        <ele>62.14</ele>
        <time>2014-08-22T11:45:00Z</time>
      </trkpt>
      <trkpt lat="48.03191" lon="-4.40559">
        <ele>63.1</ele>
        <time>2014-08-22T11:45:02Z</time>
      </trkpt>
      <trkpt lat="48.03177" lon="-4.40552">
        <ele>66.47</ele>
        <time>2014-08-22T11:45:15Z</time>
      </trkpt>
      <trkpt lat="48.03173" lon="-4.40549">
        <ele>66.47</ele>
        <time>2014-08-22T11:45:20Z</time>
      </trkpt>
      <trkpt lat="48.03159" lon="-4.40543">
        <ele>66.95</ele>
        <time>2014-08-22T11:45:32Z</time>
      </trkpt>
      <trkpt lat="48.03141" lon="-4.40535">
        <ele>68.87</ele>
        <time>2014-08-22T11:45:48Z</time>
      </trkpt>
      <trkpt lat="48.03128" lon="-4.4053">
        <ele>67.91</ele>
        <time>2014-08-22T11:46:00Z</time>
      </trkpt>
      <trkpt lat="48.03112" lon="-4.40523">
        <ele>70.31</ele>
        <time>2014-08-22T11:46:14Z</time>
      </trkpt>
      <trkpt lat="48.03102" lon="-4.40517">
        <ele>69.35</ele>
        <time>2014-08-22T11:46:26Z</time>
      </trkpt>
      <trkpt lat="48.03101" lon="-4.40514">
        <ele>68.87</ele>
        <time>2014-08-22T11:46:32Z</time>
      </trkpt>
      <trkpt lat="48.031" lon="-4.40507">
        <ele>68.39</ele>
        <time>2014-08-22T11:46:37Z</time>
      </trkpt>
      <trkpt lat="48.03102" lon="-4.40489">
        <ele>70.31</ele>
        <time>2014-08-22T11:46:50Z</time>
      </trkpt>
      <trkpt lat="48.03103" lon="-4.40482">
        <ele>70.31</ele>
        <time>2014-08-22T11:46:54Z</time>
      </trkpt>
      <trkpt lat="48.03104" lon="-4.40454">
        <ele>68.39</ele>
        <time>2014-08-22T11:47:09Z</time>
      </trkpt>
      <trkpt lat="48.03107" lon="-4.40435">
        <ele>68.39</ele>
        <time>2014-08-22T11:47:19Z</time>
      </trkpt>
      <trkpt lat="48.03108" lon="-4.40413">
        <ele>66.47</ele>
        <time>2014-08-22T11:47:32Z</time>
      </trkpt>
      <trkpt lat="48.0311" lon="-4.40386">
        <ele>65.99</ele>
        <time>2014-08-22T11:47:47Z</time>
      </trkpt>
      <trkpt lat="48.03112" lon="-4.40359">
        <ele>66.47</ele>
        <time>2014-08-22T11:48:03Z</time>
      </trkpt>
      <trkpt lat="48.03113" lon="-4.40337">
        <ele>65.03</ele>
        <time>2014-08-22T11:48:16Z</time>
      </trkpt>
      <trkpt lat="48.03115" lon="-4.40314">
        <ele>64.07</ele>
        <time>2014-08-22T11:48:29Z</time>
      </trkpt>
      <trkpt lat="48.03116" lon="-4.40312">
        <ele>64.07</ele>
        <time>2014-08-22T11:48:30Z</time>
      </trkpt>
      <trkpt lat="48.03116" lon="-4.40289">
        <ele>61.18</ele>
        <time>2014-08-22T11:48:43Z</time>
      </trkpt>
      <trkpt lat="48.03116" lon="-4.40277">
        <ele>60.22</ele>
        <time>2014-08-22T11:48:50Z</time>
      </trkpt>
      <trkpt lat="48.03118" lon="-4.40254">
        <ele>58.78</ele>
        <time>2014-08-22T11:49:04Z</time>
      </trkpt>
      <trkpt lat="48.03117" lon="-4.40226">
        <ele>58.3</ele>
        <time>2014-08-22T11:49:18Z</time>
      </trkpt>
      <trkpt lat="48.03118" lon="-4.40217">
        <ele>60.22</ele>
        <time>2014-08-22T11:49:32Z</time>
      </trkpt>
      <trkpt lat="48.03118" lon="-4.40205">
        <ele>63.1</ele>
        <time>2014-08-22T11:49:42Z</time>
      </trkpt>
      <trkpt lat="48.03121" lon="-4.40176">
        <ele>65.51</ele>
        <time>2014-08-22T11:49:58Z</time>
      </trkpt>
      <trkpt lat="48.03122" lon="-4.40148">
        <ele>63.1</ele>
        <time>2014-08-22T11:50:12Z</time>
      </trkpt>
      <trkpt lat="48.0312" lon="-4.40137">
        <ele>61.18</ele>
        <time>2014-08-22T11:50:21Z</time>
      </trkpt>
      <trkpt lat="48.0311" lon="-4.40119">
        <ele>61.18</ele>
        <time>2014-08-22T11:50:33Z</time>
      </trkpt>
      <trkpt lat="48.03103" lon="-4.40119">
        <ele>63.1</ele>
        <time>2014-08-22T11:50:40Z</time>
      </trkpt>
      <trkpt lat="48.03096" lon="-4.40117">
        <ele>64.07</ele>
        <time>2014-08-22T11:50:47Z</time>
      </trkpt>
      <trkpt lat="48.03077" lon="-4.40116">
        <ele>66.95</ele>
        <time>2014-08-22T11:51:01Z</time>
      </trkpt>
      <trkpt lat="48.03063" lon="-4.40113">
        <ele>67.91</ele>
        <time>2014-08-22T11:51:13Z</time>
      </trkpt>
      <trkpt lat="48.03047" lon="-4.40112">
        <ele>70.31</ele>
        <time>2014-08-22T11:51:28Z</time>
      </trkpt>
      <trkpt lat="48.03032" lon="-4.40108">
        <ele>69.35</ele>
        <time>2014-08-22T11:51:41Z</time>
      </trkpt>
      <trkpt lat="48.03015" lon="-4.40107">
        <ele>69.83</ele>
        <time>2014-08-22T11:51:55Z</time>
      </trkpt>
      <trkpt lat="48.02999" lon="-4.40105">
        <ele>70.31</ele>
        <time>2014-08-22T11:52:09Z</time>
      </trkpt>
      <trkpt lat="48.0298" lon="-4.40102">
        <ele>69.35</ele>
        <time>2014-08-22T11:52:25Z</time>
      </trkpt>
      <trkpt lat="48.02965" lon="-4.40089">
        <ele>72.72</ele>
        <time>2014-08-22T11:52:40Z</time>
      </trkpt>
      <trkpt lat="48.02943" lon="-4.40077">
        <ele>69.35</ele>
        <time>2014-08-22T11:52:59Z</time>
      </trkpt>
      <trkpt lat="48.02933" lon="-4.40066">
        <ele>69.83</ele>
        <time>2014-08-22T11:53:10Z</time>
      </trkpt>
      <trkpt lat="48.02929" lon="-4.40054">
        <ele>69.35</ele>
        <time>2014-08-22T11:53:19Z</time>
      </trkpt>
      <trkpt lat="48.02925" lon="-4.40027">
        <ele>68.39</ele>
        <time>2014-08-22T11:53:37Z</time>
      </trkpt>
      <trkpt lat="48.0292" lon="-4.39999">
        <ele>67.43</ele>
        <time>2014-08-22T11:53:52Z</time>
      </trkpt>
      <trkpt lat="48.02915" lon="-4.39973">
        <ele>65.99</ele>
        <time>2014-08-22T11:54:06Z</time>
      </trkpt>
      <trkpt lat="48.02907" lon="-4.39942">
        <ele>65.51</ele>
        <time>2014-08-22T11:54:22Z</time>
      </trkpt>
      <trkpt lat="48.02898" lon="-4.3991">
        <ele>65.99</ele>
        <time>2014-08-22T11:54:37Z</time>
      </trkpt>
      <trkpt lat="48.029" lon="-4.39896">
        <ele>68.87</ele>
        <time>2014-08-22T11:54:51Z</time>
      </trkpt>
      <trkpt lat="48.02901" lon="-4.39883">
        <ele>70.79</ele>
        <time>2014-08-22T11:54:58Z</time>
      </trkpt>
      <trkpt lat="48.02892" lon="-4.39845">
        <ele>70.31</ele>
        <time>2014-08-22T11:55:14Z</time>
      </trkpt>
      <trkpt lat="48.02885" lon="-4.39823">
        <ele>71.76</ele>
        <time>2014-08-22T11:55:29Z</time>
      </trkpt>
      <trkpt lat="48.02879" lon="-4.39798">
        <ele>71.27</ele>
        <time>2014-08-22T11:55:42Z</time>
      </trkpt>
      <trkpt lat="48.02874" lon="-4.39781">
        <ele>74.16</ele>
        <time>2014-08-22T11:55:54Z</time>
      </trkpt>
      <trkpt lat="48.02868" lon="-4.39758">
        <ele>72.72</ele>
        <time>2014-08-22T11:56:08Z</time>
      </trkpt>
      <trkpt lat="48.02857" lon="-4.39724">
        <ele>65.03</ele>
        <time>2014-08-22T11:56:24Z</time>
      </trkpt>
      <trkpt lat="48.02852" lon="-4.39702">
        <ele>62.62</ele>
        <time>2014-08-22T11:56:36Z</time>
      </trkpt>
      <trkpt lat="48.02853" lon="-4.39675">
        <ele>55.41</ele>
        <time>2014-08-22T11:56:50Z</time>
      </trkpt>
      <trkpt lat="48.02853" lon="-4.39653">
        <ele>53.97</ele>
        <time>2014-08-22T11:57:02Z</time>
      </trkpt>
      <trkpt lat="48.02856" lon="-4.39622">
        <ele>51.57</ele>
        <time>2014-08-22T11:57:19Z</time>
      </trkpt>
      <trkpt lat="48.02856" lon="-4.39598">
        <ele>49.65</ele>
        <time>2014-08-22T11:57:33Z</time>
      </trkpt>
      <trkpt lat="48.02856" lon="-4.39567">
        <ele>45.8</ele>
        <time>2014-08-22T11:57:49Z</time>
      </trkpt>
      <trkpt lat="48.02859" lon="-4.39536">
        <ele>44.84</ele>
        <time>2014-08-22T11:58:04Z</time>
      </trkpt>
      <trkpt lat="48.02858" lon="-4.39512">
        <ele>44.84</ele>
        <time>2014-08-22T11:58:16Z</time>
      </trkpt>
      <trkpt lat="48.02858" lon="-4.3948">
        <ele>36.19</ele>
        <time>2014-08-22T11:58:34Z</time>
      </trkpt>
      <trkpt lat="48.02864" lon="-4.39453">
        <ele>31.86</ele>
        <time>2014-08-22T11:58:50Z</time>
      </trkpt>
      <trkpt lat="48.02866" lon="-4.39446">
        <ele>30.9</ele>
        <time>2014-08-22T11:58:54Z</time>
      </trkpt>
      <trkpt lat="48.02874" lon="-4.39425">
        <ele>25.13</ele>
        <time>2014-08-22T11:59:11Z</time>
      </trkpt>
      <trkpt lat="48.02876" lon="-4.39414">
        <ele>24.65</ele>
        <time>2014-08-22T11:59:15Z</time>
      </trkpt>
      <trkpt lat="48.02887" lon="-4.39383">
        <ele>19.84</ele>
        <time>2014-08-22T11:59:35Z</time>
      </trkpt>
      <trkpt lat="48.02893" lon="-4.39349">
        <ele>23.21</ele>
        <time>2014-08-22T11:59:50Z</time>
      </trkpt>
      <trkpt lat="48.02901" lon="-4.39335">
        <ele>26.57</ele>
        <time>2014-08-22T12:00:02Z</time>
      </trkpt>
      <trkpt lat="48.02905" lon="-4.39331">
        <ele>27.05</ele>
        <time>2014-08-22T12:00:05Z</time>
      </trkpt>
      <trkpt lat="48.02924" lon="-4.39321">
        <ele>29.94</ele>
        <time>2014-08-22T12:00:20Z</time>
      </trkpt>
      <trkpt lat="48.02934" lon="-4.39301">
        <ele>29.46</ele>
        <time>2014-08-22T12:00:35Z</time>
      </trkpt>
      <trkpt lat="48.02937" lon="-4.39276">
        <ele>30.42</ele>
        <time>2014-08-22T12:00:48Z</time>
      </trkpt>
      <trkpt lat="48.0294" lon="-4.39269">
        <ele>30.9</ele>
        <time>2014-08-22T12:00:52Z</time>
      </trkpt>
      <trkpt lat="48.0294" lon="-4.39251">
        <ele>30.42</ele>
        <time>2014-08-22T12:01:02Z</time>
      </trkpt>
      <trkpt lat="48.02923" lon="-4.3924">
        <ele>29.94</ele>
        <time>2014-08-22T12:01:17Z</time>
      </trkpt>
      <trkpt lat="48.02912" lon="-4.39228">
        <ele>31.86</ele>
        <time>2014-08-22T12:01:30Z</time>
      </trkpt>
      <trkpt lat="48.02906" lon="-4.3922">
        <ele>31.86</ele>
        <time>2014-08-22T12:01:36Z</time>
      </trkpt>
      <trkpt lat="48.0289" lon="-4.39212">
        <ele>30.42</ele>
        <time>2014-08-22T12:01:50Z</time>
      </trkpt>
      <trkpt lat="48.0288" lon="-4.39224">
        <ele>30.9</ele>
        <time>2014-08-22T12:02:01Z</time>
      </trkpt>
      <trkpt lat="48.02868" lon="-4.39245">
        <ele>31.86</ele>
        <time>2014-08-22T12:02:22Z</time>
      </trkpt>
      <trkpt lat="48.02853" lon="-4.39268">
        <ele>31.38</ele>
        <time>2014-08-22T12:02:38Z</time>
      </trkpt>
      <trkpt lat="48.02839" lon="-4.39283">
        <ele>32.34</ele>
        <time>2014-08-22T12:02:54Z</time>
      </trkpt>
      <trkpt lat="48.02823" lon="-4.39296">
        <ele>34.26</ele>
        <time>2014-08-22T12:03:09Z</time>
      </trkpt>
      <trkpt lat="48.02821" lon="-4.39296">
        <ele>34.74</ele>
        <time>2014-08-22T12:03:11Z</time>
      </trkpt>
      <trkpt lat="48.0281" lon="-4.39293">
        <ele>36.67</ele>
        <time>2014-08-22T12:03:26Z</time>
      </trkpt>
      <trkpt lat="48.02804" lon="-4.39287">
        <ele>38.11</ele>
        <time>2014-08-22T12:03:31Z</time>
      </trkpt>
      <trkpt lat="48.02803" lon="-4.39263">
        <ele>37.15</ele>
        <time>2014-08-22T12:03:46Z</time>
      </trkpt>
      <trkpt lat="48.02804" lon="-4.39236">
        <ele>35.71</ele>
        <time>2014-08-22T12:04:03Z</time>
      </trkpt>
      <trkpt lat="48.02803" lon="-4.39211">
        <ele>34.26</ele>
        <time>2014-08-22T12:04:17Z</time>
      </trkpt>
      <trkpt lat="48.02801" lon="-4.39188">
        <ele>32.82</ele>
        <time>2014-08-22T12:04:31Z</time>
      </trkpt>
      <trkpt lat="48.02798" lon="-4.39156">
        <ele>33.3</ele>
        <time>2014-08-22T12:04:47Z</time>
      </trkpt>
      <trkpt lat="48.02793" lon="-4.39124">
        <ele>37.15</ele>
        <time>2014-08-22T12:05:02Z</time>
      </trkpt>
      <trkpt lat="48.02793" lon="-4.39122">
        <ele>37.63</ele>
        <time>2014-08-22T12:05:03Z</time>
      </trkpt>
      <trkpt lat="48.02791" lon="-4.39095">
        <ele>40.99</ele>
        <time>2014-08-22T12:05:18Z</time>
      </trkpt>
      <trkpt lat="48.02788" lon="-4.39078">
        <ele>42.92</ele>
        <time>2014-08-22T12:05:31Z</time>
      </trkpt>
      <trkpt lat="48.02785" lon="-4.39066">
        <ele>42.44</ele>
        <time>2014-08-22T12:05:38Z</time>
      </trkpt>
      <trkpt lat="48.0278" lon="-4.39041">
        <ele>41.95</ele>
        <time>2014-08-22T12:05:51Z</time>
      </trkpt>
      <trkpt lat="48.02777" lon="-4.39021">
        <ele>41.47</ele>
        <time>2014-08-22T12:06:02Z</time>
      </trkpt>
      <trkpt lat="48.02777" lon="-4.39018">
        <ele>41.95</ele>
        <time>2014-08-22T12:06:04Z</time>
      </trkpt>
      <trkpt lat="48.02774" lon="-4.39004">
        <ele>40.99</ele>
        <time>2014-08-22T12:06:11Z</time>
      </trkpt>
      <trkpt lat="48.02772" lon="-4.38981">
        <ele>40.03</ele>
        <time>2014-08-22T12:06:26Z</time>
      </trkpt>
      <trkpt lat="48.02765" lon="-4.38938">
        <ele>39.07</ele>
        <time>2014-08-22T12:06:41Z</time>
      </trkpt>
      <trkpt lat="48.02764" lon="-4.38911">
        <ele>36.67</ele>
        <time>2014-08-22T12:06:55Z</time>
      </trkpt>
      <trkpt lat="48.02762" lon="-4.38894">
        <ele>35.71</ele>
        <time>2014-08-22T12:07:07Z</time>
      </trkpt>
      <trkpt lat="48.02758" lon="-4.38875">
        <ele>36.19</ele>
        <time>2014-08-22T12:07:21Z</time>
      </trkpt>
      <trkpt lat="48.0276" lon="-4.38866">
        <ele>37.15</ele>
        <time>2014-08-22T12:07:33Z</time>
      </trkpt>
      <trkpt lat="48.02756" lon="-4.3885">
        <ele>39.55</ele>
        <time>2014-08-22T12:07:45Z</time>
      </trkpt>
      <trkpt lat="48.02751" lon="-4.38835">
        <ele>40.03</ele>
        <time>2014-08-22T12:07:56Z</time>
      </trkpt>
      <trkpt lat="48.02744" lon="-4.38814">
        <ele>38.59</ele>
        <time>2014-08-22T12:08:12Z</time>
      </trkpt>
      <trkpt lat="48.02741" lon="-4.38784">
        <ele>38.11</ele>
        <time>2014-08-22T12:08:28Z</time>
      </trkpt>
      <trkpt lat="48.02739" lon="-4.38774">
        <ele>38.11</ele>
        <time>2014-08-22T12:08:44Z</time>
      </trkpt>
      <trkpt lat="48.02735" lon="-4.38762">
        <ele>37.15</ele>
        <time>2014-08-22T12:08:57Z</time>
      </trkpt>
      <trkpt lat="48.0273" lon="-4.38742">
        <ele>35.71</ele>
        <time>2014-08-22T12:09:13Z</time>
      </trkpt>
      <trkpt lat="48.02727" lon="-4.38727">
        <ele>34.26</ele>
        <time>2014-08-22T12:09:28Z</time>
      </trkpt>
      <trkpt lat="48.0272" lon="-4.3871">
        <ele>39.07</ele>
        <time>2014-08-22T12:09:45Z</time>
      </trkpt>
      <trkpt lat="48.02702" lon="-4.3868">
        <ele>40.03</ele>
        <time>2014-08-22T12:10:00Z</time>
      </trkpt>
      <trkpt lat="48.02697" lon="-4.38674">
        <ele>40.99</ele>
        <time>2014-08-22T12:10:15Z</time>
      </trkpt>
      <trkpt lat="48.02689" lon="-4.3866">
        <ele>40.99</ele>
        <time>2014-08-22T12:10:31Z</time>
      </trkpt>
      <trkpt lat="48.02679" lon="-4.38641">
        <ele>40.03</ele>
        <time>2014-08-22T12:10:46Z</time>
      </trkpt>
      <trkpt lat="48.02678" lon="-4.38633">
        <ele>41.95</ele>
        <time>2014-08-22T12:11:03Z</time>
      </trkpt>
      <trkpt lat="48.0268" lon="-4.38632">
        <ele>42.92</ele>
        <time>2014-08-22T12:11:23Z</time>
      </trkpt>
      <trkpt lat="48.02679" lon="-4.38637">
        <ele>44.84</ele>
        <time>2014-08-22T12:11:40Z</time>
      </trkpt>
      <trkpt lat="48.0268" lon="-4.38636">
        <ele>45.8</ele>
        <time>2014-08-22T12:12:04Z</time>
      </trkpt>
      <trkpt lat="48.02675" lon="-4.38613">
        <ele>46.76</ele>
        <time>2014-08-22T12:12:21Z</time>
      </trkpt>
      <trkpt lat="48.02663" lon="-4.38597">
        <ele>44.84</ele>
        <time>2014-08-22T12:12:37Z</time>
      </trkpt>
      <trkpt lat="48.02651" lon="-4.38566">
        <ele>45.8</ele>
        <time>2014-08-22T12:12:55Z</time>
      </trkpt>
      <trkpt lat="48.02652" lon="-4.38568">
        <ele>46.76</ele>
        <time>2014-08-22T12:13:02Z</time>
      </trkpt>
      <trkpt lat="48.02661" lon="-4.38589">
        <ele>45.32</ele>
        <time>2014-08-22T12:13:16Z</time>
      </trkpt>
      <trkpt lat="48.02667" lon="-4.38602">
        <ele>43.88</ele>
        <time>2014-08-22T12:13:30Z</time>
      </trkpt>
      <trkpt lat="48.02678" lon="-4.38602">
        <ele>42.44</ele>
        <time>2014-08-22T12:13:45Z</time>
      </trkpt>
      <trkpt lat="48.02684" lon="-4.38587">
        <ele>42.44</ele>
        <time>2014-08-22T12:13:57Z</time>
      </trkpt>
      <trkpt lat="48.0269" lon="-4.38571">
        <ele>40.51</ele>
        <time>2014-08-22T12:14:13Z</time>
      </trkpt>
      <trkpt lat="48.02692" lon="-4.38564">
        <ele>38.11</ele>
        <time>2014-08-22T12:14:29Z</time>
      </trkpt>
      <trkpt lat="48.02697" lon="-4.3855">
        <ele>33.3</ele>
        <time>2014-08-22T12:14:46Z</time>
      </trkpt>
      <trkpt lat="48.02698" lon="-4.3853">
        <ele>26.09</ele>
        <time>2014-08-22T12:15:00Z</time>
      </trkpt>
      <trkpt lat="48.02699" lon="-4.38516">
        <ele>23.69</ele>
        <time>2014-08-22T12:15:05Z</time>
      </trkpt>
      <trkpt lat="48.02702" lon="-4.38503">
        <ele>19.84</ele>
        <time>2014-08-22T12:15:18Z</time>
      </trkpt>
      <trkpt lat="48.027" lon="-4.38483">
        <ele>15.04</ele>
        <time>2014-08-22T12:15:29Z</time>
      </trkpt>
      <trkpt lat="48.02698" lon="-4.38463">
        <ele>13.6</ele>
        <time>2014-08-22T12:15:42Z</time>
      </trkpt>
      <trkpt lat="48.02696" lon="-4.38455">
        <ele>14.08</ele>
        <time>2014-08-22T12:15:53Z</time>
      </trkpt>
      <trkpt lat="48.02692" lon="-4.38431">
        <ele>14.08</ele>
        <time>2014-08-22T12:16:07Z</time>
      </trkpt>
      <trkpt lat="48.02691" lon="-4.38412">
        <ele>15.04</ele>
        <time>2014-08-22T12:16:19Z</time>
      </trkpt>
      <trkpt lat="48.02692" lon="-4.38409">
        <ele>15.52</ele>
        <time>2014-08-22T12:16:21Z</time>
      </trkpt>
      <trkpt lat="48.02691" lon="-4.38406">
        <ele>15.52</ele>
        <time>2014-08-22T12:16:23Z</time>
      </trkpt>
      <trkpt lat="48.02691" lon="-4.38383">
        <ele>16</ele>
        <time>2014-08-22T12:16:38Z</time>
      </trkpt>
      <trkpt lat="48.0269" lon="-4.3836">
        <ele>16.96</ele>
        <time>2014-08-22T12:16:51Z</time>
      </trkpt>
      <trkpt lat="48.02686" lon="-4.38344">
        <ele>16.96</ele>
        <time>2014-08-22T12:17:04Z</time>
      </trkpt>
      <trkpt lat="48.02686" lon="-4.38323">
        <ele>16.48</ele>
        <time>2014-08-22T12:17:16Z</time>
      </trkpt>
      <trkpt lat="48.02687" lon="-4.38307">
        <ele>20.32</ele>
        <time>2014-08-22T12:17:29Z</time>
      </trkpt>
      <trkpt lat="48.02688" lon="-4.38291">
        <ele>21.77</ele>
        <time>2014-08-22T12:17:40Z</time>
      </trkpt>
      <trkpt lat="48.02687" lon="-4.38275">
        <ele>22.25</ele>
        <time>2014-08-22T12:17:47Z</time>
      </trkpt>
      <trkpt lat="48.02687" lon="-4.38246">
        <ele>23.69</ele>
        <time>2014-08-22T12:18:05Z</time>
      </trkpt>
      <trkpt lat="48.02685" lon="-4.38236">
        <ele>25.13</ele>
        <time>2014-08-22T12:18:22Z</time>
      </trkpt>
      <trkpt lat="48.02683" lon="-4.38218">
        <ele>23.21</ele>
        <time>2014-08-22T12:18:34Z</time>
      </trkpt>
      <trkpt lat="48.02681" lon="-4.38199">
        <ele>20.32</ele>
        <time>2014-08-22T12:18:49Z</time>
      </trkpt>
      <trkpt lat="48.02671" lon="-4.3817">
        <ele>24.17</ele>
        <time>2014-08-22T12:19:04Z</time>
      </trkpt>
      <trkpt lat="48.02662" lon="-4.38145">
        <ele>28.5</ele>
        <time>2014-08-22T12:19:20Z</time>
      </trkpt>
      <trkpt lat="48.02657" lon="-4.38121">
        <ele>30.42</ele>
        <time>2014-08-22T12:19:33Z</time>
      </trkpt>
      <trkpt lat="48.02651" lon="-4.38102">
        <ele>35.71</ele>
        <time>2014-08-22T12:19:49Z</time>
      </trkpt>
      <trkpt lat="48.02645" lon="-4.38079">
        <ele>39.07</ele>
        <time>2014-08-22T12:20:04Z</time>
      </trkpt>
      <trkpt lat="48.02645" lon="-4.38047">
        <ele>40.03</ele>
        <time>2014-08-22T12:20:20Z</time>
      </trkpt>
      <trkpt lat="48.02638" lon="-4.38028">
        <ele>40.99</ele>
        <time>2014-08-22T12:20:35Z</time>
      </trkpt>
      <trkpt lat="48.02631" lon="-4.38004">
        <ele>40.99</ele>
        <time>2014-08-22T12:20:50Z</time>
      </trkpt>
      <trkpt lat="48.02622" lon="-4.3797">
        <ele>43.88</ele>
        <time>2014-08-22T12:21:05Z</time>
      </trkpt>
      <trkpt lat="48.02617" lon="-4.37947">
        <ele>46.76</ele>
        <time>2014-08-22T12:21:22Z</time>
      </trkpt>
      <trkpt lat="48.02608" lon="-4.3791">
        <ele>47.72</ele>
        <time>2014-08-22T12:21:39Z</time>
      </trkpt>
      <trkpt lat="48.02605" lon="-4.37894">
        <ele>53.49</ele>
        <time>2014-08-22T12:21:53Z</time>
      </trkpt>
      <trkpt lat="48.026" lon="-4.37864">
        <ele>57.82</ele>
        <time>2014-08-22T12:22:10Z</time>
      </trkpt>
      <trkpt lat="48.02593" lon="-4.3784">
        <ele>64.07</ele>
        <time>2014-08-22T12:22:28Z</time>
      </trkpt>
      <trkpt lat="48.02589" lon="-4.37818">
        <ele>64.55</ele>
        <time>2014-08-22T12:22:42Z</time>
      </trkpt>
      <trkpt lat="48.02586" lon="-4.37799">
        <ele>67.43</ele>
        <time>2014-08-22T12:22:57Z</time>
      </trkpt>
      <trkpt lat="48.02582" lon="-4.3778">
        <ele>68.87</ele>
        <time>2014-08-22T12:23:09Z</time>
      </trkpt>
      <trkpt lat="48.02575" lon="-4.37749">
        <ele>66.95</ele>
        <time>2014-08-22T12:23:24Z</time>
      </trkpt>
      <trkpt lat="48.02573" lon="-4.37724">
        <ele>63.58</ele>
        <time>2014-08-22T12:23:39Z</time>
      </trkpt>
      <trkpt lat="48.02564" lon="-4.37697">
        <ele>55.89</ele>
        <time>2014-08-22T12:23:54Z</time>
      </trkpt>
      <trkpt lat="48.0256" lon="-4.37669">
        <ele>52.05</ele>
        <time>2014-08-22T12:24:12Z</time>
      </trkpt>
      <trkpt lat="48.02557" lon="-4.37643">
        <ele>47.72</ele>
        <time>2014-08-22T12:24:28Z</time>
      </trkpt>
      <trkpt lat="48.02554" lon="-4.37619">
        <ele>44.84</ele>
        <time>2014-08-22T12:24:45Z</time>
      </trkpt>
      <trkpt lat="48.02551" lon="-4.37591">
        <ele>42.44</ele>
        <time>2014-08-22T12:25:00Z</time>
      </trkpt>
      <trkpt lat="48.02551" lon="-4.37582">
        <ele>42.44</ele>
        <time>2014-08-22T12:25:06Z</time>
      </trkpt>
      <trkpt lat="48.0255" lon="-4.37542">
        <ele>46.28</ele>
        <time>2014-08-22T12:25:21Z</time>
      </trkpt>
      <trkpt lat="48.02549" lon="-4.37521">
        <ele>48.2</ele>
        <time>2014-08-22T12:25:33Z</time>
      </trkpt>
      <trkpt lat="48.02553" lon="-4.37501">
        <ele>48.68</ele>
        <time>2014-08-22T12:25:45Z</time>
      </trkpt>
      <trkpt lat="48.02548" lon="-4.37471">
        <ele>47.24</ele>
        <time>2014-08-22T12:26:03Z</time>
      </trkpt>
      <trkpt lat="48.02536" lon="-4.37453">
        <ele>48.68</ele>
        <time>2014-08-22T12:26:21Z</time>
      </trkpt>
      <trkpt lat="48.02533" lon="-4.37443">
        <ele>48.2</ele>
        <time>2014-08-22T12:26:36Z</time>
      </trkpt>
      <trkpt lat="48.02531" lon="-4.37422">
        <ele>46.76</ele>
        <time>2014-08-22T12:26:53Z</time>
      </trkpt>
      <trkpt lat="48.0253" lon="-4.37384">
        <ele>49.16</ele>
        <time>2014-08-22T12:27:07Z</time>
      </trkpt>
      <trkpt lat="48.02528" lon="-4.37365">
        <ele>50.13</ele>
        <time>2014-08-22T12:27:19Z</time>
      </trkpt>
      <trkpt lat="48.02524" lon="-4.37346">
        <ele>51.09</ele>
        <time>2014-08-22T12:27:31Z</time>
      </trkpt>
      <trkpt lat="48.02522" lon="-4.37319">
        <ele>51.57</ele>
        <time>2014-08-22T12:27:45Z</time>
      </trkpt>
      <trkpt lat="48.0252" lon="-4.37295">
        <ele>51.57</ele>
        <time>2014-08-22T12:28:00Z</time>
      </trkpt>
      <trkpt lat="48.0252" lon="-4.37267">
        <ele>52.05</ele>
        <time>2014-08-22T12:28:12Z</time>
      </trkpt>
      <trkpt lat="48.02515" lon="-4.37242">
        <ele>50.61</ele>
        <time>2014-08-22T12:28:29Z</time>
      </trkpt>
      <trkpt lat="48.02519" lon="-4.37202">
        <ele>50.61</ele>
        <time>2014-08-22T12:28:48Z</time>
      </trkpt>
      <trkpt lat="48.0252" lon="-4.37175">
        <ele>49.65</ele>
        <time>2014-08-22T12:29:06Z</time>
      </trkpt>
      <trkpt lat="48.02521" lon="-4.3716">
        <ele>49.65</ele>
        <time>2014-08-22T12:29:16Z</time>
      </trkpt>
      <trkpt lat="48.02524" lon="-4.37143">
        <ele>49.16</ele>
        <time>2014-08-22T12:29:26Z</time>
      </trkpt>
      <trkpt lat="48.02526" lon="-4.37137">
        <ele>48.2</ele>
        <time>2014-08-22T12:29:29Z</time>
      </trkpt>
      <trkpt lat="48.02528" lon="-4.37124">
        <ele>45.8</ele>
        <time>2014-08-22T12:29:36Z</time>
      </trkpt>
      <trkpt lat="48.02532" lon="-4.37107">
        <ele>43.88</ele>
        <time>2014-08-22T12:29:52Z</time>
      </trkpt>
      <trkpt lat="48.02533" lon="-4.37107">
        <ele>43.4</ele>
        <time>2014-08-22T12:29:53Z</time>
      </trkpt>
      <trkpt lat="48.02537" lon="-4.3712">
        <ele>37.63</ele>
        <time>2014-08-22T12:30:09Z</time>
      </trkpt>
      <trkpt lat="48.02542" lon="-4.37128">
        <ele>38.59</ele>
        <time>2014-08-22T12:30:19Z</time>
      </trkpt>
      <trkpt lat="48.02549" lon="-4.37145">
        <ele>37.63</ele>
        <time>2014-08-22T12:30:31Z</time>
      </trkpt>
      <trkpt lat="48.02554" lon="-4.37161">
        <ele>36.19</ele>
        <time>2014-08-22T12:30:43Z</time>
      </trkpt>
      <trkpt lat="48.02559" lon="-4.3717">
        <ele>36.19</ele>
        <time>2014-08-22T12:30:48Z</time>
      </trkpt>
      <trkpt lat="48.02575" lon="-4.37195">
        <ele>36.67</ele>
        <time>2014-08-22T12:31:04Z</time>
      </trkpt>
      <trkpt lat="48.02589" lon="-4.37213">
        <ele>36.19</ele>
        <time>2014-08-22T12:31:21Z</time>
      </trkpt>
      <trkpt lat="48.02595" lon="-4.37219">
        <ele>35.23</ele>
        <time>2014-08-22T12:31:26Z</time>
      </trkpt>
      <trkpt lat="48.02602" lon="-4.37226">
        <ele>36.19</ele>
        <time>2014-08-22T12:31:32Z</time>
      </trkpt>
      <trkpt lat="48.02611" lon="-4.37231">
        <ele>34.74</ele>
        <time>2014-08-22T12:31:46Z</time>
      </trkpt>
      <trkpt lat="48.02616" lon="-4.37235">
        <ele>35.71</ele>
        <time>2014-08-22T12:31:58Z</time>
      </trkpt>
      <trkpt lat="48.02618" lon="-4.37238">
        <ele>35.23</ele>
        <time>2014-08-22T12:32:00Z</time>
      </trkpt>
      <trkpt lat="48.02627" lon="-4.37242">
        <ele>34.74</ele>
        <time>2014-08-22T12:32:13Z</time>
      </trkpt>
      <trkpt lat="48.0263" lon="-4.37242">
        <ele>34.74</ele>
        <time>2014-08-22T12:32:15Z</time>
      </trkpt>
      <trkpt lat="48.02654" lon="-4.37253">
        <ele>34.74</ele>
        <time>2014-08-22T12:32:32Z</time>
      </trkpt>
      <trkpt lat="48.02664" lon="-4.37234">
        <ele>35.71</ele>
        <time>2014-08-22T12:32:47Z</time>
      </trkpt>
      <trkpt lat="48.02665" lon="-4.37209">
        <ele>39.55</ele>
        <time>2014-08-22T12:33:01Z</time>
      </trkpt>
      <trkpt lat="48.02667" lon="-4.37179">
        <ele>41.95</ele>
        <time>2014-08-22T12:33:17Z</time>
      </trkpt>
      <trkpt lat="48.02667" lon="-4.37153">
        <ele>43.88</ele>
        <time>2014-08-22T12:33:33Z</time>
      </trkpt>
      <trkpt lat="48.0267" lon="-4.37132">
        <ele>43.4</ele>
        <time>2014-08-22T12:33:50Z</time>
      </trkpt>
      <trkpt lat="48.0267" lon="-4.37111">
        <ele>44.36</ele>
        <time>2014-08-22T12:34:04Z</time>
      </trkpt>
      <trkpt lat="48.02673" lon="-4.37091">
        <ele>44.84</ele>
        <time>2014-08-22T12:34:19Z</time>
      </trkpt>
      <trkpt lat="48.02675" lon="-4.37064">
        <ele>46.76</ele>
        <time>2014-08-22T12:34:38Z</time>
      </trkpt>
      <trkpt lat="48.02681" lon="-4.37034">
        <ele>45.8</ele>
        <time>2014-08-22T12:34:53Z</time>
      </trkpt>
      <trkpt lat="48.02681" lon="-4.37013">
        <ele>46.28</ele>
        <time>2014-08-22T12:35:08Z</time>
      </trkpt>
      <trkpt lat="48.02682" lon="-4.36989">
        <ele>49.16</ele>
        <time>2014-08-22T12:35:23Z</time>
      </trkpt>
      <trkpt lat="48.02686" lon="-4.36968">
        <ele>50.13</ele>
        <time>2014-08-22T12:35:38Z</time>
      </trkpt>
      <trkpt lat="48.02688" lon="-4.36947">
        <ele>52.05</ele>
        <time>2014-08-22T12:35:53Z</time>
      </trkpt>
      <trkpt lat="48.0269" lon="-4.3693">
        <ele>53.97</ele>
        <time>2014-08-22T12:36:06Z</time>
      </trkpt>
      <trkpt lat="48.0269" lon="-4.36919">
        <ele>55.89</ele>
        <time>2014-08-22T12:36:23Z</time>
      </trkpt>
      <trkpt lat="48.02691" lon="-4.36883">
        <ele>56.86</ele>
        <time>2014-08-22T12:36:40Z</time>
      </trkpt>
      <trkpt lat="48.0269" lon="-4.36853">
        <ele>59.26</ele>
        <time>2014-08-22T12:36:56Z</time>
      </trkpt>
      <trkpt lat="48.0269" lon="-4.36822">
        <ele>60.22</ele>
        <time>2014-08-22T12:37:17Z</time>
      </trkpt>
      <trkpt lat="48.02691" lon="-4.36811">
        <ele>57.82</ele>
        <time>2014-08-22T12:37:35Z</time>
      </trkpt>
      <trkpt lat="48.02685" lon="-4.3681">
        <ele>57.34</ele>
        <time>2014-08-22T12:37:50Z</time>
      </trkpt>
      <trkpt lat="48.0268" lon="-4.36806">
        <ele>56.37</ele>
        <time>2014-08-22T12:38:08Z</time>
      </trkpt>
      <trkpt lat="48.02676" lon="-4.36804">
        <ele>56.37</ele>
        <time>2014-08-22T12:38:25Z</time>
      </trkpt>
      <trkpt lat="48.02662" lon="-4.36778">
        <ele>54.45</ele>
        <time>2014-08-22T12:38:42Z</time>
      </trkpt>
      <trkpt lat="48.02654" lon="-4.36753">
        <ele>53.97</ele>
        <time>2014-08-22T12:38:59Z</time>
      </trkpt>
      <trkpt lat="48.02647" lon="-4.36722">
        <ele>51.09</ele>
        <time>2014-08-22T12:39:15Z</time>
      </trkpt>
      <trkpt lat="48.02646" lon="-4.36694">
        <ele>47.24</ele>
        <time>2014-08-22T12:39:30Z</time>
      </trkpt>
      <trkpt lat="48.02645" lon="-4.36663">
        <ele>45.32</ele>
        <time>2014-08-22T12:39:45Z</time>
      </trkpt>
      <trkpt lat="48.0264" lon="-4.36642">
        <ele>41.47</ele>
        <time>2014-08-22T12:40:02Z</time>
      </trkpt>
      <trkpt lat="48.02641" lon="-4.36626">
        <ele>35.23</ele>
        <time>2014-08-22T12:40:20Z</time>
      </trkpt>
      <trkpt lat="48.02627" lon="-4.36594">
        <ele>36.19</ele>
        <time>2014-08-22T12:40:28Z</time>
      </trkpt>
      <trkpt lat="48.02623" lon="-4.36571">
        <ele>38.59</ele>
        <time>2014-08-22T12:40:42Z</time>
      </trkpt>
      <trkpt lat="48.02618" lon="-4.36546">
        <ele>36.67</ele>
        <time>2014-08-22T12:40:57Z</time>
      </trkpt>
      <trkpt lat="48.02617" lon="-4.3654">
        <ele>37.15</ele>
        <time>2014-08-22T12:41:03Z</time>
      </trkpt>
      <trkpt lat="48.02617" lon="-4.36531">
        <ele>36.19</ele>
        <time>2014-08-22T12:41:09Z</time>
      </trkpt>
      <trkpt lat="48.02614" lon="-4.36512">
        <ele>35.71</ele>
        <time>2014-08-22T12:41:22Z</time>
      </trkpt>
      <trkpt lat="48.02616" lon="-4.36483">
        <ele>33.78</ele>
        <time>2014-08-22T12:41:37Z</time>
      </trkpt>
      <trkpt lat="48.02615" lon="-4.36453">
        <ele>34.26</ele>
        <time>2014-08-22T12:41:54Z</time>
      </trkpt>
      <trkpt lat="48.02613" lon="-4.36426">
        <ele>35.23</ele>
        <time>2014-08-22T12:42:10Z</time>
      </trkpt>
      <trkpt lat="48.0261" lon="-4.36405">
        <ele>36.19</ele>
        <time>2014-08-22T12:42:25Z</time>
      </trkpt>
      <trkpt lat="48.02609" lon="-4.3639">
        <ele>37.15</ele>
        <time>2014-08-22T12:42:40Z</time>
      </trkpt>
      <trkpt lat="48.02605" lon="-4.36365">
        <ele>39.55</ele>
        <time>2014-08-22T12:42:56Z</time>
      </trkpt>
      <trkpt lat="48.02602" lon="-4.3634">
        <ele>39.07</ele>
        <time>2014-08-22T12:43:11Z</time>
      </trkpt>
      <trkpt lat="48.02599" lon="-4.36318">
        <ele>39.55</ele>
        <time>2014-08-22T12:43:28Z</time>
      </trkpt>
      <trkpt lat="48.026" lon="-4.36282">
        <ele>37.63</ele>
        <time>2014-08-22T12:43:45Z</time>
      </trkpt>
      <trkpt lat="48.02602" lon="-4.36257">
        <ele>39.07</ele>
        <time>2014-08-22T12:44:00Z</time>
      </trkpt>
      <trkpt lat="48.02608" lon="-4.36231">
        <ele>37.63</ele>
        <time>2014-08-22T12:44:17Z</time>
      </trkpt>
      <trkpt lat="48.02612" lon="-4.36218">
        <ele>39.55</ele>
        <time>2014-08-22T12:44:32Z</time>
      </trkpt>
      <trkpt lat="48.02614" lon="-4.36217">
        <ele>39.55</ele>
        <time>2014-08-22T12:44:50Z</time>
      </trkpt>
      <trkpt lat="48.02614" lon="-4.36216">
        <ele>40.51</ele>
        <time>2014-08-22T12:45:09Z</time>
      </trkpt>
      <trkpt lat="48.02615" lon="-4.36212">
        <ele>40.99</ele>
        <time>2014-08-22T12:45:26Z</time>
      </trkpt>
      <trkpt lat="48.02623" lon="-4.36193">
        <ele>46.28</ele>
        <time>2014-08-22T12:45:42Z</time>
      </trkpt>
      <trkpt lat="48.02629" lon="-4.36182">
        <ele>47.72</ele>
        <time>2014-08-22T12:45:57Z</time>
      </trkpt>
      <trkpt lat="48.02636" lon="-4.36168">
        <ele>46.28</ele>
        <time>2014-08-22T12:46:12Z</time>
      </trkpt>
      <trkpt lat="48.02643" lon="-4.36149">
        <ele>46.76</ele>
        <time>2014-08-22T12:46:29Z</time>
      </trkpt>
      <trkpt lat="48.02652" lon="-4.3612">
        <ele>55.89</ele>
        <time>2014-08-22T12:46:45Z</time>
      </trkpt>
      <trkpt lat="48.02655" lon="-4.36116">
        <ele>58.3</ele>
        <time>2014-08-22T12:46:50Z</time>
      </trkpt>
      <trkpt lat="48.02668" lon="-4.36117">
        <ele>60.7</ele>
        <time>2014-08-22T12:47:04Z</time>
      </trkpt>
      <trkpt lat="48.02675" lon="-4.36119">
        <ele>61.18</ele>
        <time>2014-08-22T12:47:19Z</time>
      </trkpt>
      <trkpt lat="48.02678" lon="-4.36119">
        <ele>62.14</ele>
        <time>2014-08-22T12:47:32Z</time>
      </trkpt>
      <trkpt lat="48.02685" lon="-4.3612">
        <ele>63.1</ele>
        <time>2014-08-22T12:47:38Z</time>
      </trkpt>
      <trkpt lat="48.02699" lon="-4.36121">
        <ele>65.99</ele>
        <time>2014-08-22T12:47:52Z</time>
      </trkpt>
      <trkpt lat="48.0271" lon="-4.36125">
        <ele>67.91</ele>
        <time>2014-08-22T12:48:04Z</time>
      </trkpt>
      <trkpt lat="48.02724" lon="-4.36128">
        <ele>68.87</ele>
        <time>2014-08-22T12:48:16Z</time>
      </trkpt>
      <trkpt lat="48.02735" lon="-4.36128">
        <ele>71.27</ele>
        <time>2014-08-22T12:48:28Z</time>
      </trkpt>
      <trkpt lat="48.0275" lon="-4.36133">
        <ele>73.2</ele>
        <time>2014-08-22T12:48:42Z</time>
      </trkpt>
      <trkpt lat="48.02762" lon="-4.36134">
        <ele>75.6</ele>
        <time>2014-08-22T12:48:54Z</time>
      </trkpt>
      <trkpt lat="48.02771" lon="-4.36135">
        <ele>76.56</ele>
        <time>2014-08-22T12:49:05Z</time>
      </trkpt>
      <trkpt lat="48.02786" lon="-4.36139">
        <ele>78.97</ele>
        <time>2014-08-22T12:49:18Z</time>
      </trkpt>
      <trkpt lat="48.028" lon="-4.36141">
        <ele>79.93</ele>
        <time>2014-08-22T12:49:32Z</time>
      </trkpt>
      <trkpt lat="48.02816" lon="-4.36144">
        <ele>81.85</ele>
        <time>2014-08-22T12:49:46Z</time>
      </trkpt>
      <trkpt lat="48.0283" lon="-4.36146">
        <ele>82.81</ele>
        <time>2014-08-22T12:49:59Z</time>
      </trkpt>
      <trkpt lat="48.02834" lon="-4.36147">
        <ele>82.33</ele>
        <time>2014-08-22T12:50:02Z</time>
      </trkpt>
      <trkpt lat="48.02845" lon="-4.36149">
        <ele>83.29</ele>
        <time>2014-08-22T12:50:11Z</time>
      </trkpt>
      <trkpt lat="48.02859" lon="-4.36141">
        <ele>83.29</ele>
        <time>2014-08-22T12:50:26Z</time>
      </trkpt>
      <trkpt lat="48.02867" lon="-4.36126">
        <ele>80.89</ele>
        <time>2014-08-22T12:50:40Z</time>
      </trkpt>
      <trkpt lat="48.02874" lon="-4.36117">
        <ele>79.93</ele>
        <time>2014-08-22T12:50:49Z</time>
      </trkpt>
      <trkpt lat="48.02892" lon="-4.36122">
        <ele>80.41</ele>
        <time>2014-08-22T12:51:07Z</time>
      </trkpt>
      <trkpt lat="48.02893" lon="-4.36122">
        <ele>80.41</ele>
        <time>2014-08-22T12:51:08Z</time>
      </trkpt>
      <trkpt lat="48.02897" lon="-4.36124">
        <ele>80.41</ele>
        <time>2014-08-22T12:51:12Z</time>
      </trkpt>
      <trkpt lat="48.02918" lon="-4.36133">
        <ele>81.37</ele>
        <time>2014-08-22T12:51:29Z</time>
      </trkpt>
      <trkpt lat="48.02932" lon="-4.36142">
        <ele>82.33</ele>
        <time>2014-08-22T12:51:42Z</time>
      </trkpt>
      <trkpt lat="48.02949" lon="-4.36149">
        <ele>81.37</ele>
        <time>2014-08-22T12:51:57Z</time>
      </trkpt>
      <trkpt lat="48.02965" lon="-4.36158">
        <ele>82.81</ele>
        <time>2014-08-22T12:52:12Z</time>
      </trkpt>
      <trkpt lat="48.02981" lon="-4.36166">
        <ele>81.37</ele>
        <time>2014-08-22T12:52:26Z</time>
      </trkpt>
      <trkpt lat="48.02999" lon="-4.36174">
        <ele>82.81</ele>
        <time>2014-08-22T12:52:42Z</time>
      </trkpt>
      <trkpt lat="48.03001" lon="-4.36175">
        <ele>82.81</ele>
        <time>2014-08-22T12:52:44Z</time>
      </trkpt>
      <trkpt lat="48.03008" lon="-4.36178">
        <ele>82.81</ele>
        <time>2014-08-22T12:52:50Z</time>
      </trkpt>
      <trkpt lat="48.03024" lon="-4.36187">
        <ele>80.89</ele>
        <time>2014-08-22T12:53:05Z</time>
      </trkpt>
      <trkpt lat="48.03029" lon="-4.36189">
        <ele>80.89</ele>
        <time>2014-08-22T12:53:10Z</time>
      </trkpt>
      <trkpt lat="48.03044" lon="-4.36198">
        <ele>80.41</ele>
        <time>2014-08-22T12:53:24Z</time>
      </trkpt>
      <trkpt lat="48.03059" lon="-4.36207">
        <ele>79.45</ele>
        <time>2014-08-22T12:53:38Z</time>
      </trkpt>
      <trkpt lat="48.03071" lon="-4.36213">
        <ele>80.41</ele>
        <time>2014-08-22T12:53:51Z</time>
      </trkpt>
      <trkpt lat="48.03078" lon="-4.36225">
        <ele>81.37</ele>
        <time>2014-08-22T12:54:07Z</time>
      </trkpt>
      <trkpt lat="48.03077" lon="-4.36227">
        <ele>83.77</ele>
        <time>2014-08-22T12:54:24Z</time>
      </trkpt>
      <trkpt lat="48.03076" lon="-4.36227">
        <ele>84.73</ele>
        <time>2014-08-22T12:54:42Z</time>
      </trkpt>
      <trkpt lat="48.03077" lon="-4.36227">
        <ele>86.18</ele>
        <time>2014-08-22T12:55:02Z</time>
      </trkpt>
      <trkpt lat="48.03077" lon="-4.36226">
        <ele>85.21</ele>
        <time>2014-08-22T12:55:18Z</time>
      </trkpt>
      <trkpt lat="48.03077" lon="-4.36225">
        <ele>85.69</ele>
        <time>2014-08-22T12:55:39Z</time>
      </trkpt>
      <trkpt lat="48.03076" lon="-4.36227">
        <ele>86.66</ele>
        <time>2014-08-22T12:56:01Z</time>
      </trkpt>
      <trkpt lat="48.03077" lon="-4.36227">
        <ele>86.66</ele>
        <time>2014-08-22T12:56:23Z</time>
      </trkpt>
      <trkpt lat="48.03079" lon="-4.36227">
        <ele>86.66</ele>
        <time>2014-08-22T12:56:37Z</time>
      </trkpt>
      <trkpt lat="48.0309" lon="-4.36229">
        <ele>86.18</ele>
        <time>2014-08-22T12:56:50Z</time>
      </trkpt>
      <trkpt lat="48.03101" lon="-4.36228">
        <ele>84.73</ele>
        <time>2014-08-22T12:56:58Z</time>
      </trkpt>
      <trkpt lat="48.03107" lon="-4.36222">
        <ele>84.25</ele>
        <time>2014-08-22T12:57:04Z</time>
      </trkpt>
      <trkpt lat="48.03115" lon="-4.36199">
        <ele>78.97</ele>
        <time>2014-08-22T12:57:20Z</time>
      </trkpt>
      <trkpt lat="48.0312" lon="-4.36182">
        <ele>76.56</ele>
        <time>2014-08-22T12:57:32Z</time>
      </trkpt>
      <trkpt lat="48.03125" lon="-4.36167">
        <ele>74.64</ele>
        <time>2014-08-22T12:57:48Z</time>
      </trkpt>
      <trkpt lat="48.03127" lon="-4.36167">
        <ele>74.16</ele>
        <time>2014-08-22T12:57:58Z</time>
      </trkpt>
      <trkpt lat="48.03145" lon="-4.36171">
        <ele>69.83</ele>
        <time>2014-08-22T12:58:14Z</time>
      </trkpt>
      <trkpt lat="48.03146" lon="-4.36172">
        <ele>69.83</ele>
        <time>2014-08-22T12:58:15Z</time>
      </trkpt>
      <trkpt lat="48.03147" lon="-4.36175">
        <ele>68.87</ele>
        <time>2014-08-22T12:58:18Z</time>
      </trkpt>
      <trkpt lat="48.03161" lon="-4.36173">
        <ele>65.99</ele>
        <time>2014-08-22T12:58:34Z</time>
      </trkpt>
      <trkpt lat="48.03174" lon="-4.36173">
        <ele>63.58</ele>
        <time>2014-08-22T12:58:48Z</time>
      </trkpt>
      <trkpt lat="48.0319" lon="-4.36171">
        <ele>60.22</ele>
        <time>2014-08-22T12:59:03Z</time>
      </trkpt>
      <trkpt lat="48.03199" lon="-4.3617">
        <ele>57.82</ele>
        <time>2014-08-22T12:59:13Z</time>
      </trkpt>
      <trkpt lat="48.03217" lon="-4.36167">
        <ele>56.37</ele>
        <time>2014-08-22T12:59:28Z</time>
      </trkpt>
      <trkpt lat="48.03229" lon="-4.36166">
        <ele>54.45</ele>
        <time>2014-08-22T12:59:42Z</time>
      </trkpt>
      <trkpt lat="48.03238" lon="-4.36164">
        <ele>53.49</ele>
        <time>2014-08-22T12:59:58Z</time>
      </trkpt>
      <trkpt lat="48.03251" lon="-4.36164">
        <ele>52.53</ele>
        <time>2014-08-22T13:00:11Z</time>
      </trkpt>
      <trkpt lat="48.03264" lon="-4.36158">
        <ele>51.09</ele>
        <time>2014-08-22T13:00:28Z</time>
      </trkpt>
      <trkpt lat="48.03266" lon="-4.36155">
        <ele>50.61</ele>
        <time>2014-08-22T13:00:30Z</time>
      </trkpt>
      <trkpt lat="48.03281" lon="-4.36148">
        <ele>49.65</ele>
        <time>2014-08-22T13:00:45Z</time>
      </trkpt>
      <trkpt lat="48.03291" lon="-4.36145">
        <ele>49.16</ele>
        <time>2014-08-22T13:01:00Z</time>
      </trkpt>
      <trkpt lat="48.03308" lon="-4.36145">
        <ele>47.24</ele>
        <time>2014-08-22T13:01:18Z</time>
      </trkpt>
      <trkpt lat="48.03316" lon="-4.36144">
        <ele>47.72</ele>
        <time>2014-08-22T13:01:38Z</time>
      </trkpt>
      <trkpt lat="48.03318" lon="-4.36143">
        <ele>47.24</ele>
        <time>2014-08-22T13:02:00Z</time>
      </trkpt>
      <trkpt lat="48.03318" lon="-4.36143">
        <ele>47.72</ele>
        <time>2014-08-22T13:02:06Z</time>
      </trkpt>
      <trkpt lat="48.03323" lon="-4.36144">
        <ele>48.2</ele>
        <time>2014-08-22T13:02:11Z</time>
      </trkpt>
      <trkpt lat="48.03344" lon="-4.36144">
        <ele>47.72</ele>
        <time>2014-08-22T13:02:24Z</time>
      </trkpt>
      <trkpt lat="48.03346" lon="-4.36145">
        <ele>47.72</ele>
        <time>2014-08-22T13:02:25Z</time>
      </trkpt>
      <trkpt lat="48.03359" lon="-4.36148">
        <ele>47.24</ele>
        <time>2014-08-22T13:02:38Z</time>
      </trkpt>
      <trkpt lat="48.03365" lon="-4.36148">
        <ele>45.8</ele>
        <time>2014-08-22T13:02:43Z</time>
      </trkpt>
      <trkpt lat="48.0337" lon="-4.36148">
        <ele>41.47</ele>
        <time>2014-08-22T13:02:55Z</time>
      </trkpt>
      <trkpt lat="48.03377" lon="-4.36147">
        <ele>38.59</ele>
        <time>2014-08-22T13:03:07Z</time>
      </trkpt>
      <trkpt lat="48.0339" lon="-4.36144">
        <ele>35.71</ele>
        <time>2014-08-22T13:03:20Z</time>
      </trkpt>
      <trkpt lat="48.03403" lon="-4.36145">
        <ele>34.74</ele>
        <time>2014-08-22T13:03:31Z</time>
      </trkpt>
      <trkpt lat="48.03406" lon="-4.36145">
        <ele>34.26</ele>
        <time>2014-08-22T13:03:34Z</time>
      </trkpt>
      <trkpt lat="48.0342" lon="-4.36147">
        <ele>35.23</ele>
        <time>2014-08-22T13:03:45Z</time>
      </trkpt>
      <trkpt lat="48.03432" lon="-4.36153">
        <ele>37.63</ele>
        <time>2014-08-22T13:04:00Z</time>
      </trkpt>
      <trkpt lat="48.03434" lon="-4.36154">
        <ele>37.63</ele>
        <time>2014-08-22T13:04:01Z</time>
      </trkpt>
      <trkpt lat="48.03438" lon="-4.36155">
        <ele>37.63</ele>
        <time>2014-08-22T13:04:04Z</time>
      </trkpt>
      <trkpt lat="48.03444" lon="-4.36159">
        <ele>37.63</ele>
        <time>2014-08-22T13:04:13Z</time>
      </trkpt>
      <trkpt lat="48.03449" lon="-4.36157">
        <ele>37.63</ele>
        <time>2014-08-22T13:04:19Z</time>
      </trkpt>
      <trkpt lat="48.03462" lon="-4.3615">
        <ele>35.23</ele>
        <time>2014-08-22T13:04:25Z</time>
      </trkpt>
      <trkpt lat="48.03463" lon="-4.36133">
        <ele>33.3</ele>
        <time>2014-08-22T13:04:36Z</time>
      </trkpt>
      <trkpt lat="48.03464" lon="-4.36122">
        <ele>34.26</ele>
        <time>2014-08-22T13:04:43Z</time>
      </trkpt>
      <trkpt lat="48.03465" lon="-4.3612">
        <ele>34.26</ele>
        <time>2014-08-22T13:04:45Z</time>
      </trkpt>
      <trkpt lat="48.03468" lon="-4.36097">
        <ele>31.38</ele>
        <time>2014-08-22T13:04:58Z</time>
      </trkpt>
      <trkpt lat="48.03469" lon="-4.36075">
        <ele>31.86</ele>
        <time>2014-08-22T13:05:10Z</time>
      </trkpt>
      <trkpt lat="48.03472" lon="-4.36061">
        <ele>33.3</ele>
        <time>2014-08-22T13:05:22Z</time>
      </trkpt>
      <trkpt lat="48.03472" lon="-4.36054">
        <ele>32.82</ele>
        <time>2014-08-22T13:05:34Z</time>
      </trkpt>
      <trkpt lat="48.03473" lon="-4.36052">
        <ele>32.34</ele>
        <time>2014-08-22T13:05:49Z</time>
      </trkpt>
      <trkpt lat="48.03473" lon="-4.36052">
        <ele>31.86</ele>
        <time>2014-08-22T13:06:03Z</time>
      </trkpt>
      <trkpt lat="48.03473" lon="-4.36051">
        <ele>33.3</ele>
        <time>2014-08-22T13:06:24Z</time>
      </trkpt>
      <trkpt lat="48.03473" lon="-4.36051">
        <ele>33.3</ele>
        <time>2014-08-22T13:06:42Z</time>
      </trkpt>
      <trkpt lat="48.03471" lon="-4.3605">
        <ele>34.74</ele>
        <time>2014-08-22T13:06:57Z</time>
      </trkpt>
      <trkpt lat="48.0347" lon="-4.36052">
        <ele>35.23</ele>
        <time>2014-08-22T13:07:11Z</time>
      </trkpt>
      <trkpt lat="48.03471" lon="-4.36053">
        <ele>35.71</ele>
        <time>2014-08-22T13:07:27Z</time>
      </trkpt>
      <trkpt lat="48.03471" lon="-4.36053">
        <ele>35.71</ele>
        <time>2014-08-22T13:07:52Z</time>
      </trkpt>
      <trkpt lat="48.03471" lon="-4.36053">
        <ele>36.19</ele>
        <time>2014-08-22T13:08:17Z</time>
      </trkpt>
      <trkpt lat="48.03471" lon="-4.36052">
        <ele>36.67</ele>
        <time>2014-08-22T13:08:46Z</time>
      </trkpt>
      <trkpt lat="48.03472" lon="-4.3605">
        <ele>36.19</ele>
        <time>2014-08-22T13:09:16Z</time>
      </trkpt>
      <trkpt lat="48.03472" lon="-4.36048">
        <ele>35.71</ele>
        <time>2014-08-22T13:09:32Z</time>
      </trkpt>
      <trkpt lat="48.03474" lon="-4.36042">
        <ele>36.67</ele>
        <time>2014-08-22T13:09:43Z</time>
      </trkpt>
      <trkpt lat="48.03479" lon="-4.3604">
        <ele>35.71</ele>
        <time>2014-08-22T13:09:55Z</time>
      </trkpt>
      <trkpt lat="48.03494" lon="-4.36033">
        <ele>34.74</ele>
        <time>2014-08-22T13:10:09Z</time>
      </trkpt>
      <trkpt lat="48.03506" lon="-4.36028">
        <ele>35.23</ele>
        <time>2014-08-22T13:10:24Z</time>
      </trkpt>
      <trkpt lat="48.0352" lon="-4.36023">
        <ele>33.78</ele>
        <time>2014-08-22T13:10:38Z</time>
      </trkpt>
      <trkpt lat="48.03522" lon="-4.36022">
        <ele>33.3</ele>
        <time>2014-08-22T13:10:40Z</time>
      </trkpt>
      <trkpt lat="48.03527" lon="-4.36022">
        <ele>33.3</ele>
        <time>2014-08-22T13:10:47Z</time>
      </trkpt>
      <trkpt lat="48.03532" lon="-4.3602">
        <ele>33.3</ele>
        <time>2014-08-22T13:10:53Z</time>
      </trkpt>
      <trkpt lat="48.03547" lon="-4.36016">
        <ele>33.78</ele>
        <time>2014-08-22T13:11:08Z</time>
      </trkpt>
      <trkpt lat="48.03556" lon="-4.36014">
        <ele>35.23</ele>
        <time>2014-08-22T13:11:24Z</time>
      </trkpt>
      <trkpt lat="48.03572" lon="-4.36009">
        <ele>36.67</ele>
        <time>2014-08-22T13:11:40Z</time>
      </trkpt>
      <trkpt lat="48.03598" lon="-4.36004">
        <ele>38.59</ele>
        <time>2014-08-22T13:11:54Z</time>
      </trkpt>
      <trkpt lat="48.03603" lon="-4.36005">
        <ele>39.55</ele>
        <time>2014-08-22T13:12:10Z</time>
      </trkpt>
      <trkpt lat="48.03607" lon="-4.36002">
        <ele>42.92</ele>
        <time>2014-08-22T13:12:27Z</time>
      </trkpt>
      <trkpt lat="48.0361" lon="-4.36001">
        <ele>42.92</ele>
        <time>2014-08-22T13:12:42Z</time>
      </trkpt>
      <trkpt lat="48.03624" lon="-4.35999">
        <ele>44.84</ele>
        <time>2014-08-22T13:12:54Z</time>
      </trkpt>
      <trkpt lat="48.03637" lon="-4.35997">
        <ele>48.2</ele>
        <time>2014-08-22T13:13:06Z</time>
      </trkpt>
      <trkpt lat="48.03654" lon="-4.35981">
        <ele>50.13</ele>
        <time>2014-08-22T13:13:19Z</time>
      </trkpt>
      <trkpt lat="48.03669" lon="-4.35962">
        <ele>53.49</ele>
        <time>2014-08-22T13:13:35Z</time>
      </trkpt>
      <trkpt lat="48.03679" lon="-4.35947">
        <ele>55.89</ele>
        <time>2014-08-22T13:13:49Z</time>
      </trkpt>
      <trkpt lat="48.03686" lon="-4.35938">
        <ele>56.86</ele>
        <time>2014-08-22T13:14:03Z</time>
      </trkpt>
      <trkpt lat="48.03689" lon="-4.35936">
        <ele>56.86</ele>
        <time>2014-08-22T13:14:19Z</time>
      </trkpt>
      <trkpt lat="48.03699" lon="-4.35922">
        <ele>60.22</ele>
        <time>2014-08-22T13:14:36Z</time>
      </trkpt>
      <trkpt lat="48.03713" lon="-4.35912">
        <ele>60.7</ele>
        <time>2014-08-22T13:14:52Z</time>
      </trkpt>
      <trkpt lat="48.03731" lon="-4.35905">
        <ele>59.26</ele>
        <time>2014-08-22T13:15:05Z</time>
      </trkpt>
      <trkpt lat="48.03754" lon="-4.35902">
        <ele>58.3</ele>
        <time>2014-08-22T13:15:20Z</time>
      </trkpt>
      <trkpt lat="48.03759" lon="-4.35903">
        <ele>58.3</ele>
        <time>2014-08-22T13:15:24Z</time>
      </trkpt>
      <trkpt lat="48.03776" lon="-4.35897">
        <ele>58.3</ele>
        <time>2014-08-22T13:15:37Z</time>
      </trkpt>
      <trkpt lat="48.038" lon="-4.35895">
        <ele>59.26</ele>
        <time>2014-08-22T13:15:51Z</time>
      </trkpt>
      <trkpt lat="48.03808" lon="-4.35892">
        <ele>58.3</ele>
        <time>2014-08-22T13:15:57Z</time>
      </trkpt>
      <trkpt lat="48.03812" lon="-4.3589">
        <ele>58.3</ele>
        <time>2014-08-22T13:15:59Z</time>
      </trkpt>
      <trkpt lat="48.03832" lon="-4.35882">
        <ele>59.26</ele>
        <time>2014-08-22T13:16:12Z</time>
      </trkpt>
      <trkpt lat="48.0384" lon="-4.35886">
        <ele>56.37</ele>
        <time>2014-08-22T13:16:26Z</time>
      </trkpt>
      <trkpt lat="48.03843" lon="-4.35884">
        <ele>57.34</ele>
        <time>2014-08-22T13:16:40Z</time>
      </trkpt>
      <trkpt lat="48.03848" lon="-4.35881">
        <ele>57.82</ele>
        <time>2014-08-22T13:16:55Z</time>
      </trkpt>
      <trkpt lat="48.03861" lon="-4.35882">
        <ele>59.74</ele>
        <time>2014-08-22T13:17:08Z</time>
      </trkpt>
      <trkpt lat="48.03869" lon="-4.35873">
        <ele>58.78</ele>
        <time>2014-08-22T13:17:23Z</time>
      </trkpt>
      <trkpt lat="48.03877" lon="-4.35859">
        <ele>57.82</ele>
        <time>2014-08-22T13:17:39Z</time>
      </trkpt>
      <trkpt lat="48.03897" lon="-4.35829">
        <ele>54.93</ele>
        <time>2014-08-22T13:18:00Z</time>
      </trkpt>
      <trkpt lat="48.03909" lon="-4.35818">
        <ele>55.41</ele>
        <time>2014-08-22T13:18:09Z</time>
      </trkpt>
      <trkpt lat="48.03921" lon="-4.35805">
        <ele>57.34</ele>
        <time>2014-08-22T13:18:24Z</time>
      </trkpt>
      <trkpt lat="48.03931" lon="-4.35788">
        <ele>59.74</ele>
        <time>2014-08-22T13:18:41Z</time>
      </trkpt>
      <trkpt lat="48.03938" lon="-4.35766">
        <ele>62.14</ele>
        <time>2014-08-22T13:19:00Z</time>
      </trkpt>
      <trkpt lat="48.03947" lon="-4.35753">
        <ele>63.58</ele>
        <time>2014-08-22T13:19:15Z</time>
      </trkpt>
      <trkpt lat="48.0395" lon="-4.35751">
        <ele>63.1</ele>
        <time>2014-08-22T13:19:17Z</time>
      </trkpt>
      <trkpt lat="48.03962" lon="-4.35747">
        <ele>60.22</ele>
        <time>2014-08-22T13:19:23Z</time>
      </trkpt>
      <trkpt lat="48.03971" lon="-4.35738">
        <ele>57.34</ele>
        <time>2014-08-22T13:19:29Z</time>
      </trkpt>
      <trkpt lat="48.03974" lon="-4.35722">
        <ele>58.3</ele>
        <time>2014-08-22T13:19:43Z</time>
      </trkpt>
      <trkpt lat="48.03978" lon="-4.35712">
        <ele>59.74</ele>
        <time>2014-08-22T13:19:49Z</time>
      </trkpt>
      <trkpt lat="48.03983" lon="-4.35685">
        <ele>62.62</ele>
        <time>2014-08-22T13:20:06Z</time>
      </trkpt>
      <trkpt lat="48.03986" lon="-4.35667">
        <ele>65.51</ele>
        <time>2014-08-22T13:20:21Z</time>
      </trkpt>
      <trkpt lat="48.03988" lon="-4.35659">
        <ele>66.47</ele>
        <time>2014-08-22T13:20:29Z</time>
      </trkpt>
      <trkpt lat="48.03997" lon="-4.35656">
        <ele>66.47</ele>
        <time>2014-08-22T13:20:42Z</time>
      </trkpt>
      <trkpt lat="48.04009" lon="-4.35651">
        <ele>67.91</ele>
        <time>2014-08-22T13:20:55Z</time>
      </trkpt>
      <trkpt lat="48.04011" lon="-4.35647">
        <ele>68.87</ele>
        <time>2014-08-22T13:21:07Z</time>
      </trkpt>
      <trkpt lat="48.04012" lon="-4.35647">
        <ele>68.87</ele>
        <time>2014-08-22T13:21:24Z</time>
      </trkpt>
      <trkpt lat="48.04015" lon="-4.35646">
        <ele>69.83</ele>
        <time>2014-08-22T13:21:37Z</time>
      </trkpt>
      <trkpt lat="48.04024" lon="-4.35643">
        <ele>68.87</ele>
        <time>2014-08-22T13:21:52Z</time>
      </trkpt>
      <trkpt lat="48.04034" lon="-4.35641">
        <ele>68.87</ele>
        <time>2014-08-22T13:22:06Z</time>
      </trkpt>
      <trkpt lat="48.04044" lon="-4.3564">
        <ele>69.35</ele>
        <time>2014-08-22T13:22:21Z</time>
      </trkpt>
      <trkpt lat="48.04052" lon="-4.35636">
        <ele>71.76</ele>
        <time>2014-08-22T13:22:37Z</time>
      </trkpt>
      <trkpt lat="48.04061" lon="-4.35635">
        <ele>70.31</ele>
        <time>2014-08-22T13:22:49Z</time>
      </trkpt>
      <trkpt lat="48.04071" lon="-4.35633">
        <ele>71.27</ele>
        <time>2014-08-22T13:23:00Z</time>
      </trkpt>
      <trkpt lat="48.04072" lon="-4.35632">
        <ele>71.27</ele>
        <time>2014-08-22T13:23:01Z</time>
      </trkpt>
      <trkpt lat="48.04086" lon="-4.35629">
        <ele>71.76</ele>
        <time>2014-08-22T13:23:14Z</time>
      </trkpt>
      <trkpt lat="48.04098" lon="-4.35629">
        <ele>70.79</ele>
        <time>2014-08-22T13:23:26Z</time>
      </trkpt>
      <trkpt lat="48.04114" lon="-4.35624">
        <ele>70.79</ele>
        <time>2014-08-22T13:23:41Z</time>
      </trkpt>
      <trkpt lat="48.04127" lon="-4.35622">
        <ele>70.79</ele>
        <time>2014-08-22T13:23:53Z</time>
      </trkpt>
      <trkpt lat="48.04141" lon="-4.3562">
        <ele>70.79</ele>
        <time>2014-08-22T13:24:06Z</time>
      </trkpt>
      <trkpt lat="48.04157" lon="-4.35615">
        <ele>73.68</ele>
        <time>2014-08-22T13:24:20Z</time>
      </trkpt>
      <trkpt lat="48.04159" lon="-4.35613">
        <ele>74.16</ele>
        <time>2014-08-22T13:24:23Z</time>
      </trkpt>
      <trkpt lat="48.04162" lon="-4.35607">
        <ele>74.16</ele>
        <time>2014-08-22T13:24:27Z</time>
      </trkpt>
      <trkpt lat="48.04161" lon="-4.35594">
        <ele>74.16</ele>
        <time>2014-08-22T13:24:38Z</time>
      </trkpt>
      <trkpt lat="48.04156" lon="-4.35566">
        <ele>73.68</ele>
        <time>2014-08-22T13:24:54Z</time>
      </trkpt>
      <trkpt lat="48.04154" lon="-4.35544">
        <ele>70.79</ele>
        <time>2014-08-22T13:25:07Z</time>
      </trkpt>
      <trkpt lat="48.04155" lon="-4.3554">
        <ele>70.79</ele>
        <time>2014-08-22T13:25:10Z</time>
      </trkpt>
      <trkpt lat="48.0416" lon="-4.35526">
        <ele>71.27</ele>
        <time>2014-08-22T13:25:20Z</time>
      </trkpt>
      <trkpt lat="48.04167" lon="-4.35525">
        <ele>70.79</ele>
        <time>2014-08-22T13:25:27Z</time>
      </trkpt>
      <trkpt lat="48.04179" lon="-4.35527">
        <ele>69.83</ele>
        <time>2014-08-22T13:25:41Z</time>
      </trkpt>
      <trkpt lat="48.04188" lon="-4.35527">
        <ele>71.76</ele>
        <time>2014-08-22T13:25:49Z</time>
      </trkpt>
      <trkpt lat="48.04204" lon="-4.3553">
        <ele>72.72</ele>
        <time>2014-08-22T13:26:02Z</time>
      </trkpt>
      <trkpt lat="48.04215" lon="-4.35533">
        <ele>73.68</ele>
        <time>2014-08-22T13:26:12Z</time>
      </trkpt>
      <trkpt lat="48.04229" lon="-4.35533">
        <ele>75.6</ele>
        <time>2014-08-22T13:26:24Z</time>
      </trkpt>
      <trkpt lat="48.04243" lon="-4.35535">
        <ele>76.08</ele>
        <time>2014-08-22T13:26:38Z</time>
      </trkpt>
      <trkpt lat="48.04253" lon="-4.35537">
        <ele>76.08</ele>
        <time>2014-08-22T13:26:50Z</time>
      </trkpt>
      <trkpt lat="48.04266" lon="-4.3554">
        <ele>78</ele>
        <time>2014-08-22T13:27:01Z</time>
      </trkpt>
      <trkpt lat="48.04269" lon="-4.35539">
        <ele>77.52</ele>
        <time>2014-08-22T13:27:03Z</time>
      </trkpt>
      <trkpt lat="48.04274" lon="-4.35539">
        <ele>77.04</ele>
        <time>2014-08-22T13:27:07Z</time>
      </trkpt>
      <trkpt lat="48.04289" lon="-4.35541">
        <ele>75.6</ele>
        <time>2014-08-22T13:27:23Z</time>
      </trkpt>
      <trkpt lat="48.04304" lon="-4.35537">
        <ele>78.97</ele>
        <time>2014-08-22T13:27:36Z</time>
      </trkpt>
      <trkpt lat="48.04306" lon="-4.35534">
        <ele>78.48</ele>
        <time>2014-08-22T13:27:38Z</time>
      </trkpt>
      <trkpt lat="48.04311" lon="-4.35526">
        <ele>78</ele>
        <time>2014-08-22T13:27:43Z</time>
      </trkpt>
      <trkpt lat="48.04321" lon="-4.35499">
        <ele>79.45</ele>
        <time>2014-08-22T13:27:59Z</time>
      </trkpt>
      <trkpt lat="48.04328" lon="-4.35476">
        <ele>78.97</ele>
        <time>2014-08-22T13:28:12Z</time>
      </trkpt>
      <trkpt lat="48.0433" lon="-4.3547">
        <ele>78</ele>
        <time>2014-08-22T13:28:16Z</time>
      </trkpt>
      <trkpt lat="48.04339" lon="-4.35443">
        <ele>79.93</ele>
        <time>2014-08-22T13:28:33Z</time>
      </trkpt>
      <trkpt lat="48.04348" lon="-4.35417">
        <ele>77.52</ele>
        <time>2014-08-22T13:28:50Z</time>
      </trkpt>
      <trkpt lat="48.04356" lon="-4.35393">
        <ele>78.48</ele>
        <time>2014-08-22T13:29:05Z</time>
      </trkpt>
      <trkpt lat="48.04366" lon="-4.35366">
        <ele>76.08</ele>
        <time>2014-08-22T13:29:22Z</time>
      </trkpt>
      <trkpt lat="48.04371" lon="-4.3535">
        <ele>76.08</ele>
        <time>2014-08-22T13:29:31Z</time>
      </trkpt>
      <trkpt lat="48.04381" lon="-4.35323">
        <ele>75.6</ele>
        <time>2014-08-22T13:29:47Z</time>
      </trkpt>
      <trkpt lat="48.04391" lon="-4.35293">
        <ele>74.16</ele>
        <time>2014-08-22T13:30:05Z</time>
      </trkpt>
      <trkpt lat="48.04392" lon="-4.35289">
        <ele>74.16</ele>
        <time>2014-08-22T13:30:07Z</time>
      </trkpt>
      <trkpt lat="48.04395" lon="-4.35281">
        <ele>73.68</ele>
        <time>2014-08-22T13:30:11Z</time>
      </trkpt>
      <trkpt lat="48.04404" lon="-4.35255">
        <ele>73.2</ele>
        <time>2014-08-22T13:30:28Z</time>
      </trkpt>
      <trkpt lat="48.0441" lon="-4.35226">
        <ele>70.79</ele>
        <time>2014-08-22T13:30:44Z</time>
      </trkpt>
      <trkpt lat="48.04412" lon="-4.3522">
        <ele>70.31</ele>
        <time>2014-08-22T13:30:47Z</time>
      </trkpt>
      <trkpt lat="48.04421" lon="-4.35204">
        <ele>68.87</ele>
        <time>2014-08-22T13:31:02Z</time>
      </trkpt>
      <trkpt lat="48.04426" lon="-4.3518">
        <ele>67.91</ele>
        <time>2014-08-22T13:31:16Z</time>
      </trkpt>
      <trkpt lat="48.04427" lon="-4.35177">
        <ele>66.95</ele>
        <time>2014-08-22T13:31:19Z</time>
      </trkpt>
      <trkpt lat="48.04433" lon="-4.35158">
        <ele>66.47</ele>
        <time>2014-08-22T13:31:29Z</time>
      </trkpt>
      <trkpt lat="48.04436" lon="-4.35148">
        <ele>66.47</ele>
        <time>2014-08-22T13:31:35Z</time>
      </trkpt>
      <trkpt lat="48.04445" lon="-4.35133">
        <ele>65.99</ele>
        <time>2014-08-22T13:31:46Z</time>
      </trkpt>
      <trkpt lat="48.04449" lon="-4.35126">
        <ele>65.99</ele>
        <time>2014-08-22T13:31:58Z</time>
      </trkpt>
      <trkpt lat="48.0446" lon="-4.35121">
        <ele>65.03</ele>
        <time>2014-08-22T13:32:13Z</time>
      </trkpt>
      <trkpt lat="48.04469" lon="-4.35123">
        <ele>65.99</ele>
        <time>2014-08-22T13:32:20Z</time>
      </trkpt>
      <trkpt lat="48.04481" lon="-4.35131">
        <ele>65.51</ele>
        <time>2014-08-22T13:32:29Z</time>
      </trkpt>
      <trkpt lat="48.04492" lon="-4.35147">
        <ele>65.51</ele>
        <time>2014-08-22T13:32:44Z</time>
      </trkpt>
      <trkpt lat="48.04507" lon="-4.35154">
        <ele>67.91</ele>
        <time>2014-08-22T13:32:59Z</time>
      </trkpt>
      <trkpt lat="48.0453" lon="-4.35158">
        <ele>68.39</ele>
        <time>2014-08-22T13:33:11Z</time>
      </trkpt>
      <trkpt lat="48.04546" lon="-4.35159">
        <ele>65.99</ele>
        <time>2014-08-22T13:33:26Z</time>
      </trkpt>
      <trkpt lat="48.04561" lon="-4.35166">
        <ele>61.66</ele>
        <time>2014-08-22T13:33:40Z</time>
      </trkpt>
      <trkpt lat="48.04577" lon="-4.35178">
        <ele>58.3</ele>
        <time>2014-08-22T13:33:53Z</time>
      </trkpt>
      <trkpt lat="48.04593" lon="-4.35194">
        <ele>57.82</ele>
        <time>2014-08-22T13:34:06Z</time>
      </trkpt>
      <trkpt lat="48.04598" lon="-4.35211">
        <ele>53.97</ele>
        <time>2014-08-22T13:34:22Z</time>
      </trkpt>
      <trkpt lat="48.04609" lon="-4.35223">
        <ele>52.53</ele>
        <time>2014-08-22T13:34:33Z</time>
      </trkpt>
      <trkpt lat="48.04623" lon="-4.35233">
        <ele>55.41</ele>
        <time>2014-08-22T13:34:46Z</time>
      </trkpt>
      <trkpt lat="48.04637" lon="-4.35237">
        <ele>56.86</ele>
        <time>2014-08-22T13:34:59Z</time>
      </trkpt>
      <trkpt lat="48.04653" lon="-4.35236">
        <ele>56.37</ele>
        <time>2014-08-22T13:35:11Z</time>
      </trkpt>
      <trkpt lat="48.04668" lon="-4.35238">
        <ele>54.45</ele>
        <time>2014-08-22T13:35:24Z</time>
      </trkpt>
      <trkpt lat="48.04675" lon="-4.35235">
        <ele>55.41</ele>
        <time>2014-08-22T13:35:30Z</time>
      </trkpt>
      <trkpt lat="48.04689" lon="-4.35221">
        <ele>56.86</ele>
        <time>2014-08-22T13:35:47Z</time>
      </trkpt>
      <trkpt lat="48.04704" lon="-4.3521">
        <ele>57.34</ele>
        <time>2014-08-22T13:36:01Z</time>
      </trkpt>
      <trkpt lat="48.0472" lon="-4.35197">
        <ele>55.89</ele>
        <time>2014-08-22T13:36:16Z</time>
      </trkpt>
      <trkpt lat="48.04721" lon="-4.35197">
        <ele>55.89</ele>
        <time>2014-08-22T13:36:17Z</time>
      </trkpt>
      <trkpt lat="48.04742" lon="-4.35186">
        <ele>55.89</ele>
        <time>2014-08-22T13:36:34Z</time>
      </trkpt>
      <trkpt lat="48.04753" lon="-4.35184">
        <ele>54.45</ele>
        <time>2014-08-22T13:36:45Z</time>
      </trkpt>
      <trkpt lat="48.04768" lon="-4.35179">
        <ele>51.57</ele>
        <time>2014-08-22T13:37:00Z</time>
      </trkpt>
      <trkpt lat="48.04787" lon="-4.35177">
        <ele>49.65</ele>
        <time>2014-08-22T13:37:18Z</time>
      </trkpt>
      <trkpt lat="48.0481" lon="-4.35179">
        <ele>50.13</ele>
        <time>2014-08-22T13:37:37Z</time>
      </trkpt>
      <trkpt lat="48.04835" lon="-4.35174">
        <ele>50.13</ele>
        <time>2014-08-22T13:37:56Z</time>
      </trkpt>
      <trkpt lat="48.04864" lon="-4.35162">
        <ele>49.16</ele>
        <time>2014-08-22T13:38:16Z</time>
      </trkpt>
      <trkpt lat="48.04867" lon="-4.35159">
        <ele>49.65</ele>
        <time>2014-08-22T13:38:19Z</time>
      </trkpt>
      <trkpt lat="48.04883" lon="-4.35148">
        <ele>47.72</ele>
        <time>2014-08-22T13:38:35Z</time>
      </trkpt>
      <trkpt lat="48.04899" lon="-4.35129">
        <ele>47.72</ele>
        <time>2014-08-22T13:38:54Z</time>
      </trkpt>
      <trkpt lat="48.04908" lon="-4.35105">
        <ele>46.76</ele>
        <time>2014-08-22T13:39:13Z</time>
      </trkpt>
      <trkpt lat="48.04918" lon="-4.35085">
        <ele>51.57</ele>
        <time>2014-08-22T13:39:28Z</time>
      </trkpt>
      <trkpt lat="48.04923" lon="-4.35068">
        <ele>56.37</ele>
        <time>2014-08-22T13:39:41Z</time>
      </trkpt>
      <trkpt lat="48.04926" lon="-4.35066">
        <ele>55.41</ele>
        <time>2014-08-22T13:39:44Z</time>
      </trkpt>
      <trkpt lat="48.04941" lon="-4.3506">
        <ele>53.01</ele>
        <time>2014-08-22T13:39:59Z</time>
      </trkpt>
      <trkpt lat="48.04953" lon="-4.35056">
        <ele>52.05</ele>
        <time>2014-08-22T13:40:12Z</time>
      </trkpt>
      <trkpt lat="48.04967" lon="-4.35053">
        <ele>52.53</ele>
        <time>2014-08-22T13:40:23Z</time>
      </trkpt>
      <trkpt lat="48.04973" lon="-4.3505">
        <ele>52.05</ele>
        <time>2014-08-22T13:40:27Z</time>
      </trkpt>
      <trkpt lat="48.04981" lon="-4.3505">
        <ele>52.53</ele>
        <time>2014-08-22T13:40:34Z</time>
      </trkpt>
      <trkpt lat="48.04989" lon="-4.35049">
        <ele>52.53</ele>
        <time>2014-08-22T13:40:40Z</time>
      </trkpt>
      <trkpt lat="48.04991" lon="-4.35049">
        <ele>52.53</ele>
        <time>2014-08-22T13:40:42Z</time>
      </trkpt>
      <trkpt lat="48.04997" lon="-4.35048">
        <ele>53.49</ele>
        <time>2014-08-22T13:40:48Z</time>
      </trkpt>
      <trkpt lat="48.05" lon="-4.35049">
        <ele>53.49</ele>
        <time>2014-08-22T13:40:51Z</time>
      </trkpt>
      <trkpt lat="48.0502" lon="-4.35048">
        <ele>52.53</ele>
        <time>2014-08-22T13:41:06Z</time>
      </trkpt>
      <trkpt lat="48.05037" lon="-4.35051">
        <ele>53.01</ele>
        <time>2014-08-22T13:41:22Z</time>
      </trkpt>
      <trkpt lat="48.05052" lon="-4.35052">
        <ele>51.57</ele>
        <time>2014-08-22T13:41:33Z</time>
      </trkpt>
      <trkpt lat="48.05071" lon="-4.35054">
        <ele>52.05</ele>
        <time>2014-08-22T13:41:48Z</time>
      </trkpt>
      <trkpt lat="48.05071" lon="-4.35053">
        <ele>52.05</ele>
        <time>2014-08-22T13:41:49Z</time>
      </trkpt>
      <trkpt lat="48.05072" lon="-4.35043">
        <ele>52.05</ele>
        <time>2014-08-22T13:41:55Z</time>
      </trkpt>
      <trkpt lat="48.05078" lon="-4.35027">
        <ele>52.05</ele>
        <time>2014-08-22T13:42:06Z</time>
      </trkpt>
      <trkpt lat="48.05081" lon="-4.35">
        <ele>50.61</ele>
        <time>2014-08-22T13:42:21Z</time>
      </trkpt>
      <trkpt lat="48.05082" lon="-4.34995">
        <ele>51.09</ele>
        <time>2014-08-22T13:42:24Z</time>
      </trkpt>
      <trkpt lat="48.05086" lon="-4.34968">
        <ele>50.61</ele>
        <time>2014-08-22T13:42:38Z</time>
      </trkpt>
      <trkpt lat="48.05095" lon="-4.34951">
        <ele>49.65</ele>
        <time>2014-08-22T13:42:50Z</time>
      </trkpt>
      <trkpt lat="48.05101" lon="-4.34953">
        <ele>51.57</ele>
        <time>2014-08-22T13:43:03Z</time>
      </trkpt>
      <trkpt lat="48.05109" lon="-4.34956">
        <ele>50.61</ele>
        <time>2014-08-22T13:43:10Z</time>
      </trkpt>
      <trkpt lat="48.05126" lon="-4.34963">
        <ele>51.57</ele>
        <time>2014-08-22T13:43:21Z</time>
      </trkpt>
      <trkpt lat="48.05142" lon="-4.34966">
        <ele>53.49</ele>
        <time>2014-08-22T13:43:33Z</time>
      </trkpt>
      <trkpt lat="48.0515" lon="-4.3497">
        <ele>53.97</ele>
        <time>2014-08-22T13:43:46Z</time>
      </trkpt>
      <trkpt lat="48.05171" lon="-4.34981">
        <ele>55.41</ele>
        <time>2014-08-22T13:44:00Z</time>
      </trkpt>
      <trkpt lat="48.05187" lon="-4.34994">
        <ele>56.86</ele>
        <time>2014-08-22T13:44:16Z</time>
      </trkpt>
      <trkpt lat="48.05211" lon="-4.35008">
        <ele>54.45</ele>
        <time>2014-08-22T13:44:34Z</time>
      </trkpt>
      <trkpt lat="48.0523" lon="-4.35016">
        <ele>53.49</ele>
        <time>2014-08-22T13:44:50Z</time>
      </trkpt>
      <trkpt lat="48.05251" lon="-4.35022">
        <ele>51.57</ele>
        <time>2014-08-22T13:45:05Z</time>
      </trkpt>
      <trkpt lat="48.05266" lon="-4.35029">
        <ele>55.89</ele>
        <time>2014-08-22T13:45:23Z</time>
      </trkpt>
      <trkpt lat="48.05277" lon="-4.35033">
        <ele>56.86</ele>
        <time>2014-08-22T13:45:36Z</time>
      </trkpt>
      <trkpt lat="48.05279" lon="-4.35045">
        <ele>55.89</ele>
        <time>2014-08-22T13:45:48Z</time>
      </trkpt>
      <trkpt lat="48.05291" lon="-4.35072">
        <ele>59.26</ele>
        <time>2014-08-22T13:46:03Z</time>
      </trkpt>
      <trkpt lat="48.05294" lon="-4.35077">
        <ele>59.74</ele>
        <time>2014-08-22T13:46:09Z</time>
      </trkpt>
      <trkpt lat="48.05303" lon="-4.35097">
        <ele>62.62</ele>
        <time>2014-08-22T13:46:23Z</time>
      </trkpt>
      <trkpt lat="48.05305" lon="-4.35106">
        <ele>62.62</ele>
        <time>2014-08-22T13:46:30Z</time>
      </trkpt>
      <trkpt lat="48.05312" lon="-4.35125">
        <ele>61.18</ele>
        <time>2014-08-22T13:46:43Z</time>
      </trkpt>
      <trkpt lat="48.05318" lon="-4.35144">
        <ele>59.26</ele>
        <time>2014-08-22T13:46:58Z</time>
      </trkpt>
      <trkpt lat="48.05319" lon="-4.35143">
        <ele>59.74</ele>
        <time>2014-08-22T13:47:18Z</time>
      </trkpt>
      <trkpt lat="48.05319" lon="-4.35145">
        <ele>59.26</ele>
        <time>2014-08-22T13:47:35Z</time>
      </trkpt>
      <trkpt lat="48.0532" lon="-4.35145">
        <ele>59.26</ele>
        <time>2014-08-22T13:47:59Z</time>
      </trkpt>
      <trkpt lat="48.05321" lon="-4.35144">
        <ele>57.82</ele>
        <time>2014-08-22T13:48:24Z</time>
      </trkpt>
      <trkpt lat="48.05322" lon="-4.35145">
        <ele>58.3</ele>
        <time>2014-08-22T13:48:47Z</time>
      </trkpt>
      <trkpt lat="48.05328" lon="-4.35165">
        <ele>56.37</ele>
        <time>2014-08-22T13:49:03Z</time>
      </trkpt>
      <trkpt lat="48.05332" lon="-4.35178">
        <ele>56.86</ele>
        <time>2014-08-22T13:49:10Z</time>
      </trkpt>
      <trkpt lat="48.0534" lon="-4.35197">
        <ele>60.7</ele>
        <time>2014-08-22T13:49:23Z</time>
      </trkpt>
      <trkpt lat="48.05342" lon="-4.35208">
        <ele>57.82</ele>
        <time>2014-08-22T13:49:34Z</time>
      </trkpt>
      <trkpt lat="48.05351" lon="-4.35227">
        <ele>53.97</ele>
        <time>2014-08-22T13:49:48Z</time>
      </trkpt>
      <trkpt lat="48.05354" lon="-4.35233">
        <ele>52.05</ele>
        <time>2014-08-22T13:49:53Z</time>
      </trkpt>
      <trkpt lat="48.05363" lon="-4.35237">
        <ele>50.61</ele>
        <time>2014-08-22T13:50:00Z</time>
      </trkpt>
      <trkpt lat="48.05368" lon="-4.35242">
        <ele>51.09</ele>
        <time>2014-08-22T13:50:05Z</time>
      </trkpt>
      <trkpt lat="48.05383" lon="-4.35246">
        <ele>53.01</ele>
        <time>2014-08-22T13:50:17Z</time>
      </trkpt>
      <trkpt lat="48.05396" lon="-4.35248">
        <ele>55.89</ele>
        <time>2014-08-22T13:50:27Z</time>
      </trkpt>
      <trkpt lat="48.05403" lon="-4.35252">
        <ele>55.41</ele>
        <time>2014-08-22T13:50:32Z</time>
      </trkpt>
      <trkpt lat="48.05408" lon="-4.35252">
        <ele>55.89</ele>
        <time>2014-08-22T13:50:35Z</time>
      </trkpt>
      <trkpt lat="48.05413" lon="-4.35255">
        <ele>55.41</ele>
        <time>2014-08-22T13:50:40Z</time>
      </trkpt>
      <trkpt lat="48.05419" lon="-4.35259">
        <ele>55.41</ele>
        <time>2014-08-22T13:50:45Z</time>
      </trkpt>
      <trkpt lat="48.05425" lon="-4.35261">
        <ele>54.93</ele>
        <time>2014-08-22T13:50:51Z</time>
      </trkpt>
      <trkpt lat="48.05441" lon="-4.35268">
        <ele>56.86</ele>
        <time>2014-08-22T13:51:04Z</time>
      </trkpt>
      <trkpt lat="48.05445" lon="-4.35268">
        <ele>56.37</ele>
        <time>2014-08-22T13:51:08Z</time>
      </trkpt>
      <trkpt lat="48.05447" lon="-4.35255">
        <ele>55.89</ele>
        <time>2014-08-22T13:51:21Z</time>
      </trkpt>
      <trkpt lat="48.05449" lon="-4.35245">
        <ele>54.93</ele>
        <time>2014-08-22T13:51:32Z</time>
      </trkpt>
      <trkpt lat="48.0545" lon="-4.35229">
        <ele>53.97</ele>
        <time>2014-08-22T13:51:42Z</time>
      </trkpt>
      <trkpt lat="48.05453" lon="-4.35212">
        <ele>53.49</ele>
        <time>2014-08-22T13:51:52Z</time>
      </trkpt>
      <trkpt lat="48.05457" lon="-4.3519">
        <ele>54.45</ele>
        <time>2014-08-22T13:52:04Z</time>
      </trkpt>
      <trkpt lat="48.05458" lon="-4.35177">
        <ele>55.89</ele>
        <time>2014-08-22T13:52:15Z</time>
      </trkpt>
      <trkpt lat="48.05466" lon="-4.35156">
        <ele>56.86</ele>
        <time>2014-08-22T13:52:29Z</time>
      </trkpt>
      <trkpt lat="48.05468" lon="-4.35149">
        <ele>56.37</ele>
        <time>2014-08-22T13:52:33Z</time>
      </trkpt>
      <trkpt lat="48.05475" lon="-4.35135">
        <ele>56.37</ele>
        <time>2014-08-22T13:52:46Z</time>
      </trkpt>
      <trkpt lat="48.05486" lon="-4.35133">
        <ele>61.66</ele>
        <time>2014-08-22T13:53:00Z</time>
      </trkpt>
      <trkpt lat="48.0549" lon="-4.35132">
        <ele>62.62</ele>
        <time>2014-08-22T13:53:05Z</time>
      </trkpt>
      <trkpt lat="48.05496" lon="-4.35138">
        <ele>64.55</ele>
        <time>2014-08-22T13:53:16Z</time>
      </trkpt>
      <trkpt lat="48.05515" lon="-4.35133">
        <ele>66.95</ele>
        <time>2014-08-22T13:53:29Z</time>
      </trkpt>
      <trkpt lat="48.0553" lon="-4.35123">
        <ele>68.87</ele>
        <time>2014-08-22T13:53:43Z</time>
      </trkpt>
      <trkpt lat="48.0554" lon="-4.35128">
        <ele>69.83</ele>
        <time>2014-08-22T13:53:54Z</time>
      </trkpt>
      <trkpt lat="48.05556" lon="-4.35126">
        <ele>70.31</ele>
        <time>2014-08-22T13:54:07Z</time>
      </trkpt>
      <trkpt lat="48.05564" lon="-4.3513">
        <ele>69.83</ele>
        <time>2014-08-22T13:54:20Z</time>
      </trkpt>
      <trkpt lat="48.0558" lon="-4.35136">
        <ele>71.76</ele>
        <time>2014-08-22T13:54:36Z</time>
      </trkpt>
      <trkpt lat="48.05587" lon="-4.35142">
        <ele>72.24</ele>
        <time>2014-08-22T13:54:43Z</time>
      </trkpt>
      <trkpt lat="48.05604" lon="-4.35136">
        <ele>78</ele>
        <time>2014-08-22T13:54:56Z</time>
      </trkpt>
      <trkpt lat="48.05613" lon="-4.35115">
        <ele>79.93</ele>
        <time>2014-08-22T13:55:08Z</time>
      </trkpt>
      <trkpt lat="48.05621" lon="-4.35099">
        <ele>78.48</ele>
        <time>2014-08-22T13:55:22Z</time>
      </trkpt>
      <trkpt lat="48.05626" lon="-4.35087">
        <ele>77.52</ele>
        <time>2014-08-22T13:55:30Z</time>
      </trkpt>
      <trkpt lat="48.05633" lon="-4.35079">
        <ele>79.93</ele>
        <time>2014-08-22T13:55:41Z</time>
      </trkpt>
      <trkpt lat="48.05643" lon="-4.3508">
        <ele>79.45</ele>
        <time>2014-08-22T13:55:59Z</time>
      </trkpt>
      <trkpt lat="48.05659" lon="-4.35073">
        <ele>79.93</ele>
        <time>2014-08-22T13:56:14Z</time>
      </trkpt>
      <trkpt lat="48.05668" lon="-4.35042">
        <ele>79.45</ele>
        <time>2014-08-22T13:56:30Z</time>
      </trkpt>
      <trkpt lat="48.05667" lon="-4.35021">
        <ele>78</ele>
        <time>2014-08-22T13:56:44Z</time>
      </trkpt>
      <trkpt lat="48.05669" lon="-4.34993">
        <ele>76.08</ele>
        <time>2014-08-22T13:57:02Z</time>
      </trkpt>
      <trkpt lat="48.05671" lon="-4.34989">
        <ele>76.56</ele>
        <time>2014-08-22T13:57:05Z</time>
      </trkpt>
      <trkpt lat="48.05673" lon="-4.34956">
        <ele>78.97</ele>
        <time>2014-08-22T13:57:21Z</time>
      </trkpt>
      <trkpt lat="48.05678" lon="-4.34924">
        <ele>80.41</ele>
        <time>2014-08-22T13:57:38Z</time>
      </trkpt>
      <trkpt lat="48.05679" lon="-4.34897">
        <ele>84.73</ele>
        <time>2014-08-22T13:57:55Z</time>
      </trkpt>
      <trkpt lat="48.05685" lon="-4.34871">
        <ele>85.21</ele>
        <time>2014-08-22T13:58:10Z</time>
      </trkpt>
      <trkpt lat="48.05682" lon="-4.34844">
        <ele>87.62</ele>
        <time>2014-08-22T13:58:25Z</time>
      </trkpt>
      <trkpt lat="48.05686" lon="-4.34824">
        <ele>89.54</ele>
        <time>2014-08-22T13:58:40Z</time>
      </trkpt>
      <trkpt lat="48.05697" lon="-4.34818">
        <ele>88.1</ele>
        <time>2014-08-22T13:58:48Z</time>
      </trkpt>
      <trkpt lat="48.05701" lon="-4.3481">
        <ele>86.66</ele>
        <time>2014-08-22T13:59:01Z</time>
      </trkpt>
      <trkpt lat="48.05705" lon="-4.34807">
        <ele>85.21</ele>
        <time>2014-08-22T13:59:16Z</time>
      </trkpt>
      <trkpt lat="48.05707" lon="-4.34806">
        <ele>83.77</ele>
        <time>2014-08-22T13:59:41Z</time>
      </trkpt>
      <trkpt lat="48.05708" lon="-4.34805">
        <ele>83.29</ele>
        <time>2014-08-22T14:00:01Z</time>
      </trkpt>
      <trkpt lat="48.05709" lon="-4.34804">
        <ele>82.33</ele>
        <time>2014-08-22T14:00:27Z</time>
      </trkpt>
      <trkpt lat="48.0571" lon="-4.34802">
        <ele>81.85</ele>
        <time>2014-08-22T14:00:53Z</time>
      </trkpt>
      <trkpt lat="48.0571" lon="-4.34801">
        <ele>81.37</ele>
        <time>2014-08-22T14:01:23Z</time>
      </trkpt>
      <trkpt lat="48.05711" lon="-4.348">
        <ele>81.37</ele>
        <time>2014-08-22T14:01:51Z</time>
      </trkpt>
      <trkpt lat="48.05712" lon="-4.34799">
        <ele>80.89</ele>
        <time>2014-08-22T14:02:11Z</time>
      </trkpt>
      <trkpt lat="48.05713" lon="-4.34799">
        <ele>80.41</ele>
        <time>2014-08-22T14:02:29Z</time>
      </trkpt>
      <trkpt lat="48.05714" lon="-4.34799">
        <ele>79.45</ele>
        <time>2014-08-22T14:02:42Z</time>
      </trkpt>
      <trkpt lat="48.05714" lon="-4.34799">
        <ele>79.93</ele>
        <time>2014-08-22T14:03:08Z</time>
      </trkpt>
      <trkpt lat="48.05715" lon="-4.34798">
        <ele>80.41</ele>
        <time>2014-08-22T14:03:35Z</time>
      </trkpt>
      <trkpt lat="48.05715" lon="-4.34798">
        <ele>79.93</ele>
        <time>2014-08-22T14:04:01Z</time>
      </trkpt>
      <trkpt lat="48.05715" lon="-4.34797">
        <ele>80.41</ele>
        <time>2014-08-22T14:04:25Z</time>
      </trkpt>
      <trkpt lat="48.05716" lon="-4.34797">
        <ele>79.93</ele>
        <time>2014-08-22T14:04:33Z</time>
      </trkpt>
      <trkpt lat="48.05723" lon="-4.34797">
        <ele>79.45</ele>
        <time>2014-08-22T14:04:46Z</time>
      </trkpt>
      <trkpt lat="48.0573" lon="-4.34797">
        <ele>78.97</ele>
        <time>2014-08-22T14:04:58Z</time>
      </trkpt>
      <trkpt lat="48.0574" lon="-4.34792">
        <ele>78.48</ele>
        <time>2014-08-22T14:05:10Z</time>
      </trkpt>
      <trkpt lat="48.05757" lon="-4.34795">
        <ele>78.97</ele>
        <time>2014-08-22T14:05:24Z</time>
      </trkpt>
      <trkpt lat="48.05772" lon="-4.34794">
        <ele>78</ele>
        <time>2014-08-22T14:05:37Z</time>
      </trkpt>
      <trkpt lat="48.05778" lon="-4.34793">
        <ele>79.45</ele>
        <time>2014-08-22T14:05:48Z</time>
      </trkpt>
      <trkpt lat="48.05782" lon="-4.34796">
        <ele>79.45</ele>
        <time>2014-08-22T14:06:02Z</time>
      </trkpt>
      <trkpt lat="48.05787" lon="-4.348">
        <ele>78.97</ele>
        <time>2014-08-22T14:06:07Z</time>
      </trkpt>
      <trkpt lat="48.058" lon="-4.3481">
        <ele>78.97</ele>
        <time>2014-08-22T14:06:22Z</time>
      </trkpt>
      <trkpt lat="48.05815" lon="-4.34822">
        <ele>74.64</ele>
        <time>2014-08-22T14:06:38Z</time>
      </trkpt>
      <trkpt lat="48.05843" lon="-4.34835">
        <ele>69.35</ele>
        <time>2014-08-22T14:06:55Z</time>
      </trkpt>
      <trkpt lat="48.05853" lon="-4.34843">
        <ele>71.76</ele>
        <time>2014-08-22T14:07:05Z</time>
      </trkpt>
      <trkpt lat="48.0587" lon="-4.3484">
        <ele>73.68</ele>
        <time>2014-08-22T14:07:17Z</time>
      </trkpt>
      <trkpt lat="48.05891" lon="-4.34838">
        <ele>74.64</ele>
        <time>2014-08-22T14:07:29Z</time>
      </trkpt>
      <trkpt lat="48.05894" lon="-4.34838">
        <ele>74.64</ele>
        <time>2014-08-22T14:07:31Z</time>
      </trkpt>
      <trkpt lat="48.05908" lon="-4.34831">
        <ele>72.72</ele>
        <time>2014-08-22T14:07:42Z</time>
      </trkpt>
      <trkpt lat="48.05921" lon="-4.34834">
        <ele>68.39</ele>
        <time>2014-08-22T14:07:55Z</time>
      </trkpt>
      <trkpt lat="48.05934" lon="-4.34842">
        <ele>65.03</ele>
        <time>2014-08-22T14:08:07Z</time>
      </trkpt>
      <trkpt lat="48.05947" lon="-4.34847">
        <ele>63.1</ele>
        <time>2014-08-22T14:08:20Z</time>
      </trkpt>
      <trkpt lat="48.05952" lon="-4.34862">
        <ele>61.66</ele>
        <time>2014-08-22T14:08:35Z</time>
      </trkpt>
      <trkpt lat="48.05953" lon="-4.34863">
        <ele>62.14</ele>
        <time>2014-08-22T14:08:36Z</time>
      </trkpt>
      <trkpt lat="48.05945" lon="-4.34889">
        <ele>62.14</ele>
        <time>2014-08-22T14:08:51Z</time>
      </trkpt>
      <trkpt lat="48.05937" lon="-4.34912">
        <ele>61.66</ele>
        <time>2014-08-22T14:09:03Z</time>
      </trkpt>
      <trkpt lat="48.05932" lon="-4.34929">
        <ele>63.58</ele>
        <time>2014-08-22T14:09:16Z</time>
      </trkpt>
      <trkpt lat="48.05922" lon="-4.34951">
        <ele>65.03</ele>
        <time>2014-08-22T14:09:29Z</time>
      </trkpt>
      <trkpt lat="48.05912" lon="-4.34974">
        <ele>65.51</ele>
        <time>2014-08-22T14:09:43Z</time>
      </trkpt>
      <trkpt lat="48.05917" lon="-4.34989">
        <ele>63.58</ele>
        <time>2014-08-22T14:09:58Z</time>
      </trkpt>
      <trkpt lat="48.05922" lon="-4.34997">
        <ele>61.18</ele>
        <time>2014-08-22T14:10:10Z</time>
      </trkpt>
      <trkpt lat="48.0593" lon="-4.35008">
        <ele>56.37</ele>
        <time>2014-08-22T14:10:22Z</time>
      </trkpt>
      <trkpt lat="48.05936" lon="-4.35012">
        <ele>53.49</ele>
        <time>2014-08-22T14:10:27Z</time>
      </trkpt>
      <trkpt lat="48.05946" lon="-4.35021">
        <ele>51.09</ele>
        <time>2014-08-22T14:10:38Z</time>
      </trkpt>
      <trkpt lat="48.05954" lon="-4.35031">
        <ele>52.53</ele>
        <time>2014-08-22T14:10:47Z</time>
      </trkpt>
      <trkpt lat="48.05967" lon="-4.35032">
        <ele>56.37</ele>
        <time>2014-08-22T14:10:58Z</time>
      </trkpt>
      <trkpt lat="48.05977" lon="-4.35021">
        <ele>57.82</ele>
        <time>2014-08-22T14:11:11Z</time>
      </trkpt>
      <trkpt lat="48.05978" lon="-4.35017">
        <ele>58.3</ele>
        <time>2014-08-22T14:11:14Z</time>
      </trkpt>
      <trkpt lat="48.05985" lon="-4.35003">
        <ele>57.82</ele>
        <time>2014-08-22T14:11:30Z</time>
      </trkpt>
      <trkpt lat="48.05986" lon="-4.35003">
        <ele>57.34</ele>
        <time>2014-08-22T14:11:33Z</time>
      </trkpt>
      <trkpt lat="48.06001" lon="-4.34996">
        <ele>56.37</ele>
        <time>2014-08-22T14:11:48Z</time>
      </trkpt>
      <trkpt lat="48.06005" lon="-4.34973">
        <ele>51.57</ele>
        <time>2014-08-22T14:12:03Z</time>
      </trkpt>
      <trkpt lat="48.06003" lon="-4.34956">
        <ele>47.72</ele>
        <time>2014-08-22T14:12:16Z</time>
      </trkpt>
      <trkpt lat="48.06002" lon="-4.34946">
        <ele>46.28</ele>
        <time>2014-08-22T14:12:28Z</time>
      </trkpt>
      <trkpt lat="48.06003" lon="-4.34939">
        <ele>45.32</ele>
        <time>2014-08-22T14:12:32Z</time>
      </trkpt>
      <trkpt lat="48.06004" lon="-4.34919">
        <ele>42.92</ele>
        <time>2014-08-22T14:12:46Z</time>
      </trkpt>
      <trkpt lat="48.06" lon="-4.34896">
        <ele>41.47</ele>
        <time>2014-08-22T14:12:59Z</time>
      </trkpt>
      <trkpt lat="48.06008" lon="-4.34873">
        <ele>41.47</ele>
        <time>2014-08-22T14:13:13Z</time>
      </trkpt>
      <trkpt lat="48.06011" lon="-4.34849">
        <ele>44.36</ele>
        <time>2014-08-22T14:13:27Z</time>
      </trkpt>
      <trkpt lat="48.06012" lon="-4.34845">
        <ele>44.36</ele>
        <time>2014-08-22T14:13:29Z</time>
      </trkpt>
      <trkpt lat="48.0602" lon="-4.34811">
        <ele>47.24</ele>
        <time>2014-08-22T14:13:49Z</time>
      </trkpt>
      <trkpt lat="48.06026" lon="-4.34795">
        <ele>48.2</ele>
        <time>2014-08-22T14:14:05Z</time>
      </trkpt>
      <trkpt lat="48.06032" lon="-4.34777">
        <ele>49.16</ele>
        <time>2014-08-22T14:14:19Z</time>
      </trkpt>
      <trkpt lat="48.0604" lon="-4.34765">
        <ele>50.13</ele>
        <time>2014-08-22T14:14:34Z</time>
      </trkpt>
      <trkpt lat="48.06061" lon="-4.34746">
        <ele>53.97</ele>
        <time>2014-08-22T14:14:50Z</time>
      </trkpt>
      <trkpt lat="48.06086" lon="-4.34725">
        <ele>54.93</ele>
        <time>2014-08-22T14:15:07Z</time>
      </trkpt>
      <trkpt lat="48.06099" lon="-4.34711">
        <ele>53.49</ele>
        <time>2014-08-22T14:15:22Z</time>
      </trkpt>
      <trkpt lat="48.06112" lon="-4.34717">
        <ele>55.89</ele>
        <time>2014-08-22T14:15:39Z</time>
      </trkpt>
      <trkpt lat="48.06128" lon="-4.34742">
        <ele>58.78</ele>
        <time>2014-08-22T14:15:55Z</time>
      </trkpt>
      <trkpt lat="48.0614" lon="-4.34764">
        <ele>57.34</ele>
        <time>2014-08-22T14:16:13Z</time>
      </trkpt>
      <trkpt lat="48.06154" lon="-4.34786">
        <ele>55.89</ele>
        <time>2014-08-22T14:16:31Z</time>
      </trkpt>
      <trkpt lat="48.06157" lon="-4.34813">
        <ele>53.49</ele>
        <time>2014-08-22T14:16:45Z</time>
      </trkpt>
      <trkpt lat="48.0616" lon="-4.34832">
        <ele>52.53</ele>
        <time>2014-08-22T14:17:00Z</time>
      </trkpt>
      <trkpt lat="48.06167" lon="-4.34858">
        <ele>47.24</ele>
        <time>2014-08-22T14:17:16Z</time>
      </trkpt>
      <trkpt lat="48.06171" lon="-4.34889">
        <ele>41.47</ele>
        <time>2014-08-22T14:17:34Z</time>
      </trkpt>
      <trkpt lat="48.06173" lon="-4.34924">
        <ele>39.55</ele>
        <time>2014-08-22T14:17:51Z</time>
      </trkpt>
      <trkpt lat="48.06173" lon="-4.34932">
        <ele>39.07</ele>
        <time>2014-08-22T14:17:56Z</time>
      </trkpt>
      <trkpt lat="48.06173" lon="-4.34952">
        <ele>34.26</ele>
        <time>2014-08-22T14:18:09Z</time>
      </trkpt>
      <trkpt lat="48.06178" lon="-4.34976">
        <ele>29.46</ele>
        <time>2014-08-22T14:18:24Z</time>
      </trkpt>
      <trkpt lat="48.0618" lon="-4.34981">
        <ele>30.9</ele>
        <time>2014-08-22T14:18:26Z</time>
      </trkpt>
      <trkpt lat="48.0619" lon="-4.34999">
        <ele>35.71</ele>
        <time>2014-08-22T14:18:38Z</time>
      </trkpt>
      <trkpt lat="48.06197" lon="-4.35017">
        <ele>37.15</ele>
        <time>2014-08-22T14:18:51Z</time>
      </trkpt>
      <trkpt lat="48.06206" lon="-4.35044">
        <ele>38.11</ele>
        <time>2014-08-22T14:19:05Z</time>
      </trkpt>
      <trkpt lat="48.06216" lon="-4.35066">
        <ele>37.63</ele>
        <time>2014-08-22T14:19:20Z</time>
      </trkpt>
      <trkpt lat="48.06222" lon="-4.35085">
        <ele>38.59</ele>
        <time>2014-08-22T14:19:34Z</time>
      </trkpt>
      <trkpt lat="48.06234" lon="-4.35111">
        <ele>37.15</ele>
        <time>2014-08-22T14:19:50Z</time>
      </trkpt>
      <trkpt lat="48.0624" lon="-4.35127">
        <ele>34.26</ele>
        <time>2014-08-22T14:20:01Z</time>
      </trkpt>
      <trkpt lat="48.06246" lon="-4.35128">
        <ele>32.82</ele>
        <time>2014-08-22T14:20:06Z</time>
      </trkpt>
      <trkpt lat="48.0625" lon="-4.35151">
        <ele>30.9</ele>
        <time>2014-08-22T14:20:18Z</time>
      </trkpt>
      <trkpt lat="48.0625" lon="-4.35168">
        <ele>31.38</ele>
        <time>2014-08-22T14:20:28Z</time>
      </trkpt>
      <trkpt lat="48.06254" lon="-4.35191">
        <ele>33.78</ele>
        <time>2014-08-22T14:20:39Z</time>
      </trkpt>
      <trkpt lat="48.06256" lon="-4.3521">
        <ele>36.19</ele>
        <time>2014-08-22T14:20:52Z</time>
      </trkpt>
      <trkpt lat="48.06257" lon="-4.35211">
        <ele>36.19</ele>
        <time>2014-08-22T14:20:53Z</time>
      </trkpt>
      <trkpt lat="48.06259" lon="-4.35228">
        <ele>39.07</ele>
        <time>2014-08-22T14:21:02Z</time>
      </trkpt>
      <trkpt lat="48.06261" lon="-4.35236">
        <ele>35.71</ele>
        <time>2014-08-22T14:21:07Z</time>
      </trkpt>
      <trkpt lat="48.06271" lon="-4.35255">
        <ele>33.3</ele>
        <time>2014-08-22T14:21:19Z</time>
      </trkpt>
      <trkpt lat="48.06274" lon="-4.35259">
        <ele>32.34</ele>
        <time>2014-08-22T14:21:22Z</time>
      </trkpt>
      <trkpt lat="48.06276" lon="-4.35269">
        <ele>31.86</ele>
        <time>2014-08-22T14:21:28Z</time>
      </trkpt>
      <trkpt lat="48.0628" lon="-4.35274">
        <ele>31.86</ele>
        <time>2014-08-22T14:21:32Z</time>
      </trkpt>
      <trkpt lat="48.06291" lon="-4.35274">
        <ele>31.86</ele>
        <time>2014-08-22T14:21:43Z</time>
      </trkpt>
      <trkpt lat="48.06304" lon="-4.35262">
        <ele>34.26</ele>
        <time>2014-08-22T14:21:55Z</time>
      </trkpt>
      <trkpt lat="48.06309" lon="-4.35241">
        <ele>36.19</ele>
        <time>2014-08-22T14:22:11Z</time>
      </trkpt>
      <trkpt lat="48.06313" lon="-4.35204">
        <ele>39.55</ele>
        <time>2014-08-22T14:22:29Z</time>
      </trkpt>
      <trkpt lat="48.06318" lon="-4.3518">
        <ele>43.4</ele>
        <time>2014-08-22T14:22:43Z</time>
      </trkpt>
      <trkpt lat="48.06316" lon="-4.35155">
        <ele>45.32</ele>
        <time>2014-08-22T14:22:59Z</time>
      </trkpt>
      <trkpt lat="48.06321" lon="-4.35129">
        <ele>47.72</ele>
        <time>2014-08-22T14:23:15Z</time>
      </trkpt>
      <trkpt lat="48.06323" lon="-4.35097">
        <ele>46.76</ele>
        <time>2014-08-22T14:23:31Z</time>
      </trkpt>
      <trkpt lat="48.06323" lon="-4.35093">
        <ele>46.76</ele>
        <time>2014-08-22T14:23:34Z</time>
      </trkpt>
      <trkpt lat="48.06324" lon="-4.3507">
        <ele>46.28</ele>
        <time>2014-08-22T14:23:48Z</time>
      </trkpt>
      <trkpt lat="48.06328" lon="-4.35038">
        <ele>43.88</ele>
        <time>2014-08-22T14:24:06Z</time>
      </trkpt>
      <trkpt lat="48.06328" lon="-4.35018">
        <ele>46.76</ele>
        <time>2014-08-22T14:24:20Z</time>
      </trkpt>
      <trkpt lat="48.0633" lon="-4.34985">
        <ele>50.13</ele>
        <time>2014-08-22T14:24:40Z</time>
      </trkpt>
      <trkpt lat="48.06333" lon="-4.34977">
        <ele>49.65</ele>
        <time>2014-08-22T14:24:47Z</time>
      </trkpt>
      <trkpt lat="48.0634" lon="-4.34951">
        <ele>54.45</ele>
        <time>2014-08-22T14:25:05Z</time>
      </trkpt>
      <trkpt lat="48.06342" lon="-4.34944">
        <ele>55.41</ele>
        <time>2014-08-22T14:25:10Z</time>
      </trkpt>
      <trkpt lat="48.06351" lon="-4.34916">
        <ele>55.41</ele>
        <time>2014-08-22T14:25:25Z</time>
      </trkpt>
      <trkpt lat="48.0636" lon="-4.34896">
        <ele>56.86</ele>
        <time>2014-08-22T14:25:37Z</time>
      </trkpt>
      <trkpt lat="48.06366" lon="-4.34874">
        <ele>55.41</ele>
        <time>2014-08-22T14:25:53Z</time>
      </trkpt>
      <trkpt lat="48.06369" lon="-4.34857">
        <ele>54.45</ele>
        <time>2014-08-22T14:26:06Z</time>
      </trkpt>
      <trkpt lat="48.06373" lon="-4.34846">
        <ele>53.49</ele>
        <time>2014-08-22T14:26:14Z</time>
      </trkpt>
      <trkpt lat="48.06374" lon="-4.34842">
        <ele>53.01</ele>
        <time>2014-08-22T14:26:16Z</time>
      </trkpt>
      <trkpt lat="48.06379" lon="-4.34829">
        <ele>51.57</ele>
        <time>2014-08-22T14:26:24Z</time>
      </trkpt>
      <trkpt lat="48.06386" lon="-4.34803">
        <ele>48.2</ele>
        <time>2014-08-22T14:26:40Z</time>
      </trkpt>
      <trkpt lat="48.06394" lon="-4.34774">
        <ele>44.84</ele>
        <time>2014-08-22T14:26:57Z</time>
      </trkpt>
      <trkpt lat="48.064" lon="-4.34746">
        <ele>44.84</ele>
        <time>2014-08-22T14:27:12Z</time>
      </trkpt>
      <trkpt lat="48.06405" lon="-4.34722">
        <ele>42.44</ele>
        <time>2014-08-22T14:27:25Z</time>
      </trkpt>
      <trkpt lat="48.06411" lon="-4.347">
        <ele>41.47</ele>
        <time>2014-08-22T14:27:36Z</time>
      </trkpt>
      <trkpt lat="48.06416" lon="-4.34683">
        <ele>42.92</ele>
        <time>2014-08-22T14:27:44Z</time>
      </trkpt>
      <trkpt lat="48.06422" lon="-4.34658">
        <ele>41.95</ele>
        <time>2014-08-22T14:27:59Z</time>
      </trkpt>
      <trkpt lat="48.06426" lon="-4.34644">
        <ele>40.99</ele>
        <time>2014-08-22T14:28:07Z</time>
      </trkpt>
      <trkpt lat="48.06426" lon="-4.34635">
        <ele>40.03</ele>
        <time>2014-08-22T14:28:12Z</time>
      </trkpt>
      <trkpt lat="48.06432" lon="-4.34614">
        <ele>36.19</ele>
        <time>2014-08-22T14:28:25Z</time>
      </trkpt>
      <trkpt lat="48.06434" lon="-4.34607">
        <ele>35.23</ele>
        <time>2014-08-22T14:28:29Z</time>
      </trkpt>
      <trkpt lat="48.06438" lon="-4.34596">
        <ele>34.74</ele>
        <time>2014-08-22T14:28:35Z</time>
      </trkpt>
      <trkpt lat="48.0644" lon="-4.34591">
        <ele>33.78</ele>
        <time>2014-08-22T14:28:39Z</time>
      </trkpt>
      <trkpt lat="48.06441" lon="-4.34588">
        <ele>33.3</ele>
        <time>2014-08-22T14:28:42Z</time>
      </trkpt>
      <trkpt lat="48.06445" lon="-4.34567">
        <ele>35.23</ele>
        <time>2014-08-22T14:28:54Z</time>
      </trkpt>
      <trkpt lat="48.06447" lon="-4.34558">
        <ele>35.23</ele>
        <time>2014-08-22T14:29:00Z</time>
      </trkpt>
      <trkpt lat="48.06451" lon="-4.34546">
        <ele>34.74</ele>
        <time>2014-08-22T14:29:06Z</time>
      </trkpt>
      <trkpt lat="48.06456" lon="-4.34528">
        <ele>34.74</ele>
        <time>2014-08-22T14:29:17Z</time>
      </trkpt>
      <trkpt lat="48.06462" lon="-4.34509">
        <ele>33.78</ele>
        <time>2014-08-22T14:29:28Z</time>
      </trkpt>
      <trkpt lat="48.06461" lon="-4.34503">
        <ele>34.26</ele>
        <time>2014-08-22T14:29:30Z</time>
      </trkpt>
      <trkpt lat="48.06464" lon="-4.34487">
        <ele>35.23</ele>
        <time>2014-08-22T14:29:38Z</time>
      </trkpt>
      <trkpt lat="48.06468" lon="-4.34461">
        <ele>37.63</ele>
        <time>2014-08-22T14:29:52Z</time>
      </trkpt>
      <trkpt lat="48.06469" lon="-4.34457">
        <ele>37.63</ele>
        <time>2014-08-22T14:29:55Z</time>
      </trkpt>
      <trkpt lat="48.0647" lon="-4.34446">
        <ele>37.15</ele>
        <time>2014-08-22T14:30:02Z</time>
      </trkpt>
      <trkpt lat="48.06473" lon="-4.34437">
        <ele>36.67</ele>
        <time>2014-08-22T14:30:08Z</time>
      </trkpt>
      <trkpt lat="48.06476" lon="-4.34418">
        <ele>34.74</ele>
        <time>2014-08-22T14:30:18Z</time>
      </trkpt>
      <trkpt lat="48.0648" lon="-4.34407">
        <ele>35.23</ele>
        <time>2014-08-22T14:30:25Z</time>
      </trkpt>
      <trkpt lat="48.06481" lon="-4.34403">
        <ele>36.67</ele>
        <time>2014-08-22T14:30:27Z</time>
      </trkpt>
      <trkpt lat="48.06487" lon="-4.34381">
        <ele>40.99</ele>
        <time>2014-08-22T14:30:39Z</time>
      </trkpt>
      <trkpt lat="48.06488" lon="-4.34374">
        <ele>41.95</ele>
        <time>2014-08-22T14:30:42Z</time>
      </trkpt>
      <trkpt lat="48.06489" lon="-4.34366">
        <ele>42.92</ele>
        <time>2014-08-22T14:30:46Z</time>
      </trkpt>
      <trkpt lat="48.0649" lon="-4.34361">
        <ele>42.92</ele>
        <time>2014-08-22T14:30:49Z</time>
      </trkpt>
      <trkpt lat="48.06491" lon="-4.34357">
        <ele>42.44</ele>
        <time>2014-08-22T14:30:51Z</time>
      </trkpt>
      <trkpt lat="48.06496" lon="-4.34343">
        <ele>43.4</ele>
        <time>2014-08-22T14:31:02Z</time>
      </trkpt>
      <trkpt lat="48.06498" lon="-4.34341">
        <ele>45.32</ele>
        <time>2014-08-22T14:31:24Z</time>
      </trkpt>
      <trkpt lat="48.06503" lon="-4.34332">
        <ele>44.36</ele>
        <time>2014-08-22T14:31:35Z</time>
      </trkpt>
      <trkpt lat="48.06505" lon="-4.34328">
        <ele>43.4</ele>
        <time>2014-08-22T14:31:51Z</time>
      </trkpt>
      <trkpt lat="48.06513" lon="-4.34319">
        <ele>44.36</ele>
        <time>2014-08-22T14:32:00Z</time>
      </trkpt>
      <trkpt lat="48.06525" lon="-4.34303">
        <ele>45.8</ele>
        <time>2014-08-22T14:32:17Z</time>
      </trkpt>
      <trkpt lat="48.06536" lon="-4.34283">
        <ele>44.36</ele>
        <time>2014-08-22T14:32:31Z</time>
      </trkpt>
      <trkpt lat="48.06537" lon="-4.34282">
        <ele>44.36</ele>
        <time>2014-08-22T14:32:32Z</time>
      </trkpt>
      <trkpt lat="48.06549" lon="-4.34265">
        <ele>42.92</ele>
        <time>2014-08-22T14:32:47Z</time>
      </trkpt>
      <trkpt lat="48.06551" lon="-4.34259">
        <ele>42.92</ele>
        <time>2014-08-22T14:32:51Z</time>
      </trkpt>
      <trkpt lat="48.06552" lon="-4.34254">
        <ele>42.92</ele>
        <time>2014-08-22T14:32:54Z</time>
      </trkpt>
      <trkpt lat="48.06554" lon="-4.34251">
        <ele>42.92</ele>
        <time>2014-08-22T14:32:56Z</time>
      </trkpt>
      <trkpt lat="48.06556" lon="-4.34248">
        <ele>43.4</ele>
        <time>2014-08-22T14:32:58Z</time>
      </trkpt>
      <trkpt lat="48.06566" lon="-4.3423">
        <ele>44.36</ele>
        <time>2014-08-22T14:33:12Z</time>
      </trkpt>
      <trkpt lat="48.06576" lon="-4.34219">
        <ele>42.92</ele>
        <time>2014-08-22T14:33:24Z</time>
      </trkpt>
      <trkpt lat="48.06587" lon="-4.342">
        <ele>38.59</ele>
        <time>2014-08-22T14:33:39Z</time>
      </trkpt>
      <trkpt lat="48.06598" lon="-4.34181">
        <ele>30.9</ele>
        <time>2014-08-22T14:33:56Z</time>
      </trkpt>
      <trkpt lat="48.06612" lon="-4.34159">
        <ele>26.57</ele>
        <time>2014-08-22T14:34:12Z</time>
      </trkpt>
      <trkpt lat="48.06624" lon="-4.34142">
        <ele>22.25</ele>
        <time>2014-08-22T14:34:27Z</time>
      </trkpt>
      <trkpt lat="48.06636" lon="-4.34124">
        <ele>18.88</ele>
        <time>2014-08-22T14:34:41Z</time>
      </trkpt>
      <trkpt lat="48.06638" lon="-4.34114">
        <ele>22.25</ele>
        <time>2014-08-22T14:34:55Z</time>
      </trkpt>
      <trkpt lat="48.06643" lon="-4.34106">
        <ele>25.13</ele>
        <time>2014-08-22T14:35:14Z</time>
      </trkpt>
      <trkpt lat="48.06654" lon="-4.3409">
        <ele>27.53</ele>
        <time>2014-08-22T14:35:29Z</time>
      </trkpt>
      <trkpt lat="48.0666" lon="-4.34081">
        <ele>28.5</ele>
        <time>2014-08-22T14:35:41Z</time>
      </trkpt>
      <trkpt lat="48.06674" lon="-4.34064">
        <ele>27.53</ele>
        <time>2014-08-22T14:35:58Z</time>
      </trkpt>
      <trkpt lat="48.0668" lon="-4.34052">
        <ele>29.46</ele>
        <time>2014-08-22T14:36:16Z</time>
      </trkpt>
      <trkpt lat="48.06691" lon="-4.34035">
        <ele>26.09</ele>
        <time>2014-08-22T14:36:30Z</time>
      </trkpt>
      <trkpt lat="48.06704" lon="-4.34016">
        <ele>24.65</ele>
        <time>2014-08-22T14:36:44Z</time>
      </trkpt>
      <trkpt lat="48.06711" lon="-4.34005">
        <ele>23.21</ele>
        <time>2014-08-22T14:36:53Z</time>
      </trkpt>
      <trkpt lat="48.06726" lon="-4.33985">
        <ele>21.29</ele>
        <time>2014-08-22T14:37:08Z</time>
      </trkpt>
      <trkpt lat="48.06733" lon="-4.33977">
        <ele>20.81</ele>
        <time>2014-08-22T14:37:15Z</time>
      </trkpt>
      <trkpt lat="48.06746" lon="-4.33954">
        <ele>18.4</ele>
        <time>2014-08-22T14:37:28Z</time>
      </trkpt>
      <trkpt lat="48.06758" lon="-4.33934">
        <ele>19.36</ele>
        <time>2014-08-22T14:37:41Z</time>
      </trkpt>
      <trkpt lat="48.06769" lon="-4.33916">
        <ele>19.84</ele>
        <time>2014-08-22T14:37:54Z</time>
      </trkpt>
      <trkpt lat="48.06774" lon="-4.33909">
        <ele>17.92</ele>
        <time>2014-08-22T14:38:00Z</time>
      </trkpt>
      <trkpt lat="48.0678" lon="-4.33901">
        <ele>16.96</ele>
        <time>2014-08-22T14:38:06Z</time>
      </trkpt>
      <trkpt lat="48.06792" lon="-4.33878">
        <ele>16.48</ele>
        <time>2014-08-22T14:38:21Z</time>
      </trkpt>
      <trkpt lat="48.06793" lon="-4.33876">
        <ele>16.48</ele>
        <time>2014-08-22T14:38:23Z</time>
      </trkpt>
      <trkpt lat="48.068" lon="-4.33866">
        <ele>15.52</ele>
        <time>2014-08-22T14:38:31Z</time>
      </trkpt>
      <trkpt lat="48.06808" lon="-4.33858">
        <ele>14.08</ele>
        <time>2014-08-22T14:38:37Z</time>
      </trkpt>
      <trkpt lat="48.06812" lon="-4.33849">
        <ele>13.12</ele>
        <time>2014-08-22T14:38:43Z</time>
      </trkpt>
      <trkpt lat="48.06816" lon="-4.33843">
        <ele>12.63</ele>
        <time>2014-08-22T14:38:47Z</time>
      </trkpt>
      <trkpt lat="48.06818" lon="-4.33841">
        <ele>12.63</ele>
        <time>2014-08-22T14:38:49Z</time>
      </trkpt>
      <trkpt lat="48.06825" lon="-4.33827">
        <ele>10.71</ele>
        <time>2014-08-22T14:38:59Z</time>
      </trkpt>
      <trkpt lat="48.06833" lon="-4.33808">
        <ele>8.79</ele>
        <time>2014-08-22T14:39:13Z</time>
      </trkpt>
      <trkpt lat="48.06835" lon="-4.33806">
        <ele>8.79</ele>
        <time>2014-08-22T14:39:15Z</time>
      </trkpt>
      <trkpt lat="48.06839" lon="-4.33794">
        <ele>11.67</ele>
        <time>2014-08-22T14:39:21Z</time>
      </trkpt>
      <trkpt lat="48.06843" lon="-4.33785">
        <ele>13.6</ele>
        <time>2014-08-22T14:39:25Z</time>
      </trkpt>
      <trkpt lat="48.06846" lon="-4.33782">
        <ele>14.08</ele>
        <time>2014-08-22T14:39:29Z</time>
      </trkpt>
      <trkpt lat="48.06852" lon="-4.33763">
        <ele>16.48</ele>
        <time>2014-08-22T14:39:40Z</time>
      </trkpt>
      <trkpt lat="48.06863" lon="-4.33734">
        <ele>21.29</ele>
        <time>2014-08-22T14:39:56Z</time>
      </trkpt>
      <trkpt lat="48.06863" lon="-4.33733">
        <ele>21.29</ele>
        <time>2014-08-22T14:39:57Z</time>
      </trkpt>
      <trkpt lat="48.06866" lon="-4.33729">
        <ele>22.25</ele>
        <time>2014-08-22T14:40:00Z</time>
      </trkpt>
      <trkpt lat="48.0687" lon="-4.33716">
        <ele>23.21</ele>
        <time>2014-08-22T14:40:08Z</time>
      </trkpt>
      <trkpt lat="48.06876" lon="-4.33702">
        <ele>24.17</ele>
        <time>2014-08-22T14:40:16Z</time>
      </trkpt>
      <trkpt lat="48.06884" lon="-4.33687">
        <ele>23.21</ele>
        <time>2014-08-22T14:40:27Z</time>
      </trkpt>
      <trkpt lat="48.06895" lon="-4.33658">
        <ele>20.81</ele>
        <time>2014-08-22T14:40:45Z</time>
      </trkpt>
      <trkpt lat="48.06904" lon="-4.3364">
        <ele>18.4</ele>
        <time>2014-08-22T14:40:58Z</time>
      </trkpt>
      <trkpt lat="48.06907" lon="-4.33632">
        <ele>16.48</ele>
        <time>2014-08-22T14:41:04Z</time>
      </trkpt>
      <trkpt lat="48.06915" lon="-4.3361">
        <ele>12.15</ele>
        <time>2014-08-22T14:41:18Z</time>
      </trkpt>
      <trkpt lat="48.06918" lon="-4.33603">
        <ele>9.75</ele>
        <time>2014-08-22T14:41:23Z</time>
      </trkpt>
      <trkpt lat="48.06926" lon="-4.33577">
        <ele>9.27</ele>
        <time>2014-08-22T14:41:38Z</time>
      </trkpt>
      <trkpt lat="48.06933" lon="-4.3356">
        <ele>11.67</ele>
        <time>2014-08-22T14:41:49Z</time>
      </trkpt>
      <trkpt lat="48.06941" lon="-4.3354">
        <ele>13.12</ele>
        <time>2014-08-22T14:42:01Z</time>
      </trkpt>
      <trkpt lat="48.0695" lon="-4.33517">
        <ele>18.88</ele>
        <time>2014-08-22T14:42:14Z</time>
      </trkpt>
      <trkpt lat="48.06951" lon="-4.33511">
        <ele>19.36</ele>
        <time>2014-08-22T14:42:17Z</time>
      </trkpt>
      <trkpt lat="48.06954" lon="-4.33505">
        <ele>19.84</ele>
        <time>2014-08-22T14:42:22Z</time>
      </trkpt>
      <trkpt lat="48.06965" lon="-4.3348">
        <ele>22.25</ele>
        <time>2014-08-22T14:42:37Z</time>
      </trkpt>
      <trkpt lat="48.06975" lon="-4.33463">
        <ele>25.13</ele>
        <time>2014-08-22T14:42:49Z</time>
      </trkpt>
      <trkpt lat="48.06986" lon="-4.33447">
        <ele>26.57</ele>
        <time>2014-08-22T14:43:03Z</time>
      </trkpt>
      <trkpt lat="48.06996" lon="-4.33437">
        <ele>28.5</ele>
        <time>2014-08-22T14:43:13Z</time>
      </trkpt>
      <trkpt lat="48.07003" lon="-4.33428">
        <ele>29.94</ele>
        <time>2014-08-22T14:43:20Z</time>
      </trkpt>
      <trkpt lat="48.07008" lon="-4.33422">
        <ele>29.94</ele>
        <time>2014-08-22T14:43:26Z</time>
      </trkpt>
      <trkpt lat="48.07014" lon="-4.33411">
        <ele>30.9</ele>
        <time>2014-08-22T14:43:33Z</time>
      </trkpt>
      <trkpt lat="48.07022" lon="-4.33401">
        <ele>32.34</ele>
        <time>2014-08-22T14:43:41Z</time>
      </trkpt>
      <trkpt lat="48.07028" lon="-4.33391">
        <ele>34.26</ele>
        <time>2014-08-22T14:43:47Z</time>
      </trkpt>
      <trkpt lat="48.07039" lon="-4.33373">
        <ele>39.55</ele>
        <time>2014-08-22T14:44:02Z</time>
      </trkpt>
      <trkpt lat="48.0705" lon="-4.33359">
        <ele>44.36</ele>
        <time>2014-08-22T14:44:17Z</time>
      </trkpt>
      <trkpt lat="48.07065" lon="-4.33336">
        <ele>47.24</ele>
        <time>2014-08-22T14:44:31Z</time>
      </trkpt>
      <trkpt lat="48.07068" lon="-4.33329">
        <ele>46.76</ele>
        <time>2014-08-22T14:44:35Z</time>
      </trkpt>
      <trkpt lat="48.07078" lon="-4.33315">
        <ele>43.4</ele>
        <time>2014-08-22T14:44:47Z</time>
      </trkpt>
      <trkpt lat="48.07079" lon="-4.33314">
        <ele>43.88</ele>
        <time>2014-08-22T14:44:48Z</time>
      </trkpt>
      <trkpt lat="48.07092" lon="-4.33304">
        <ele>48.68</ele>
        <time>2014-08-22T14:45:00Z</time>
      </trkpt>
      <trkpt lat="48.0711" lon="-4.33298">
        <ele>50.13</ele>
        <time>2014-08-22T14:45:15Z</time>
      </trkpt>
      <trkpt lat="48.07114" lon="-4.33297">
        <ele>49.65</ele>
        <time>2014-08-22T14:45:20Z</time>
      </trkpt>
      <trkpt lat="48.0713" lon="-4.33288">
        <ele>50.61</ele>
        <time>2014-08-22T14:45:33Z</time>
      </trkpt>
      <trkpt lat="48.07149" lon="-4.33281">
        <ele>48.2</ele>
        <time>2014-08-22T14:45:48Z</time>
      </trkpt>
      <trkpt lat="48.07161" lon="-4.33276">
        <ele>45.8</ele>
        <time>2014-08-22T14:46:00Z</time>
      </trkpt>
      <trkpt lat="48.07179" lon="-4.33269">
        <ele>43.88</ele>
        <time>2014-08-22T14:46:12Z</time>
      </trkpt>
      <trkpt lat="48.07195" lon="-4.33263">
        <ele>42.44</ele>
        <time>2014-08-22T14:46:25Z</time>
      </trkpt>
      <trkpt lat="48.07206" lon="-4.33255">
        <ele>40.99</ele>
        <time>2014-08-22T14:46:36Z</time>
      </trkpt>
      <trkpt lat="48.07217" lon="-4.33241">
        <ele>37.15</ele>
        <time>2014-08-22T14:46:51Z</time>
      </trkpt>
      <trkpt lat="48.07218" lon="-4.3324">
        <ele>36.67</ele>
        <time>2014-08-22T14:46:52Z</time>
      </trkpt>
      <trkpt lat="48.07229" lon="-4.33217">
        <ele>31.86</ele>
        <time>2014-08-22T14:47:08Z</time>
      </trkpt>
      <trkpt lat="48.07231" lon="-4.33211">
        <ele>30.42</ele>
        <time>2014-08-22T14:47:12Z</time>
      </trkpt>
      <trkpt lat="48.0724" lon="-4.33191">
        <ele>28.5</ele>
        <time>2014-08-22T14:47:27Z</time>
      </trkpt>
      <trkpt lat="48.07241" lon="-4.33182">
        <ele>27.53</ele>
        <time>2014-08-22T14:47:32Z</time>
      </trkpt>
      <trkpt lat="48.07243" lon="-4.33174">
        <ele>28.02</ele>
        <time>2014-08-22T14:47:36Z</time>
      </trkpt>
      <trkpt lat="48.07246" lon="-4.33164">
        <ele>29.94</ele>
        <time>2014-08-22T14:47:49Z</time>
      </trkpt>
      <trkpt lat="48.07247" lon="-4.33168">
        <ele>29.46</ele>
        <time>2014-08-22T14:47:52Z</time>
      </trkpt>
      <trkpt lat="48.07249" lon="-4.33173">
        <ele>29.46</ele>
        <time>2014-08-22T14:48:03Z</time>
      </trkpt>
      <trkpt lat="48.07248" lon="-4.33171">
        <ele>30.42</ele>
        <time>2014-08-22T14:48:32Z</time>
      </trkpt>
      <trkpt lat="48.07246" lon="-4.33163">
        <ele>31.38</ele>
        <time>2014-08-22T14:48:39Z</time>
      </trkpt>
      <trkpt lat="48.07258" lon="-4.33134">
        <ele>33.78</ele>
        <time>2014-08-22T14:48:57Z</time>
      </trkpt>
      <trkpt lat="48.07262" lon="-4.33127">
        <ele>33.78</ele>
        <time>2014-08-22T14:49:01Z</time>
      </trkpt>
      <trkpt lat="48.07276" lon="-4.33112">
        <ele>33.3</ele>
        <time>2014-08-22T14:49:14Z</time>
      </trkpt>
      <trkpt lat="48.07291" lon="-4.33099">
        <ele>33.3</ele>
        <time>2014-08-22T14:49:28Z</time>
      </trkpt>
      <trkpt lat="48.07293" lon="-4.33097">
        <ele>32.82</ele>
        <time>2014-08-22T14:49:30Z</time>
      </trkpt>
      <trkpt lat="48.073" lon="-4.33094">
        <ele>32.34</ele>
        <time>2014-08-22T14:49:35Z</time>
      </trkpt>
      <trkpt lat="48.0732" lon="-4.33079">
        <ele>30.42</ele>
        <time>2014-08-22T14:49:51Z</time>
      </trkpt>
      <trkpt lat="48.07332" lon="-4.33076">
        <ele>29.94</ele>
        <time>2014-08-22T14:50:04Z</time>
      </trkpt>
      <trkpt lat="48.07338" lon="-4.33074">
        <ele>29.46</ele>
        <time>2014-08-22T14:50:10Z</time>
      </trkpt>
      <trkpt lat="48.07341" lon="-4.33073">
        <ele>29.46</ele>
        <time>2014-08-22T14:50:12Z</time>
      </trkpt>
      <trkpt lat="48.07344" lon="-4.33073">
        <ele>28.98</ele>
        <time>2014-08-22T14:50:15Z</time>
      </trkpt>
      <trkpt lat="48.0736" lon="-4.33079">
        <ele>28.02</ele>
        <time>2014-08-22T14:50:29Z</time>
      </trkpt>
      <trkpt lat="48.07364" lon="-4.33079">
        <ele>26.57</ele>
        <time>2014-08-22T14:50:33Z</time>
      </trkpt>
      <trkpt lat="48.07374" lon="-4.33079">
        <ele>21.29</ele>
        <time>2014-08-22T14:50:44Z</time>
      </trkpt>
      <trkpt lat="48.07395" lon="-4.33076">
        <ele>19.84</ele>
        <time>2014-08-22T14:50:58Z</time>
      </trkpt>
      <trkpt lat="48.07399" lon="-4.33075">
        <ele>18.88</ele>
        <time>2014-08-22T14:51:03Z</time>
      </trkpt>
      <trkpt lat="48.07406" lon="-4.33073">
        <ele>19.84</ele>
        <time>2014-08-22T14:51:11Z</time>
      </trkpt>
      <trkpt lat="48.07423" lon="-4.3307">
        <ele>21.77</ele>
        <time>2014-08-22T14:51:22Z</time>
      </trkpt>
      <trkpt lat="48.07438" lon="-4.33064">
        <ele>22.73</ele>
        <time>2014-08-22T14:51:35Z</time>
      </trkpt>
      <trkpt lat="48.07446" lon="-4.33063">
        <ele>24.17</ele>
        <time>2014-08-22T14:51:42Z</time>
      </trkpt>
      <trkpt lat="48.07463" lon="-4.33054">
        <ele>25.61</ele>
        <time>2014-08-22T14:51:55Z</time>
      </trkpt>
      <trkpt lat="48.07475" lon="-4.33047">
        <ele>23.69</ele>
        <time>2014-08-22T14:52:07Z</time>
      </trkpt>
      <trkpt lat="48.07479" lon="-4.33045">
        <ele>24.65</ele>
        <time>2014-08-22T14:52:10Z</time>
      </trkpt>
      <trkpt lat="48.07488" lon="-4.33042">
        <ele>27.05</ele>
        <time>2014-08-22T14:52:18Z</time>
      </trkpt>
      <trkpt lat="48.07507" lon="-4.33036">
        <ele>26.09</ele>
        <time>2014-08-22T14:52:32Z</time>
      </trkpt>
      <trkpt lat="48.07522" lon="-4.33029">
        <ele>25.13</ele>
        <time>2014-08-22T14:52:45Z</time>
      </trkpt>
      <trkpt lat="48.07523" lon="-4.33029">
        <ele>25.13</ele>
        <time>2014-08-22T14:52:46Z</time>
      </trkpt>
      <trkpt lat="48.07532" lon="-4.33025">
        <ele>23.69</ele>
        <time>2014-08-22T14:52:54Z</time>
      </trkpt>
      <trkpt lat="48.07547" lon="-4.33026">
        <ele>23.69</ele>
        <time>2014-08-22T14:53:07Z</time>
      </trkpt>
      <trkpt lat="48.07552" lon="-4.33026">
        <ele>24.17</ele>
        <time>2014-08-22T14:53:11Z</time>
      </trkpt>
      <trkpt lat="48.07559" lon="-4.33014">
        <ele>23.69</ele>
        <time>2014-08-22T14:53:22Z</time>
      </trkpt>
      <trkpt lat="48.0756" lon="-4.33013">
        <ele>23.21</ele>
        <time>2014-08-22T14:53:23Z</time>
      </trkpt>
      <trkpt lat="48.07568" lon="-4.33009">
        <ele>23.69</ele>
        <time>2014-08-22T14:53:29Z</time>
      </trkpt>
      <trkpt lat="48.07571" lon="-4.33006">
        <ele>24.17</ele>
        <time>2014-08-22T14:53:32Z</time>
      </trkpt>
      <trkpt lat="48.07583" lon="-4.33">
        <ele>25.13</ele>
        <time>2014-08-22T14:53:42Z</time>
      </trkpt>
      <trkpt lat="48.07598" lon="-4.32995">
        <ele>24.65</ele>
        <time>2014-08-22T14:53:55Z</time>
      </trkpt>
      <trkpt lat="48.07603" lon="-4.32996">
        <ele>22.25</ele>
        <time>2014-08-22T14:54:00Z</time>
      </trkpt>
      <trkpt lat="48.07612" lon="-4.32996">
        <ele>21.77</ele>
        <time>2014-08-22T14:54:11Z</time>
      </trkpt>
      <trkpt lat="48.07622" lon="-4.33">
        <ele>22.73</ele>
        <time>2014-08-22T14:54:23Z</time>
      </trkpt>
      <trkpt lat="48.07637" lon="-4.33004">
        <ele>20.32</ele>
        <time>2014-08-22T14:54:35Z</time>
      </trkpt>
      <trkpt lat="48.07638" lon="-4.33004">
        <ele>20.32</ele>
        <time>2014-08-22T14:54:36Z</time>
      </trkpt>
      <trkpt lat="48.0766" lon="-4.33008">
        <ele>20.32</ele>
        <time>2014-08-22T14:54:51Z</time>
      </trkpt>
      <trkpt lat="48.07673" lon="-4.33008">
        <ele>22.25</ele>
        <time>2014-08-22T14:55:02Z</time>
      </trkpt>
      <trkpt lat="48.07684" lon="-4.33012">
        <ele>20.81</ele>
        <time>2014-08-22T14:55:12Z</time>
      </trkpt>
      <trkpt lat="48.07686" lon="-4.33013">
        <ele>20.81</ele>
        <time>2014-08-22T14:55:14Z</time>
      </trkpt>
      <trkpt lat="48.07698" lon="-4.33028">
        <ele>16.96</ele>
        <time>2014-08-22T14:55:28Z</time>
      </trkpt>
      <trkpt lat="48.07707" lon="-4.33037">
        <ele>14.56</ele>
        <time>2014-08-22T14:55:39Z</time>
      </trkpt>
      <trkpt lat="48.07708" lon="-4.33037">
        <ele>15.04</ele>
        <time>2014-08-22T14:55:40Z</time>
      </trkpt>
      <trkpt lat="48.07719" lon="-4.3304">
        <ele>16.48</ele>
        <time>2014-08-22T14:55:53Z</time>
      </trkpt>
      <trkpt lat="48.07725" lon="-4.3304">
        <ele>16</ele>
        <time>2014-08-22T14:56:07Z</time>
      </trkpt>
      <trkpt lat="48.07728" lon="-4.33039">
        <ele>15.04</ele>
        <time>2014-08-22T14:56:23Z</time>
      </trkpt>
      <trkpt lat="48.07733" lon="-4.33037">
        <ele>14.08</ele>
        <time>2014-08-22T14:56:36Z</time>
      </trkpt>
      <trkpt lat="48.07738" lon="-4.33038">
        <ele>12.63</ele>
        <time>2014-08-22T14:56:51Z</time>
      </trkpt>
      <trkpt lat="48.07739" lon="-4.33037">
        <ele>12.15</ele>
        <time>2014-08-22T14:57:10Z</time>
      </trkpt>
      <trkpt lat="48.07739" lon="-4.33034">
        <ele>10.71</ele>
        <time>2014-08-22T14:57:30Z</time>
      </trkpt>
      <trkpt lat="48.07744" lon="-4.33031">
        <ele>9.27</ele>
        <time>2014-08-22T14:57:53Z</time>
      </trkpt>
      <trkpt lat="48.07744" lon="-4.33025">
        <ele>6.87</ele>
        <time>2014-08-22T14:58:04Z</time>
      </trkpt>
      <trkpt lat="48.07748" lon="-4.3301">
        <ele>4.94</ele>
        <time>2014-08-22T14:58:09Z</time>
      </trkpt>
      <trkpt lat="48.07749" lon="-4.32991">
        <ele>2.06</ele>
        <time>2014-08-22T14:58:15Z</time>
      </trkpt>
      <trkpt lat="48.0775" lon="-4.33019">
        <ele>29.46</ele>
        <time>2014-08-22T14:58:59Z</time>
      </trkpt>
      <trkpt lat="48.07749" lon="-4.33033">
        <ele>41.47</ele>
        <time>2014-08-22T14:59:20Z</time>
      </trkpt>
      <trkpt lat="48.07749" lon="-4.33032">
        <ele>47.72</ele>
        <time>2014-08-22T14:59:38Z</time>
      </trkpt>
    </trkseg>
  </trk>
</gpx>